<?xml version="1.0" encoding="UTF-8" standalone="no" ?>
<gpx xmlns="http://www.topografix.com/GPX/1/1" xmlns:xsi="http://www.w3.org/2001/XMLSchema-instance" xsi:schemaLocation="http://www.topografix.com/GPX/1/1 http://www.topografix.com/GPX/1/1/gpx.xsd" version="1.1" creator="VisuGPX - https://www.visugpx.com">
  <metadata>
    <name>PELVAS MONTEE S-DESC E</name>
    <desc><![CDATA[grp_trc:]]></desc>
  </metadata>
  <trk>
    <name><![CDATA[8 janv. 2022]]></name>
    <cmt><![CDATA[10:20:52]]></cmt>
    <desc><![CDATA[comment ...]]></desc>
    <trkseg>
      <trkpt lat="44.76654" lon="6.98406">
        <ele>1630</ele>
        <time>2022-01-08T09:20:52Z</time>
      </trkpt>
      <trkpt lat="44.76653" lon="6.98407">
        <ele>1631</ele>
        <time>2022-01-08T09:20:53Z</time>
      </trkpt>
      <trkpt lat="44.76654" lon="6.98411">
        <ele>1632</ele>
        <time>2022-01-08T09:20:55Z</time>
      </trkpt>
      <trkpt lat="44.76655" lon="6.98409">
        <ele>1633</ele>
        <time>2022-01-08T09:21:11Z</time>
      </trkpt>
      <trkpt lat="44.76657" lon="6.98409">
        <ele>1633</ele>
        <time>2022-01-08T09:21:13Z</time>
      </trkpt>
      <trkpt lat="44.76662" lon="6.98408">
        <ele>1634</ele>
        <time>2022-01-08T09:21:20Z</time>
      </trkpt>
      <trkpt lat="44.76665" lon="6.9841">
        <ele>1635</ele>
        <time>2022-01-08T09:21:27Z</time>
      </trkpt>
      <trkpt lat="44.76667" lon="6.98409">
        <ele>1636</ele>
        <time>2022-01-08T09:21:31Z</time>
      </trkpt>
      <trkpt lat="44.76669" lon="6.98412">
        <ele>1636</ele>
        <time>2022-01-08T09:21:34Z</time>
      </trkpt>
      <trkpt lat="44.7667" lon="6.98413">
        <ele>1637</ele>
        <time>2022-01-08T09:21:37Z</time>
      </trkpt>
      <trkpt lat="44.76672" lon="6.98415">
        <ele>1638</ele>
        <time>2022-01-08T09:21:42Z</time>
      </trkpt>
      <trkpt lat="44.76674" lon="6.98413">
        <ele>1638</ele>
        <time>2022-01-08T09:21:44Z</time>
      </trkpt>
      <trkpt lat="44.76678" lon="6.98414">
        <ele>1639</ele>
        <time>2022-01-08T09:21:48Z</time>
      </trkpt>
      <trkpt lat="44.7668" lon="6.98415">
        <ele>1639</ele>
        <time>2022-01-08T09:21:52Z</time>
      </trkpt>
      <trkpt lat="44.76681" lon="6.98417">
        <ele>1640</ele>
        <time>2022-01-08T09:21:54Z</time>
      </trkpt>
      <trkpt lat="44.76686" lon="6.98422">
        <ele>1640</ele>
        <time>2022-01-08T09:22:01Z</time>
      </trkpt>
      <trkpt lat="44.76688" lon="6.98423">
        <ele>1640</ele>
        <time>2022-01-08T09:22:03Z</time>
      </trkpt>
      <trkpt lat="44.76689" lon="6.98425">
        <ele>1640</ele>
        <time>2022-01-08T09:22:06Z</time>
      </trkpt>
      <trkpt lat="44.7669" lon="6.98427">
        <ele>1640</ele>
        <time>2022-01-08T09:22:08Z</time>
      </trkpt>
      <trkpt lat="44.76692" lon="6.98429">
        <ele>1640</ele>
        <time>2022-01-08T09:22:11Z</time>
      </trkpt>
      <trkpt lat="44.76695" lon="6.98432">
        <ele>1640</ele>
        <time>2022-01-08T09:22:16Z</time>
      </trkpt>
      <trkpt lat="44.76696" lon="6.98434">
        <ele>1640</ele>
        <time>2022-01-08T09:22:21Z</time>
      </trkpt>
      <trkpt lat="44.76705" lon="6.9844">
        <ele>1641</ele>
        <time>2022-01-08T09:22:34Z</time>
      </trkpt>
      <trkpt lat="44.76707" lon="6.98441">
        <ele>1642</ele>
        <time>2022-01-08T09:22:36Z</time>
      </trkpt>
      <trkpt lat="44.76708" lon="6.98443">
        <ele>1642</ele>
        <time>2022-01-08T09:22:39Z</time>
      </trkpt>
      <trkpt lat="44.7671" lon="6.98443">
        <ele>1642</ele>
        <time>2022-01-08T09:22:41Z</time>
      </trkpt>
      <trkpt lat="44.76712" lon="6.98448">
        <ele>1642</ele>
        <time>2022-01-08T09:22:47Z</time>
      </trkpt>
      <trkpt lat="44.76718" lon="6.98452">
        <ele>1642</ele>
        <time>2022-01-08T09:22:56Z</time>
      </trkpt>
      <trkpt lat="44.76719" lon="6.98452">
        <ele>1643</ele>
        <time>2022-01-08T09:22:59Z</time>
      </trkpt>
      <trkpt lat="44.76724" lon="6.98456">
        <ele>1643</ele>
        <time>2022-01-08T09:23:06Z</time>
      </trkpt>
      <trkpt lat="44.76725" lon="6.98458">
        <ele>1644</ele>
        <time>2022-01-08T09:23:08Z</time>
      </trkpt>
      <trkpt lat="44.76726" lon="6.98461">
        <ele>1644</ele>
        <time>2022-01-08T09:23:10Z</time>
      </trkpt>
      <trkpt lat="44.7673" lon="6.98462">
        <ele>1644</ele>
        <time>2022-01-08T09:23:15Z</time>
      </trkpt>
      <trkpt lat="44.76738" lon="6.98467">
        <ele>1644</ele>
        <time>2022-01-08T09:23:23Z</time>
      </trkpt>
      <trkpt lat="44.76739" lon="6.9847">
        <ele>1644</ele>
        <time>2022-01-08T09:23:25Z</time>
      </trkpt>
      <trkpt lat="44.76741" lon="6.9847">
        <ele>1644</ele>
        <time>2022-01-08T09:23:27Z</time>
      </trkpt>
      <trkpt lat="44.76743" lon="6.98472">
        <ele>1645</ele>
        <time>2022-01-08T09:23:31Z</time>
      </trkpt>
      <trkpt lat="44.76743" lon="6.98476">
        <ele>1645</ele>
        <time>2022-01-08T09:23:33Z</time>
      </trkpt>
      <trkpt lat="44.76744" lon="6.98479">
        <ele>1646</ele>
        <time>2022-01-08T09:23:38Z</time>
      </trkpt>
      <trkpt lat="44.76745" lon="6.98481">
        <ele>1646</ele>
        <time>2022-01-08T09:23:40Z</time>
      </trkpt>
      <trkpt lat="44.76747" lon="6.98482">
        <ele>1646</ele>
        <time>2022-01-08T09:23:42Z</time>
      </trkpt>
      <trkpt lat="44.76748" lon="6.98482">
        <ele>1646</ele>
        <time>2022-01-08T09:23:45Z</time>
      </trkpt>
      <trkpt lat="44.7675" lon="6.98481">
        <ele>1645</ele>
        <time>2022-01-08T09:23:47Z</time>
      </trkpt>
      <trkpt lat="44.76752" lon="6.9848">
        <ele>1644</ele>
        <time>2022-01-08T09:23:50Z</time>
      </trkpt>
      <trkpt lat="44.76755" lon="6.98486">
        <ele>1644</ele>
        <time>2022-01-08T09:23:55Z</time>
      </trkpt>
      <trkpt lat="44.76761" lon="6.98493">
        <ele>1647</ele>
        <time>2022-01-08T09:24:06Z</time>
      </trkpt>
      <trkpt lat="44.76761" lon="6.98502">
        <ele>1652</ele>
        <time>2022-01-08T09:24:08Z</time>
      </trkpt>
      <trkpt lat="44.76762" lon="6.98505">
        <ele>1654</ele>
        <time>2022-01-08T09:24:10Z</time>
      </trkpt>
      <trkpt lat="44.76764" lon="6.98506">
        <ele>1656</ele>
        <time>2022-01-08T09:24:13Z</time>
      </trkpt>
      <trkpt lat="44.76769" lon="6.98512">
        <ele>1660</ele>
        <time>2022-01-08T09:24:24Z</time>
      </trkpt>
      <trkpt lat="44.76771" lon="6.98517">
        <ele>1661</ele>
        <time>2022-01-08T09:24:28Z</time>
      </trkpt>
      <trkpt lat="44.76773" lon="6.9852">
        <ele>1661</ele>
        <time>2022-01-08T09:24:30Z</time>
      </trkpt>
      <trkpt lat="44.76773" lon="6.98523">
        <ele>1662</ele>
        <time>2022-01-08T09:24:32Z</time>
      </trkpt>
      <trkpt lat="44.76777" lon="6.98533">
        <ele>1664</ele>
        <time>2022-01-08T09:24:41Z</time>
      </trkpt>
      <trkpt lat="44.76779" lon="6.98535">
        <ele>1664</ele>
        <time>2022-01-08T09:24:43Z</time>
      </trkpt>
      <trkpt lat="44.76781" lon="6.98539">
        <ele>1663</ele>
        <time>2022-01-08T09:24:51Z</time>
      </trkpt>
      <trkpt lat="44.76782" lon="6.98541">
        <ele>1664</ele>
        <time>2022-01-08T09:24:54Z</time>
      </trkpt>
      <trkpt lat="44.76784" lon="6.98544">
        <ele>1664</ele>
        <time>2022-01-08T09:24:57Z</time>
      </trkpt>
      <trkpt lat="44.76786" lon="6.98546">
        <ele>1665</ele>
        <time>2022-01-08T09:25:00Z</time>
      </trkpt>
      <trkpt lat="44.76788" lon="6.98547">
        <ele>1665</ele>
        <time>2022-01-08T09:25:03Z</time>
      </trkpt>
      <trkpt lat="44.76789" lon="6.98548">
        <ele>1666</ele>
        <time>2022-01-08T09:25:05Z</time>
      </trkpt>
      <trkpt lat="44.7679" lon="6.9855">
        <ele>1666</ele>
        <time>2022-01-08T09:25:08Z</time>
      </trkpt>
      <trkpt lat="44.76791" lon="6.98552">
        <ele>1667</ele>
        <time>2022-01-08T09:25:10Z</time>
      </trkpt>
      <trkpt lat="44.76793" lon="6.98554">
        <ele>1667</ele>
        <time>2022-01-08T09:25:13Z</time>
      </trkpt>
      <trkpt lat="44.76796" lon="6.98559">
        <ele>1669</ele>
        <time>2022-01-08T09:25:20Z</time>
      </trkpt>
      <trkpt lat="44.76797" lon="6.98561">
        <ele>1669</ele>
        <time>2022-01-08T09:25:22Z</time>
      </trkpt>
      <trkpt lat="44.76798" lon="6.98563">
        <ele>1670</ele>
        <time>2022-01-08T09:25:25Z</time>
      </trkpt>
      <trkpt lat="44.76802" lon="6.98566">
        <ele>1671</ele>
        <time>2022-01-08T09:25:30Z</time>
      </trkpt>
      <trkpt lat="44.76803" lon="6.98566">
        <ele>1671</ele>
        <time>2022-01-08T09:25:32Z</time>
      </trkpt>
      <trkpt lat="44.76806" lon="6.98568">
        <ele>1671</ele>
        <time>2022-01-08T09:25:36Z</time>
      </trkpt>
      <trkpt lat="44.76808" lon="6.9857">
        <ele>1671</ele>
        <time>2022-01-08T09:25:39Z</time>
      </trkpt>
      <trkpt lat="44.7681" lon="6.98572">
        <ele>1672</ele>
        <time>2022-01-08T09:25:41Z</time>
      </trkpt>
      <trkpt lat="44.76813" lon="6.98574">
        <ele>1672</ele>
        <time>2022-01-08T09:25:46Z</time>
      </trkpt>
      <trkpt lat="44.76815" lon="6.98576">
        <ele>1672</ele>
        <time>2022-01-08T09:25:48Z</time>
      </trkpt>
      <trkpt lat="44.76816" lon="6.98579">
        <ele>1673</ele>
        <time>2022-01-08T09:25:51Z</time>
      </trkpt>
      <trkpt lat="44.76823" lon="6.98582">
        <ele>1674</ele>
        <time>2022-01-08T09:25:58Z</time>
      </trkpt>
      <trkpt lat="44.76824" lon="6.98583">
        <ele>1674</ele>
        <time>2022-01-08T09:26:00Z</time>
      </trkpt>
      <trkpt lat="44.76826" lon="6.98582">
        <ele>1674</ele>
        <time>2022-01-08T09:26:04Z</time>
      </trkpt>
      <trkpt lat="44.76828" lon="6.98583">
        <ele>1674</ele>
        <time>2022-01-08T09:26:08Z</time>
      </trkpt>
      <trkpt lat="44.76829" lon="6.98583">
        <ele>1674</ele>
        <time>2022-01-08T09:26:14Z</time>
      </trkpt>
      <trkpt lat="44.76829" lon="6.98588">
        <ele>1675</ele>
        <time>2022-01-08T09:26:35Z</time>
      </trkpt>
      <trkpt lat="44.76829" lon="6.9859">
        <ele>1675</ele>
        <time>2022-01-08T09:26:40Z</time>
      </trkpt>
      <trkpt lat="44.76828" lon="6.98591">
        <ele>1675</ele>
        <time>2022-01-08T09:26:42Z</time>
      </trkpt>
      <trkpt lat="44.76826" lon="6.98592">
        <ele>1675</ele>
        <time>2022-01-08T09:26:44Z</time>
      </trkpt>
      <trkpt lat="44.76824" lon="6.98592">
        <ele>1675</ele>
        <time>2022-01-08T09:26:46Z</time>
      </trkpt>
      <trkpt lat="44.76823" lon="6.98592">
        <ele>1675</ele>
        <time>2022-01-08T09:26:48Z</time>
      </trkpt>
      <trkpt lat="44.76821" lon="6.98593">
        <ele>1675</ele>
        <time>2022-01-08T09:26:50Z</time>
      </trkpt>
      <trkpt lat="44.7682" lon="6.98594">
        <ele>1675</ele>
        <time>2022-01-08T09:26:52Z</time>
      </trkpt>
      <trkpt lat="44.7682" lon="6.98597">
        <ele>1675</ele>
        <time>2022-01-08T09:26:54Z</time>
      </trkpt>
      <trkpt lat="44.76827" lon="6.98617">
        <ele>1676</ele>
        <time>2022-01-08T09:27:16Z</time>
      </trkpt>
      <trkpt lat="44.76827" lon="6.98623">
        <ele>1676</ele>
        <time>2022-01-08T09:27:22Z</time>
      </trkpt>
      <trkpt lat="44.76827" lon="6.98626">
        <ele>1677</ele>
        <time>2022-01-08T09:27:25Z</time>
      </trkpt>
      <trkpt lat="44.76829" lon="6.98628">
        <ele>1677</ele>
        <time>2022-01-08T09:27:28Z</time>
      </trkpt>
      <trkpt lat="44.7683" lon="6.98633">
        <ele>1677</ele>
        <time>2022-01-08T09:27:33Z</time>
      </trkpt>
      <trkpt lat="44.76829" lon="6.98635">
        <ele>1678</ele>
        <time>2022-01-08T09:27:35Z</time>
      </trkpt>
      <trkpt lat="44.76829" lon="6.98637">
        <ele>1678</ele>
        <time>2022-01-08T09:27:37Z</time>
      </trkpt>
      <trkpt lat="44.7683" lon="6.9864">
        <ele>1678</ele>
        <time>2022-01-08T09:27:40Z</time>
      </trkpt>
      <trkpt lat="44.7683" lon="6.98642">
        <ele>1678</ele>
        <time>2022-01-08T09:27:43Z</time>
      </trkpt>
      <trkpt lat="44.76831" lon="6.98645">
        <ele>1678</ele>
        <time>2022-01-08T09:27:47Z</time>
      </trkpt>
      <trkpt lat="44.76834" lon="6.98663">
        <ele>1678</ele>
        <time>2022-01-08T09:28:02Z</time>
      </trkpt>
      <trkpt lat="44.76833" lon="6.98666">
        <ele>1678</ele>
        <time>2022-01-08T09:28:05Z</time>
      </trkpt>
      <trkpt lat="44.76836" lon="6.98673">
        <ele>1679</ele>
        <time>2022-01-08T09:28:13Z</time>
      </trkpt>
      <trkpt lat="44.76836" lon="6.98678">
        <ele>1680</ele>
        <time>2022-01-08T09:28:18Z</time>
      </trkpt>
      <trkpt lat="44.76837" lon="6.98684">
        <ele>1681</ele>
        <time>2022-01-08T09:28:23Z</time>
      </trkpt>
      <trkpt lat="44.76838" lon="6.98689">
        <ele>1681</ele>
        <time>2022-01-08T09:28:28Z</time>
      </trkpt>
      <trkpt lat="44.76839" lon="6.98692">
        <ele>1681</ele>
        <time>2022-01-08T09:28:30Z</time>
      </trkpt>
      <trkpt lat="44.76839" lon="6.98694">
        <ele>1681</ele>
        <time>2022-01-08T09:28:33Z</time>
      </trkpt>
      <trkpt lat="44.7684" lon="6.98696">
        <ele>1682</ele>
        <time>2022-01-08T09:28:44Z</time>
      </trkpt>
      <trkpt lat="44.76841" lon="6.98699">
        <ele>1683</ele>
        <time>2022-01-08T09:28:47Z</time>
      </trkpt>
      <trkpt lat="44.76842" lon="6.98705">
        <ele>1684</ele>
        <time>2022-01-08T09:28:52Z</time>
      </trkpt>
      <trkpt lat="44.76842" lon="6.98711">
        <ele>1684</ele>
        <time>2022-01-08T09:28:56Z</time>
      </trkpt>
      <trkpt lat="44.76842" lon="6.98714">
        <ele>1684</ele>
        <time>2022-01-08T09:28:58Z</time>
      </trkpt>
      <trkpt lat="44.76842" lon="6.98716">
        <ele>1684</ele>
        <time>2022-01-08T09:29:00Z</time>
      </trkpt>
      <trkpt lat="44.76842" lon="6.98719">
        <ele>1684</ele>
        <time>2022-01-08T09:29:02Z</time>
      </trkpt>
      <trkpt lat="44.76842" lon="6.98722">
        <ele>1684</ele>
        <time>2022-01-08T09:29:05Z</time>
      </trkpt>
      <trkpt lat="44.76842" lon="6.98724">
        <ele>1684</ele>
        <time>2022-01-08T09:29:07Z</time>
      </trkpt>
      <trkpt lat="44.76843" lon="6.98726">
        <ele>1684</ele>
        <time>2022-01-08T09:29:09Z</time>
      </trkpt>
      <trkpt lat="44.76844" lon="6.98729">
        <ele>1684</ele>
        <time>2022-01-08T09:29:11Z</time>
      </trkpt>
      <trkpt lat="44.76845" lon="6.98734">
        <ele>1684</ele>
        <time>2022-01-08T09:29:16Z</time>
      </trkpt>
      <trkpt lat="44.76845" lon="6.98737">
        <ele>1684</ele>
        <time>2022-01-08T09:29:19Z</time>
      </trkpt>
      <trkpt lat="44.76845" lon="6.9874">
        <ele>1684</ele>
        <time>2022-01-08T09:29:22Z</time>
      </trkpt>
      <trkpt lat="44.76846" lon="6.98742">
        <ele>1684</ele>
        <time>2022-01-08T09:29:24Z</time>
      </trkpt>
      <trkpt lat="44.76846" lon="6.98746">
        <ele>1684</ele>
        <time>2022-01-08T09:29:26Z</time>
      </trkpt>
      <trkpt lat="44.76847" lon="6.98757">
        <ele>1685</ele>
        <time>2022-01-08T09:29:36Z</time>
      </trkpt>
      <trkpt lat="44.76847" lon="6.9876">
        <ele>1685</ele>
        <time>2022-01-08T09:29:38Z</time>
      </trkpt>
      <trkpt lat="44.76847" lon="6.98762">
        <ele>1685</ele>
        <time>2022-01-08T09:29:40Z</time>
      </trkpt>
      <trkpt lat="44.76847" lon="6.98765">
        <ele>1686</ele>
        <time>2022-01-08T09:29:42Z</time>
      </trkpt>
      <trkpt lat="44.76847" lon="6.98768">
        <ele>1686</ele>
        <time>2022-01-08T09:29:44Z</time>
      </trkpt>
      <trkpt lat="44.76847" lon="6.98771">
        <ele>1686</ele>
        <time>2022-01-08T09:29:46Z</time>
      </trkpt>
      <trkpt lat="44.76848" lon="6.98773">
        <ele>1686</ele>
        <time>2022-01-08T09:29:48Z</time>
      </trkpt>
      <trkpt lat="44.76847" lon="6.98776">
        <ele>1687</ele>
        <time>2022-01-08T09:29:50Z</time>
      </trkpt>
      <trkpt lat="44.76847" lon="6.98784">
        <ele>1688</ele>
        <time>2022-01-08T09:29:57Z</time>
      </trkpt>
      <trkpt lat="44.76847" lon="6.98786">
        <ele>1688</ele>
        <time>2022-01-08T09:29:59Z</time>
      </trkpt>
      <trkpt lat="44.76847" lon="6.98789">
        <ele>1688</ele>
        <time>2022-01-08T09:30:01Z</time>
      </trkpt>
      <trkpt lat="44.76847" lon="6.98792">
        <ele>1688</ele>
        <time>2022-01-08T09:30:03Z</time>
      </trkpt>
      <trkpt lat="44.76846" lon="6.98803">
        <ele>1690</ele>
        <time>2022-01-08T09:30:14Z</time>
      </trkpt>
      <trkpt lat="44.76847" lon="6.98805">
        <ele>1690</ele>
        <time>2022-01-08T09:30:17Z</time>
      </trkpt>
      <trkpt lat="44.76847" lon="6.98807">
        <ele>1691</ele>
        <time>2022-01-08T09:30:20Z</time>
      </trkpt>
      <trkpt lat="44.76847" lon="6.98809">
        <ele>1691</ele>
        <time>2022-01-08T09:30:23Z</time>
      </trkpt>
      <trkpt lat="44.76845" lon="6.98817">
        <ele>1692</ele>
        <time>2022-01-08T09:30:31Z</time>
      </trkpt>
      <trkpt lat="44.76845" lon="6.98823">
        <ele>1693</ele>
        <time>2022-01-08T09:30:37Z</time>
      </trkpt>
      <trkpt lat="44.76845" lon="6.98826">
        <ele>1693</ele>
        <time>2022-01-08T09:30:40Z</time>
      </trkpt>
      <trkpt lat="44.76845" lon="6.98828">
        <ele>1693</ele>
        <time>2022-01-08T09:30:43Z</time>
      </trkpt>
      <trkpt lat="44.76845" lon="6.98831">
        <ele>1694</ele>
        <time>2022-01-08T09:30:45Z</time>
      </trkpt>
      <trkpt lat="44.76845" lon="6.9884">
        <ele>1695</ele>
        <time>2022-01-08T09:30:54Z</time>
      </trkpt>
      <trkpt lat="44.76845" lon="6.98842">
        <ele>1695</ele>
        <time>2022-01-08T09:30:56Z</time>
      </trkpt>
      <trkpt lat="44.76844" lon="6.98844">
        <ele>1696</ele>
        <time>2022-01-08T09:30:58Z</time>
      </trkpt>
      <trkpt lat="44.76843" lon="6.98846">
        <ele>1697</ele>
        <time>2022-01-08T09:31:02Z</time>
      </trkpt>
      <trkpt lat="44.76842" lon="6.98851">
        <ele>1698</ele>
        <time>2022-01-08T09:31:08Z</time>
      </trkpt>
      <trkpt lat="44.76841" lon="6.98853">
        <ele>1698</ele>
        <time>2022-01-08T09:31:10Z</time>
      </trkpt>
      <trkpt lat="44.7684" lon="6.98855">
        <ele>1698</ele>
        <time>2022-01-08T09:31:12Z</time>
      </trkpt>
      <trkpt lat="44.76839" lon="6.98857">
        <ele>1698</ele>
        <time>2022-01-08T09:31:14Z</time>
      </trkpt>
      <trkpt lat="44.76839" lon="6.9886">
        <ele>1699</ele>
        <time>2022-01-08T09:31:16Z</time>
      </trkpt>
      <trkpt lat="44.76838" lon="6.98863">
        <ele>1699</ele>
        <time>2022-01-08T09:31:19Z</time>
      </trkpt>
      <trkpt lat="44.76838" lon="6.98868">
        <ele>1700</ele>
        <time>2022-01-08T09:31:25Z</time>
      </trkpt>
      <trkpt lat="44.76837" lon="6.9887">
        <ele>1700</ele>
        <time>2022-01-08T09:31:27Z</time>
      </trkpt>
      <trkpt lat="44.76836" lon="6.98875">
        <ele>1701</ele>
        <time>2022-01-08T09:31:31Z</time>
      </trkpt>
      <trkpt lat="44.76835" lon="6.98876">
        <ele>1701</ele>
        <time>2022-01-08T09:31:33Z</time>
      </trkpt>
      <trkpt lat="44.76834" lon="6.98881">
        <ele>1702</ele>
        <time>2022-01-08T09:31:38Z</time>
      </trkpt>
      <trkpt lat="44.76833" lon="6.98883">
        <ele>1702</ele>
        <time>2022-01-08T09:31:40Z</time>
      </trkpt>
      <trkpt lat="44.76832" lon="6.98886">
        <ele>1703</ele>
        <time>2022-01-08T09:31:42Z</time>
      </trkpt>
      <trkpt lat="44.76832" lon="6.98888">
        <ele>1703</ele>
        <time>2022-01-08T09:31:44Z</time>
      </trkpt>
      <trkpt lat="44.76832" lon="6.98891">
        <ele>1704</ele>
        <time>2022-01-08T09:31:46Z</time>
      </trkpt>
      <trkpt lat="44.7683" lon="6.98898">
        <ele>1706</ele>
        <time>2022-01-08T09:31:53Z</time>
      </trkpt>
      <trkpt lat="44.7683" lon="6.98901">
        <ele>1707</ele>
        <time>2022-01-08T09:31:55Z</time>
      </trkpt>
      <trkpt lat="44.76829" lon="6.98903">
        <ele>1707</ele>
        <time>2022-01-08T09:31:58Z</time>
      </trkpt>
      <trkpt lat="44.76829" lon="6.98906">
        <ele>1708</ele>
        <time>2022-01-08T09:32:01Z</time>
      </trkpt>
      <trkpt lat="44.76828" lon="6.9891">
        <ele>1709</ele>
        <time>2022-01-08T09:32:05Z</time>
      </trkpt>
      <trkpt lat="44.76828" lon="6.98913">
        <ele>1709</ele>
        <time>2022-01-08T09:32:08Z</time>
      </trkpt>
      <trkpt lat="44.76828" lon="6.98916">
        <ele>1710</ele>
        <time>2022-01-08T09:32:11Z</time>
      </trkpt>
      <trkpt lat="44.76825" lon="6.9893">
        <ele>1712</ele>
        <time>2022-01-08T09:32:24Z</time>
      </trkpt>
      <trkpt lat="44.76824" lon="6.98932">
        <ele>1713</ele>
        <time>2022-01-08T09:32:26Z</time>
      </trkpt>
      <trkpt lat="44.76824" lon="6.98934">
        <ele>1713</ele>
        <time>2022-01-08T09:32:28Z</time>
      </trkpt>
      <trkpt lat="44.76823" lon="6.98938">
        <ele>1713</ele>
        <time>2022-01-08T09:32:32Z</time>
      </trkpt>
      <trkpt lat="44.76822" lon="6.98942">
        <ele>1714</ele>
        <time>2022-01-08T09:32:36Z</time>
      </trkpt>
      <trkpt lat="44.76822" lon="6.98947">
        <ele>1715</ele>
        <time>2022-01-08T09:32:42Z</time>
      </trkpt>
      <trkpt lat="44.76823" lon="6.98949">
        <ele>1715</ele>
        <time>2022-01-08T09:32:44Z</time>
      </trkpt>
      <trkpt lat="44.76824" lon="6.98968">
        <ele>1718</ele>
        <time>2022-01-08T09:33:04Z</time>
      </trkpt>
      <trkpt lat="44.76824" lon="6.9897">
        <ele>1719</ele>
        <time>2022-01-08T09:33:06Z</time>
      </trkpt>
      <trkpt lat="44.76823" lon="6.98972">
        <ele>1719</ele>
        <time>2022-01-08T09:33:08Z</time>
      </trkpt>
      <trkpt lat="44.76822" lon="6.98977">
        <ele>1719</ele>
        <time>2022-01-08T09:33:13Z</time>
      </trkpt>
      <trkpt lat="44.7682" lon="6.98983">
        <ele>1721</ele>
        <time>2022-01-08T09:33:19Z</time>
      </trkpt>
      <trkpt lat="44.76819" lon="6.98986">
        <ele>1721</ele>
        <time>2022-01-08T09:33:22Z</time>
      </trkpt>
      <trkpt lat="44.76818" lon="6.98989">
        <ele>1721</ele>
        <time>2022-01-08T09:33:24Z</time>
      </trkpt>
      <trkpt lat="44.76818" lon="6.98991">
        <ele>1722</ele>
        <time>2022-01-08T09:33:26Z</time>
      </trkpt>
      <trkpt lat="44.76814" lon="6.99">
        <ele>1722</ele>
        <time>2022-01-08T09:33:36Z</time>
      </trkpt>
      <trkpt lat="44.76813" lon="6.99002">
        <ele>1722</ele>
        <time>2022-01-08T09:33:39Z</time>
      </trkpt>
      <trkpt lat="44.76812" lon="6.99003">
        <ele>1722</ele>
        <time>2022-01-08T09:33:42Z</time>
      </trkpt>
      <trkpt lat="44.76812" lon="6.99005">
        <ele>1723</ele>
        <time>2022-01-08T09:33:49Z</time>
      </trkpt>
      <trkpt lat="44.76811" lon="6.99008">
        <ele>1723</ele>
        <time>2022-01-08T09:33:51Z</time>
      </trkpt>
      <trkpt lat="44.76808" lon="6.99013">
        <ele>1723</ele>
        <time>2022-01-08T09:33:55Z</time>
      </trkpt>
      <trkpt lat="44.76806" lon="6.99015">
        <ele>1724</ele>
        <time>2022-01-08T09:33:57Z</time>
      </trkpt>
      <trkpt lat="44.76803" lon="6.9902">
        <ele>1724</ele>
        <time>2022-01-08T09:34:01Z</time>
      </trkpt>
      <trkpt lat="44.76802" lon="6.99022">
        <ele>1725</ele>
        <time>2022-01-08T09:34:03Z</time>
      </trkpt>
      <trkpt lat="44.768" lon="6.99026">
        <ele>1726</ele>
        <time>2022-01-08T09:34:07Z</time>
      </trkpt>
      <trkpt lat="44.76794" lon="6.99036">
        <ele>1727</ele>
        <time>2022-01-08T09:34:16Z</time>
      </trkpt>
      <trkpt lat="44.7679" lon="6.99043">
        <ele>1727</ele>
        <time>2022-01-08T09:34:22Z</time>
      </trkpt>
      <trkpt lat="44.76788" lon="6.99045">
        <ele>1727</ele>
        <time>2022-01-08T09:34:24Z</time>
      </trkpt>
      <trkpt lat="44.76783" lon="6.9905">
        <ele>1726</ele>
        <time>2022-01-08T09:34:29Z</time>
      </trkpt>
      <trkpt lat="44.76781" lon="6.99061">
        <ele>1726</ele>
        <time>2022-01-08T09:34:37Z</time>
      </trkpt>
      <trkpt lat="44.76781" lon="6.99063">
        <ele>1726</ele>
        <time>2022-01-08T09:34:40Z</time>
      </trkpt>
      <trkpt lat="44.76783" lon="6.99065">
        <ele>1726</ele>
        <time>2022-01-08T09:34:42Z</time>
      </trkpt>
      <trkpt lat="44.76784" lon="6.99065">
        <ele>1726</ele>
        <time>2022-01-08T09:34:44Z</time>
      </trkpt>
      <trkpt lat="44.76786" lon="6.99063">
        <ele>1726</ele>
        <time>2022-01-08T09:34:46Z</time>
      </trkpt>
      <trkpt lat="44.76787" lon="6.99061">
        <ele>1726</ele>
        <time>2022-01-08T09:34:48Z</time>
      </trkpt>
      <trkpt lat="44.76788" lon="6.9906">
        <ele>1726</ele>
        <time>2022-01-08T09:34:50Z</time>
      </trkpt>
      <trkpt lat="44.76794" lon="6.99056">
        <ele>1728</ele>
        <time>2022-01-08T09:34:58Z</time>
      </trkpt>
      <trkpt lat="44.76795" lon="6.99055">
        <ele>1729</ele>
        <time>2022-01-08T09:35:00Z</time>
      </trkpt>
      <trkpt lat="44.768" lon="6.99053">
        <ele>1730</ele>
        <time>2022-01-08T09:35:05Z</time>
      </trkpt>
      <trkpt lat="44.76802" lon="6.99052">
        <ele>1730</ele>
        <time>2022-01-08T09:35:07Z</time>
      </trkpt>
      <trkpt lat="44.76804" lon="6.9905">
        <ele>1732</ele>
        <time>2022-01-08T09:35:10Z</time>
      </trkpt>
      <trkpt lat="44.76806" lon="6.9905">
        <ele>1732</ele>
        <time>2022-01-08T09:35:14Z</time>
      </trkpt>
      <trkpt lat="44.76813" lon="6.99043">
        <ele>1735</ele>
        <time>2022-01-08T09:35:26Z</time>
      </trkpt>
      <trkpt lat="44.76815" lon="6.99043">
        <ele>1736</ele>
        <time>2022-01-08T09:35:30Z</time>
      </trkpt>
      <trkpt lat="44.76817" lon="6.99043">
        <ele>1737</ele>
        <time>2022-01-08T09:35:33Z</time>
      </trkpt>
      <trkpt lat="44.76827" lon="6.9904">
        <ele>1740</ele>
        <time>2022-01-08T09:35:45Z</time>
      </trkpt>
      <trkpt lat="44.76829" lon="6.9904">
        <ele>1741</ele>
        <time>2022-01-08T09:35:48Z</time>
      </trkpt>
      <trkpt lat="44.76832" lon="6.99041">
        <ele>1742</ele>
        <time>2022-01-08T09:35:53Z</time>
      </trkpt>
      <trkpt lat="44.76833" lon="6.99041">
        <ele>1743</ele>
        <time>2022-01-08T09:35:55Z</time>
      </trkpt>
      <trkpt lat="44.76837" lon="6.99041">
        <ele>1744</ele>
        <time>2022-01-08T09:36:00Z</time>
      </trkpt>
      <trkpt lat="44.76839" lon="6.99041">
        <ele>1744</ele>
        <time>2022-01-08T09:36:03Z</time>
      </trkpt>
      <trkpt lat="44.76841" lon="6.9904">
        <ele>1744</ele>
        <time>2022-01-08T09:36:06Z</time>
      </trkpt>
      <trkpt lat="44.76843" lon="6.99039">
        <ele>1744</ele>
        <time>2022-01-08T09:36:09Z</time>
      </trkpt>
      <trkpt lat="44.76845" lon="6.99039">
        <ele>1744</ele>
        <time>2022-01-08T09:36:11Z</time>
      </trkpt>
      <trkpt lat="44.76845" lon="6.99041">
        <ele>1744</ele>
        <time>2022-01-08T09:36:13Z</time>
      </trkpt>
      <trkpt lat="44.76846" lon="6.99044">
        <ele>1744</ele>
        <time>2022-01-08T09:36:16Z</time>
      </trkpt>
      <trkpt lat="44.76847" lon="6.99047">
        <ele>1745</ele>
        <time>2022-01-08T09:36:19Z</time>
      </trkpt>
      <trkpt lat="44.76848" lon="6.99051">
        <ele>1745</ele>
        <time>2022-01-08T09:36:23Z</time>
      </trkpt>
      <trkpt lat="44.76848" lon="6.99053">
        <ele>1745</ele>
        <time>2022-01-08T09:36:25Z</time>
      </trkpt>
      <trkpt lat="44.76846" lon="6.99059">
        <ele>1747</ele>
        <time>2022-01-08T09:36:31Z</time>
      </trkpt>
      <trkpt lat="44.76846" lon="6.99061">
        <ele>1747</ele>
        <time>2022-01-08T09:36:33Z</time>
      </trkpt>
      <trkpt lat="44.76844" lon="6.99066">
        <ele>1748</ele>
        <time>2022-01-08T09:36:37Z</time>
      </trkpt>
      <trkpt lat="44.76844" lon="6.99067">
        <ele>1748</ele>
        <time>2022-01-08T09:36:39Z</time>
      </trkpt>
      <trkpt lat="44.76842" lon="6.99068">
        <ele>1748</ele>
        <time>2022-01-08T09:36:41Z</time>
      </trkpt>
      <trkpt lat="44.76842" lon="6.9907">
        <ele>1749</ele>
        <time>2022-01-08T09:36:44Z</time>
      </trkpt>
      <trkpt lat="44.7684" lon="6.99072">
        <ele>1749</ele>
        <time>2022-01-08T09:36:48Z</time>
      </trkpt>
      <trkpt lat="44.76839" lon="6.99075">
        <ele>1749</ele>
        <time>2022-01-08T09:36:53Z</time>
      </trkpt>
      <trkpt lat="44.76839" lon="6.99077">
        <ele>1749</ele>
        <time>2022-01-08T09:36:56Z</time>
      </trkpt>
      <trkpt lat="44.76839" lon="6.9908">
        <ele>1749</ele>
        <time>2022-01-08T09:36:59Z</time>
      </trkpt>
      <trkpt lat="44.76839" lon="6.99082">
        <ele>1748</ele>
        <time>2022-01-08T09:37:03Z</time>
      </trkpt>
      <trkpt lat="44.7684" lon="6.99084">
        <ele>1748</ele>
        <time>2022-01-08T09:37:05Z</time>
      </trkpt>
      <trkpt lat="44.76839" lon="6.99086">
        <ele>1748</ele>
        <time>2022-01-08T09:37:08Z</time>
      </trkpt>
      <trkpt lat="44.76842" lon="6.99093">
        <ele>1748</ele>
        <time>2022-01-08T09:37:15Z</time>
      </trkpt>
      <trkpt lat="44.76843" lon="6.99094">
        <ele>1748</ele>
        <time>2022-01-08T09:37:17Z</time>
      </trkpt>
      <trkpt lat="44.76844" lon="6.99097">
        <ele>1748</ele>
        <time>2022-01-08T09:37:21Z</time>
      </trkpt>
      <trkpt lat="44.76845" lon="6.99098">
        <ele>1748</ele>
        <time>2022-01-08T09:37:24Z</time>
      </trkpt>
      <trkpt lat="44.76847" lon="6.99099">
        <ele>1748</ele>
        <time>2022-01-08T09:37:27Z</time>
      </trkpt>
      <trkpt lat="44.76849" lon="6.99098">
        <ele>1749</ele>
        <time>2022-01-08T09:37:30Z</time>
      </trkpt>
      <trkpt lat="44.76851" lon="6.99098">
        <ele>1749</ele>
        <time>2022-01-08T09:37:33Z</time>
      </trkpt>
      <trkpt lat="44.76852" lon="6.99098">
        <ele>1750</ele>
        <time>2022-01-08T09:37:35Z</time>
      </trkpt>
      <trkpt lat="44.76852" lon="6.99101">
        <ele>1751</ele>
        <time>2022-01-08T09:37:40Z</time>
      </trkpt>
      <trkpt lat="44.76853" lon="6.99103">
        <ele>1751</ele>
        <time>2022-01-08T09:37:42Z</time>
      </trkpt>
      <trkpt lat="44.76856" lon="6.99104">
        <ele>1752</ele>
        <time>2022-01-08T09:37:48Z</time>
      </trkpt>
      <trkpt lat="44.7686" lon="6.99102">
        <ele>1755</ele>
        <time>2022-01-08T09:37:57Z</time>
      </trkpt>
      <trkpt lat="44.76863" lon="6.99101">
        <ele>1756</ele>
        <time>2022-01-08T09:38:01Z</time>
      </trkpt>
      <trkpt lat="44.76865" lon="6.99101">
        <ele>1756</ele>
        <time>2022-01-08T09:38:04Z</time>
      </trkpt>
      <trkpt lat="44.76874" lon="6.99095">
        <ele>1759</ele>
        <time>2022-01-08T09:38:16Z</time>
      </trkpt>
      <trkpt lat="44.76876" lon="6.99093">
        <ele>1759</ele>
        <time>2022-01-08T09:38:19Z</time>
      </trkpt>
      <trkpt lat="44.76877" lon="6.99091">
        <ele>1759</ele>
        <time>2022-01-08T09:38:22Z</time>
      </trkpt>
      <trkpt lat="44.76879" lon="6.99091">
        <ele>1760</ele>
        <time>2022-01-08T09:38:25Z</time>
      </trkpt>
      <trkpt lat="44.76881" lon="6.99091">
        <ele>1760</ele>
        <time>2022-01-08T09:38:28Z</time>
      </trkpt>
      <trkpt lat="44.76883" lon="6.99089">
        <ele>1760</ele>
        <time>2022-01-08T09:38:30Z</time>
      </trkpt>
      <trkpt lat="44.76892" lon="6.99083">
        <ele>1763</ele>
        <time>2022-01-08T09:38:43Z</time>
      </trkpt>
      <trkpt lat="44.76894" lon="6.99082">
        <ele>1764</ele>
        <time>2022-01-08T09:38:45Z</time>
      </trkpt>
      <trkpt lat="44.76896" lon="6.99081">
        <ele>1765</ele>
        <time>2022-01-08T09:38:47Z</time>
      </trkpt>
      <trkpt lat="44.76898" lon="6.99081">
        <ele>1765</ele>
        <time>2022-01-08T09:38:49Z</time>
      </trkpt>
      <trkpt lat="44.769" lon="6.9908">
        <ele>1766</ele>
        <time>2022-01-08T09:38:51Z</time>
      </trkpt>
      <trkpt lat="44.76909" lon="6.99075">
        <ele>1768</ele>
        <time>2022-01-08T09:39:01Z</time>
      </trkpt>
      <trkpt lat="44.76914" lon="6.99071">
        <ele>1770</ele>
        <time>2022-01-08T09:39:07Z</time>
      </trkpt>
      <trkpt lat="44.76914" lon="6.99069">
        <ele>1771</ele>
        <time>2022-01-08T09:39:09Z</time>
      </trkpt>
      <trkpt lat="44.76918" lon="6.99066">
        <ele>1772</ele>
        <time>2022-01-08T09:39:14Z</time>
      </trkpt>
      <trkpt lat="44.76922" lon="6.99066">
        <ele>1773</ele>
        <time>2022-01-08T09:39:19Z</time>
      </trkpt>
      <trkpt lat="44.76925" lon="6.99064">
        <ele>1772</ele>
        <time>2022-01-08T09:39:23Z</time>
      </trkpt>
      <trkpt lat="44.7693" lon="6.99061">
        <ele>1770</ele>
        <time>2022-01-08T09:39:33Z</time>
      </trkpt>
      <trkpt lat="44.76932" lon="6.9906">
        <ele>1770</ele>
        <time>2022-01-08T09:39:35Z</time>
      </trkpt>
      <trkpt lat="44.76942" lon="6.99055">
        <ele>1771</ele>
        <time>2022-01-08T09:39:46Z</time>
      </trkpt>
      <trkpt lat="44.76943" lon="6.99055">
        <ele>1771</ele>
        <time>2022-01-08T09:39:48Z</time>
      </trkpt>
      <trkpt lat="44.76945" lon="6.99053">
        <ele>1772</ele>
        <time>2022-01-08T09:39:51Z</time>
      </trkpt>
      <trkpt lat="44.76948" lon="6.99051">
        <ele>1774</ele>
        <time>2022-01-08T09:39:56Z</time>
      </trkpt>
      <trkpt lat="44.76952" lon="6.99049">
        <ele>1777</ele>
        <time>2022-01-08T09:40:02Z</time>
      </trkpt>
      <trkpt lat="44.76953" lon="6.99048">
        <ele>1779</ele>
        <time>2022-01-08T09:40:05Z</time>
      </trkpt>
      <trkpt lat="44.76955" lon="6.99047">
        <ele>1779</ele>
        <time>2022-01-08T09:40:07Z</time>
      </trkpt>
      <trkpt lat="44.76957" lon="6.99043">
        <ele>1787</ele>
        <time>2022-01-08T09:40:12Z</time>
      </trkpt>
      <trkpt lat="44.76963" lon="6.99038">
        <ele>1790</ele>
        <time>2022-01-08T09:40:21Z</time>
      </trkpt>
      <trkpt lat="44.76964" lon="6.99036">
        <ele>1790</ele>
        <time>2022-01-08T09:40:23Z</time>
      </trkpt>
      <trkpt lat="44.76967" lon="6.9903">
        <ele>1791</ele>
        <time>2022-01-08T09:40:29Z</time>
      </trkpt>
      <trkpt lat="44.76968" lon="6.99028">
        <ele>1791</ele>
        <time>2022-01-08T09:40:31Z</time>
      </trkpt>
      <trkpt lat="44.76971" lon="6.99025">
        <ele>1790</ele>
        <time>2022-01-08T09:40:35Z</time>
      </trkpt>
      <trkpt lat="44.76972" lon="6.99022">
        <ele>1790</ele>
        <time>2022-01-08T09:40:37Z</time>
      </trkpt>
      <trkpt lat="44.76974" lon="6.9902">
        <ele>1790</ele>
        <time>2022-01-08T09:40:40Z</time>
      </trkpt>
      <trkpt lat="44.76975" lon="6.9902">
        <ele>1789</ele>
        <time>2022-01-08T09:40:43Z</time>
      </trkpt>
      <trkpt lat="44.76977" lon="6.9902">
        <ele>1789</ele>
        <time>2022-01-08T09:40:46Z</time>
      </trkpt>
      <trkpt lat="44.76978" lon="6.99022">
        <ele>1789</ele>
        <time>2022-01-08T09:40:49Z</time>
      </trkpt>
      <trkpt lat="44.76981" lon="6.99025">
        <ele>1789</ele>
        <time>2022-01-08T09:40:56Z</time>
      </trkpt>
      <trkpt lat="44.7698" lon="6.99026">
        <ele>1788</ele>
        <time>2022-01-08T09:41:01Z</time>
      </trkpt>
      <trkpt lat="44.76982" lon="6.9903">
        <ele>1786</ele>
        <time>2022-01-08T09:41:10Z</time>
      </trkpt>
      <trkpt lat="44.76983" lon="6.99032">
        <ele>1786</ele>
        <time>2022-01-08T09:41:14Z</time>
      </trkpt>
      <trkpt lat="44.76984" lon="6.99035">
        <ele>1786</ele>
        <time>2022-01-08T09:41:17Z</time>
      </trkpt>
      <trkpt lat="44.76986" lon="6.99039">
        <ele>1786</ele>
        <time>2022-01-08T09:41:23Z</time>
      </trkpt>
      <trkpt lat="44.76986" lon="6.99042">
        <ele>1786</ele>
        <time>2022-01-08T09:41:26Z</time>
      </trkpt>
      <trkpt lat="44.76985" lon="6.99043">
        <ele>1787</ele>
        <time>2022-01-08T09:41:30Z</time>
      </trkpt>
      <trkpt lat="44.76984" lon="6.99042">
        <ele>1787</ele>
        <time>2022-01-08T09:41:32Z</time>
      </trkpt>
      <trkpt lat="44.76983" lon="6.99045">
        <ele>1788</ele>
        <time>2022-01-08T09:41:41Z</time>
      </trkpt>
      <trkpt lat="44.76982" lon="6.99047">
        <ele>1789</ele>
        <time>2022-01-08T09:41:43Z</time>
      </trkpt>
      <trkpt lat="44.76981" lon="6.99049">
        <ele>1789</ele>
        <time>2022-01-08T09:41:45Z</time>
      </trkpt>
      <trkpt lat="44.7698" lon="6.99051">
        <ele>1789</ele>
        <time>2022-01-08T09:41:47Z</time>
      </trkpt>
      <trkpt lat="44.7698" lon="6.99061">
        <ele>1790</ele>
        <time>2022-01-08T09:41:57Z</time>
      </trkpt>
      <trkpt lat="44.76979" lon="6.99063">
        <ele>1790</ele>
        <time>2022-01-08T09:42:00Z</time>
      </trkpt>
      <trkpt lat="44.7698" lon="6.99065">
        <ele>1790</ele>
        <time>2022-01-08T09:42:03Z</time>
      </trkpt>
      <trkpt lat="44.76981" lon="6.99067">
        <ele>1790</ele>
        <time>2022-01-08T09:42:06Z</time>
      </trkpt>
      <trkpt lat="44.76982" lon="6.99067">
        <ele>1791</ele>
        <time>2022-01-08T09:42:10Z</time>
      </trkpt>
      <trkpt lat="44.76984" lon="6.99066">
        <ele>1791</ele>
        <time>2022-01-08T09:42:13Z</time>
      </trkpt>
      <trkpt lat="44.76984" lon="6.99068">
        <ele>1791</ele>
        <time>2022-01-08T09:42:16Z</time>
      </trkpt>
      <trkpt lat="44.76984" lon="6.99071">
        <ele>1791</ele>
        <time>2022-01-08T09:42:18Z</time>
      </trkpt>
      <trkpt lat="44.76984" lon="6.99073">
        <ele>1792</ele>
        <time>2022-01-08T09:42:20Z</time>
      </trkpt>
      <trkpt lat="44.76984" lon="6.99076">
        <ele>1793</ele>
        <time>2022-01-08T09:42:23Z</time>
      </trkpt>
      <trkpt lat="44.76985" lon="6.99079">
        <ele>1795</ele>
        <time>2022-01-08T09:42:26Z</time>
      </trkpt>
      <trkpt lat="44.76985" lon="6.99081">
        <ele>1796</ele>
        <time>2022-01-08T09:42:28Z</time>
      </trkpt>
      <trkpt lat="44.76987" lon="6.99084">
        <ele>1798</ele>
        <time>2022-01-08T09:42:31Z</time>
      </trkpt>
      <trkpt lat="44.76987" lon="6.99088">
        <ele>1800</ele>
        <time>2022-01-08T09:42:35Z</time>
      </trkpt>
      <trkpt lat="44.76991" lon="6.99096">
        <ele>1800</ele>
        <time>2022-01-08T09:42:43Z</time>
      </trkpt>
      <trkpt lat="44.76991" lon="6.99099">
        <ele>1800</ele>
        <time>2022-01-08T09:42:45Z</time>
      </trkpt>
      <trkpt lat="44.76992" lon="6.991">
        <ele>1800</ele>
        <time>2022-01-08T09:42:47Z</time>
      </trkpt>
      <trkpt lat="44.76993" lon="6.99103">
        <ele>1801</ele>
        <time>2022-01-08T09:42:50Z</time>
      </trkpt>
      <trkpt lat="44.76997" lon="6.99123">
        <ele>1803</ele>
        <time>2022-01-08T09:43:06Z</time>
      </trkpt>
      <trkpt lat="44.76998" lon="6.99126">
        <ele>1804</ele>
        <time>2022-01-08T09:43:09Z</time>
      </trkpt>
      <trkpt lat="44.76999" lon="6.99129">
        <ele>1805</ele>
        <time>2022-01-08T09:43:12Z</time>
      </trkpt>
      <trkpt lat="44.77" lon="6.99131">
        <ele>1805</ele>
        <time>2022-01-08T09:43:14Z</time>
      </trkpt>
      <trkpt lat="44.77003" lon="6.99137">
        <ele>1806</ele>
        <time>2022-01-08T09:43:19Z</time>
      </trkpt>
      <trkpt lat="44.77005" lon="6.99142">
        <ele>1807</ele>
        <time>2022-01-08T09:43:25Z</time>
      </trkpt>
      <trkpt lat="44.7701" lon="6.99151">
        <ele>1809</ele>
        <time>2022-01-08T09:43:35Z</time>
      </trkpt>
      <trkpt lat="44.77014" lon="6.99156">
        <ele>1810</ele>
        <time>2022-01-08T09:43:39Z</time>
      </trkpt>
      <trkpt lat="44.77017" lon="6.99157">
        <ele>1811</ele>
        <time>2022-01-08T09:43:41Z</time>
      </trkpt>
      <trkpt lat="44.77018" lon="6.99159">
        <ele>1811</ele>
        <time>2022-01-08T09:43:43Z</time>
      </trkpt>
      <trkpt lat="44.7702" lon="6.9916">
        <ele>1812</ele>
        <time>2022-01-08T09:43:45Z</time>
      </trkpt>
      <trkpt lat="44.7703" lon="6.99169">
        <ele>1814</ele>
        <time>2022-01-08T09:43:55Z</time>
      </trkpt>
      <trkpt lat="44.77032" lon="6.99171">
        <ele>1815</ele>
        <time>2022-01-08T09:43:58Z</time>
      </trkpt>
      <trkpt lat="44.77035" lon="6.99176">
        <ele>1816</ele>
        <time>2022-01-08T09:44:03Z</time>
      </trkpt>
      <trkpt lat="44.77042" lon="6.99185">
        <ele>1817</ele>
        <time>2022-01-08T09:44:12Z</time>
      </trkpt>
      <trkpt lat="44.77045" lon="6.99189">
        <ele>1818</ele>
        <time>2022-01-08T09:44:16Z</time>
      </trkpt>
      <trkpt lat="44.77046" lon="6.99197">
        <ele>1819</ele>
        <time>2022-01-08T09:44:23Z</time>
      </trkpt>
      <trkpt lat="44.77047" lon="6.992">
        <ele>1820</ele>
        <time>2022-01-08T09:44:27Z</time>
      </trkpt>
      <trkpt lat="44.7705" lon="6.99203">
        <ele>1821</ele>
        <time>2022-01-08T09:44:33Z</time>
      </trkpt>
      <trkpt lat="44.77052" lon="6.99207">
        <ele>1821</ele>
        <time>2022-01-08T09:44:38Z</time>
      </trkpt>
      <trkpt lat="44.77054" lon="6.99212">
        <ele>1821</ele>
        <time>2022-01-08T09:44:42Z</time>
      </trkpt>
      <trkpt lat="44.77056" lon="6.99216">
        <ele>1821</ele>
        <time>2022-01-08T09:44:46Z</time>
      </trkpt>
      <trkpt lat="44.77057" lon="6.99218">
        <ele>1821</ele>
        <time>2022-01-08T09:44:49Z</time>
      </trkpt>
      <trkpt lat="44.77057" lon="6.9922">
        <ele>1821</ele>
        <time>2022-01-08T09:44:52Z</time>
      </trkpt>
      <trkpt lat="44.77057" lon="6.99223">
        <ele>1821</ele>
        <time>2022-01-08T09:44:56Z</time>
      </trkpt>
      <trkpt lat="44.77059" lon="6.99225">
        <ele>1821</ele>
        <time>2022-01-08T09:45:01Z</time>
      </trkpt>
      <trkpt lat="44.77061" lon="6.99232">
        <ele>1821</ele>
        <time>2022-01-08T09:45:08Z</time>
      </trkpt>
      <trkpt lat="44.77061" lon="6.99235">
        <ele>1822</ele>
        <time>2022-01-08T09:45:12Z</time>
      </trkpt>
      <trkpt lat="44.77063" lon="6.99236">
        <ele>1822</ele>
        <time>2022-01-08T09:45:15Z</time>
      </trkpt>
      <trkpt lat="44.77065" lon="6.99237">
        <ele>1822</ele>
        <time>2022-01-08T09:45:19Z</time>
      </trkpt>
      <trkpt lat="44.77072" lon="6.99248">
        <ele>1822</ele>
        <time>2022-01-08T09:45:38Z</time>
      </trkpt>
      <trkpt lat="44.77072" lon="6.9925">
        <ele>1822</ele>
        <time>2022-01-08T09:45:41Z</time>
      </trkpt>
      <trkpt lat="44.77072" lon="6.99252">
        <ele>1822</ele>
        <time>2022-01-08T09:45:44Z</time>
      </trkpt>
      <trkpt lat="44.77073" lon="6.99257">
        <ele>1823</ele>
        <time>2022-01-08T09:45:50Z</time>
      </trkpt>
      <trkpt lat="44.77075" lon="6.99262">
        <ele>1823</ele>
        <time>2022-01-08T09:45:56Z</time>
      </trkpt>
      <trkpt lat="44.77076" lon="6.99264">
        <ele>1823</ele>
        <time>2022-01-08T09:45:59Z</time>
      </trkpt>
      <trkpt lat="44.77077" lon="6.99266">
        <ele>1824</ele>
        <time>2022-01-08T09:46:02Z</time>
      </trkpt>
      <trkpt lat="44.77079" lon="6.99267">
        <ele>1824</ele>
        <time>2022-01-08T09:46:05Z</time>
      </trkpt>
      <trkpt lat="44.77081" lon="6.99268">
        <ele>1824</ele>
        <time>2022-01-08T09:46:09Z</time>
      </trkpt>
      <trkpt lat="44.77082" lon="6.99269">
        <ele>1825</ele>
        <time>2022-01-08T09:46:12Z</time>
      </trkpt>
      <trkpt lat="44.77084" lon="6.99271">
        <ele>1826</ele>
        <time>2022-01-08T09:46:34Z</time>
      </trkpt>
      <trkpt lat="44.77084" lon="6.9927">
        <ele>1830</ele>
        <time>2022-01-08T09:47:15Z</time>
      </trkpt>
      <trkpt lat="44.77085" lon="6.99272">
        <ele>1829</ele>
        <time>2022-01-08T09:47:30Z</time>
      </trkpt>
      <trkpt lat="44.77087" lon="6.99273">
        <ele>1829</ele>
        <time>2022-01-08T09:47:32Z</time>
      </trkpt>
      <trkpt lat="44.77088" lon="6.99274">
        <ele>1829</ele>
        <time>2022-01-08T09:47:34Z</time>
      </trkpt>
      <trkpt lat="44.77096" lon="6.99283">
        <ele>1831</ele>
        <time>2022-01-08T09:47:47Z</time>
      </trkpt>
      <trkpt lat="44.77098" lon="6.99284">
        <ele>1831</ele>
        <time>2022-01-08T09:47:50Z</time>
      </trkpt>
      <trkpt lat="44.771" lon="6.99285">
        <ele>1831</ele>
        <time>2022-01-08T09:47:53Z</time>
      </trkpt>
      <trkpt lat="44.77101" lon="6.99285">
        <ele>1832</ele>
        <time>2022-01-08T09:47:56Z</time>
      </trkpt>
      <trkpt lat="44.77104" lon="6.99286">
        <ele>1832</ele>
        <time>2022-01-08T09:47:58Z</time>
      </trkpt>
      <trkpt lat="44.77106" lon="6.99286">
        <ele>1832</ele>
        <time>2022-01-08T09:48:00Z</time>
      </trkpt>
      <trkpt lat="44.77108" lon="6.99286">
        <ele>1833</ele>
        <time>2022-01-08T09:48:03Z</time>
      </trkpt>
      <trkpt lat="44.77112" lon="6.99287">
        <ele>1834</ele>
        <time>2022-01-08T09:48:08Z</time>
      </trkpt>
      <trkpt lat="44.77114" lon="6.99288">
        <ele>1834</ele>
        <time>2022-01-08T09:48:11Z</time>
      </trkpt>
      <trkpt lat="44.77116" lon="6.99288">
        <ele>1834</ele>
        <time>2022-01-08T09:48:13Z</time>
      </trkpt>
      <trkpt lat="44.77117" lon="6.99288">
        <ele>1835</ele>
        <time>2022-01-08T09:48:15Z</time>
      </trkpt>
      <trkpt lat="44.77119" lon="6.99289">
        <ele>1835</ele>
        <time>2022-01-08T09:48:17Z</time>
      </trkpt>
      <trkpt lat="44.77125" lon="6.99291">
        <ele>1836</ele>
        <time>2022-01-08T09:48:23Z</time>
      </trkpt>
      <trkpt lat="44.77127" lon="6.99292">
        <ele>1836</ele>
        <time>2022-01-08T09:48:26Z</time>
      </trkpt>
      <trkpt lat="44.77129" lon="6.99294">
        <ele>1837</ele>
        <time>2022-01-08T09:48:31Z</time>
      </trkpt>
      <trkpt lat="44.7713" lon="6.99295">
        <ele>1837</ele>
        <time>2022-01-08T09:48:33Z</time>
      </trkpt>
      <trkpt lat="44.77132" lon="6.99297">
        <ele>1838</ele>
        <time>2022-01-08T09:48:37Z</time>
      </trkpt>
      <trkpt lat="44.77134" lon="6.99298">
        <ele>1838</ele>
        <time>2022-01-08T09:48:39Z</time>
      </trkpt>
      <trkpt lat="44.77137" lon="6.993">
        <ele>1838</ele>
        <time>2022-01-08T09:48:43Z</time>
      </trkpt>
      <trkpt lat="44.77138" lon="6.99302">
        <ele>1838</ele>
        <time>2022-01-08T09:48:46Z</time>
      </trkpt>
      <trkpt lat="44.77147" lon="6.99307">
        <ele>1840</ele>
        <time>2022-01-08T09:48:59Z</time>
      </trkpt>
      <trkpt lat="44.77148" lon="6.99308">
        <ele>1840</ele>
        <time>2022-01-08T09:49:02Z</time>
      </trkpt>
      <trkpt lat="44.7715" lon="6.99309">
        <ele>1841</ele>
        <time>2022-01-08T09:49:04Z</time>
      </trkpt>
      <trkpt lat="44.77152" lon="6.99309">
        <ele>1841</ele>
        <time>2022-01-08T09:49:07Z</time>
      </trkpt>
      <trkpt lat="44.77154" lon="6.99309">
        <ele>1841</ele>
        <time>2022-01-08T09:49:10Z</time>
      </trkpt>
      <trkpt lat="44.77156" lon="6.9931">
        <ele>1842</ele>
        <time>2022-01-08T09:49:13Z</time>
      </trkpt>
      <trkpt lat="44.77167" lon="6.99315">
        <ele>1845</ele>
        <time>2022-01-08T09:49:30Z</time>
      </trkpt>
      <trkpt lat="44.77173" lon="6.99318">
        <ele>1846</ele>
        <time>2022-01-08T09:49:39Z</time>
      </trkpt>
      <trkpt lat="44.77178" lon="6.99318">
        <ele>1847</ele>
        <time>2022-01-08T09:49:47Z</time>
      </trkpt>
      <trkpt lat="44.77183" lon="6.99318">
        <ele>1849</ele>
        <time>2022-01-08T09:49:54Z</time>
      </trkpt>
      <trkpt lat="44.77185" lon="6.99317">
        <ele>1849</ele>
        <time>2022-01-08T09:49:58Z</time>
      </trkpt>
      <trkpt lat="44.77188" lon="6.99317">
        <ele>1850</ele>
        <time>2022-01-08T09:50:01Z</time>
      </trkpt>
      <trkpt lat="44.7719" lon="6.99318">
        <ele>1851</ele>
        <time>2022-01-08T09:50:03Z</time>
      </trkpt>
      <trkpt lat="44.77198" lon="6.99319">
        <ele>1853</ele>
        <time>2022-01-08T09:50:15Z</time>
      </trkpt>
      <trkpt lat="44.77201" lon="6.99319">
        <ele>1854</ele>
        <time>2022-01-08T09:50:17Z</time>
      </trkpt>
      <trkpt lat="44.77202" lon="6.99318">
        <ele>1855</ele>
        <time>2022-01-08T09:50:21Z</time>
      </trkpt>
      <trkpt lat="44.77205" lon="6.9932">
        <ele>1856</ele>
        <time>2022-01-08T09:50:27Z</time>
      </trkpt>
      <trkpt lat="44.77212" lon="6.99326">
        <ele>1858</ele>
        <time>2022-01-08T09:50:40Z</time>
      </trkpt>
      <trkpt lat="44.77213" lon="6.99329">
        <ele>1859</ele>
        <time>2022-01-08T09:50:44Z</time>
      </trkpt>
      <trkpt lat="44.77214" lon="6.99331">
        <ele>1859</ele>
        <time>2022-01-08T09:50:47Z</time>
      </trkpt>
      <trkpt lat="44.77215" lon="6.99333">
        <ele>1860</ele>
        <time>2022-01-08T09:50:51Z</time>
      </trkpt>
      <trkpt lat="44.77215" lon="6.99335">
        <ele>1861</ele>
        <time>2022-01-08T09:50:57Z</time>
      </trkpt>
      <trkpt lat="44.77214" lon="6.99337">
        <ele>1862</ele>
        <time>2022-01-08T09:51:00Z</time>
      </trkpt>
      <trkpt lat="44.77212" lon="6.99341">
        <ele>1864</ele>
        <time>2022-01-08T09:51:06Z</time>
      </trkpt>
      <trkpt lat="44.7721" lon="6.99342">
        <ele>1865</ele>
        <time>2022-01-08T09:51:08Z</time>
      </trkpt>
      <trkpt lat="44.77209" lon="6.99343">
        <ele>1865</ele>
        <time>2022-01-08T09:51:10Z</time>
      </trkpt>
      <trkpt lat="44.77205" lon="6.99348">
        <ele>1865</ele>
        <time>2022-01-08T09:51:19Z</time>
      </trkpt>
      <trkpt lat="44.77204" lon="6.99349">
        <ele>1866</ele>
        <time>2022-01-08T09:51:22Z</time>
      </trkpt>
      <trkpt lat="44.77202" lon="6.99351">
        <ele>1866</ele>
        <time>2022-01-08T09:51:25Z</time>
      </trkpt>
      <trkpt lat="44.77204" lon="6.99353">
        <ele>1866</ele>
        <time>2022-01-08T09:51:47Z</time>
      </trkpt>
      <trkpt lat="44.77206" lon="6.99353">
        <ele>1865</ele>
        <time>2022-01-08T09:51:49Z</time>
      </trkpt>
      <trkpt lat="44.77207" lon="6.99352">
        <ele>1865</ele>
        <time>2022-01-08T09:51:52Z</time>
      </trkpt>
      <trkpt lat="44.7721" lon="6.99352">
        <ele>1864</ele>
        <time>2022-01-08T09:51:55Z</time>
      </trkpt>
      <trkpt lat="44.77211" lon="6.99352">
        <ele>1864</ele>
        <time>2022-01-08T09:51:57Z</time>
      </trkpt>
      <trkpt lat="44.77213" lon="6.99353">
        <ele>1864</ele>
        <time>2022-01-08T09:52:03Z</time>
      </trkpt>
      <trkpt lat="44.77214" lon="6.99354">
        <ele>1864</ele>
        <time>2022-01-08T09:52:06Z</time>
      </trkpt>
      <trkpt lat="44.77216" lon="6.99358">
        <ele>1865</ele>
        <time>2022-01-08T09:52:11Z</time>
      </trkpt>
      <trkpt lat="44.77221" lon="6.9937">
        <ele>1864</ele>
        <time>2022-01-08T09:52:23Z</time>
      </trkpt>
      <trkpt lat="44.77222" lon="6.99373">
        <ele>1864</ele>
        <time>2022-01-08T09:52:25Z</time>
      </trkpt>
      <trkpt lat="44.77234" lon="6.9937">
        <ele>1872</ele>
        <time>2022-01-08T09:52:51Z</time>
      </trkpt>
      <trkpt lat="44.77236" lon="6.99367">
        <ele>1873</ele>
        <time>2022-01-08T09:52:54Z</time>
      </trkpt>
      <trkpt lat="44.77236" lon="6.99365">
        <ele>1874</ele>
        <time>2022-01-08T09:52:56Z</time>
      </trkpt>
      <trkpt lat="44.77237" lon="6.99362">
        <ele>1875</ele>
        <time>2022-01-08T09:52:58Z</time>
      </trkpt>
      <trkpt lat="44.77238" lon="6.99359">
        <ele>1875</ele>
        <time>2022-01-08T09:53:00Z</time>
      </trkpt>
      <trkpt lat="44.7724" lon="6.99357">
        <ele>1877</ele>
        <time>2022-01-08T09:53:03Z</time>
      </trkpt>
      <trkpt lat="44.77243" lon="6.99357">
        <ele>1878</ele>
        <time>2022-01-08T09:53:06Z</time>
      </trkpt>
      <trkpt lat="44.77245" lon="6.99356">
        <ele>1878</ele>
        <time>2022-01-08T09:53:08Z</time>
      </trkpt>
      <trkpt lat="44.77247" lon="6.99356">
        <ele>1879</ele>
        <time>2022-01-08T09:53:10Z</time>
      </trkpt>
      <trkpt lat="44.77249" lon="6.99356">
        <ele>1879</ele>
        <time>2022-01-08T09:53:12Z</time>
      </trkpt>
      <trkpt lat="44.77254" lon="6.99354">
        <ele>1881</ele>
        <time>2022-01-08T09:53:18Z</time>
      </trkpt>
      <trkpt lat="44.77262" lon="6.99358">
        <ele>1881</ele>
        <time>2022-01-08T09:53:24Z</time>
      </trkpt>
      <trkpt lat="44.77265" lon="6.99359">
        <ele>1881</ele>
        <time>2022-01-08T09:53:29Z</time>
      </trkpt>
      <trkpt lat="44.77265" lon="6.99362">
        <ele>1881</ele>
        <time>2022-01-08T09:53:31Z</time>
      </trkpt>
      <trkpt lat="44.77267" lon="6.99364">
        <ele>1880</ele>
        <time>2022-01-08T09:53:34Z</time>
      </trkpt>
      <trkpt lat="44.77269" lon="6.99365">
        <ele>1880</ele>
        <time>2022-01-08T09:53:42Z</time>
      </trkpt>
      <trkpt lat="44.77272" lon="6.99366">
        <ele>1880</ele>
        <time>2022-01-08T09:53:45Z</time>
      </trkpt>
      <trkpt lat="44.77272" lon="6.99363">
        <ele>1880</ele>
        <time>2022-01-08T09:53:49Z</time>
      </trkpt>
      <trkpt lat="44.77274" lon="6.99361">
        <ele>1881</ele>
        <time>2022-01-08T09:53:52Z</time>
      </trkpt>
      <trkpt lat="44.77276" lon="6.99362">
        <ele>1881</ele>
        <time>2022-01-08T09:53:55Z</time>
      </trkpt>
      <trkpt lat="44.77278" lon="6.99364">
        <ele>1882</ele>
        <time>2022-01-08T09:53:57Z</time>
      </trkpt>
      <trkpt lat="44.7728" lon="6.99364">
        <ele>1883</ele>
        <time>2022-01-08T09:53:59Z</time>
      </trkpt>
      <trkpt lat="44.77282" lon="6.99369">
        <ele>1887</ele>
        <time>2022-01-08T09:54:08Z</time>
      </trkpt>
      <trkpt lat="44.77283" lon="6.99371">
        <ele>1889</ele>
        <time>2022-01-08T09:54:11Z</time>
      </trkpt>
      <trkpt lat="44.77285" lon="6.99371">
        <ele>1890</ele>
        <time>2022-01-08T09:54:13Z</time>
      </trkpt>
      <trkpt lat="44.7729" lon="6.99369">
        <ele>1893</ele>
        <time>2022-01-08T09:54:19Z</time>
      </trkpt>
      <trkpt lat="44.77292" lon="6.99368">
        <ele>1894</ele>
        <time>2022-01-08T09:54:21Z</time>
      </trkpt>
      <trkpt lat="44.77293" lon="6.99365">
        <ele>1895</ele>
        <time>2022-01-08T09:54:23Z</time>
      </trkpt>
      <trkpt lat="44.77294" lon="6.99363">
        <ele>1895</ele>
        <time>2022-01-08T09:54:26Z</time>
      </trkpt>
      <trkpt lat="44.77297" lon="6.99361">
        <ele>1896</ele>
        <time>2022-01-08T09:54:29Z</time>
      </trkpt>
      <trkpt lat="44.77299" lon="6.99361">
        <ele>1897</ele>
        <time>2022-01-08T09:54:32Z</time>
      </trkpt>
      <trkpt lat="44.77301" lon="6.99361">
        <ele>1897</ele>
        <time>2022-01-08T09:54:34Z</time>
      </trkpt>
      <trkpt lat="44.77303" lon="6.99362">
        <ele>1898</ele>
        <time>2022-01-08T09:54:40Z</time>
      </trkpt>
      <trkpt lat="44.77302" lon="6.99365">
        <ele>1897</ele>
        <time>2022-01-08T09:54:49Z</time>
      </trkpt>
      <trkpt lat="44.77298" lon="6.99372">
        <ele>1893</ele>
        <time>2022-01-08T09:54:56Z</time>
      </trkpt>
      <trkpt lat="44.77297" lon="6.99374">
        <ele>1892</ele>
        <time>2022-01-08T09:54:59Z</time>
      </trkpt>
      <trkpt lat="44.77296" lon="6.99375">
        <ele>1892</ele>
        <time>2022-01-08T09:55:01Z</time>
      </trkpt>
      <trkpt lat="44.77294" lon="6.99377">
        <ele>1892</ele>
        <time>2022-01-08T09:55:04Z</time>
      </trkpt>
      <trkpt lat="44.77295" lon="6.99385">
        <ele>1891</ele>
        <time>2022-01-08T09:55:14Z</time>
      </trkpt>
      <trkpt lat="44.77293" lon="6.99387">
        <ele>1891</ele>
        <time>2022-01-08T09:55:17Z</time>
      </trkpt>
      <trkpt lat="44.77292" lon="6.99389">
        <ele>1891</ele>
        <time>2022-01-08T09:55:19Z</time>
      </trkpt>
      <trkpt lat="44.77287" lon="6.99394">
        <ele>1891</ele>
        <time>2022-01-08T09:55:27Z</time>
      </trkpt>
      <trkpt lat="44.77286" lon="6.99396">
        <ele>1892</ele>
        <time>2022-01-08T09:55:31Z</time>
      </trkpt>
      <trkpt lat="44.77284" lon="6.99396">
        <ele>1893</ele>
        <time>2022-01-08T09:55:34Z</time>
      </trkpt>
      <trkpt lat="44.77283" lon="6.99399">
        <ele>1895</ele>
        <time>2022-01-08T09:55:39Z</time>
      </trkpt>
      <trkpt lat="44.77283" lon="6.994">
        <ele>1896</ele>
        <time>2022-01-08T09:55:49Z</time>
      </trkpt>
      <trkpt lat="44.77286" lon="6.994">
        <ele>1896</ele>
        <time>2022-01-08T09:55:51Z</time>
      </trkpt>
      <trkpt lat="44.7729" lon="6.99397">
        <ele>1897</ele>
        <time>2022-01-08T09:55:56Z</time>
      </trkpt>
      <trkpt lat="44.77292" lon="6.99397">
        <ele>1897</ele>
        <time>2022-01-08T09:55:59Z</time>
      </trkpt>
      <trkpt lat="44.77294" lon="6.99398">
        <ele>1897</ele>
        <time>2022-01-08T09:56:02Z</time>
      </trkpt>
      <trkpt lat="44.77296" lon="6.99396">
        <ele>1898</ele>
        <time>2022-01-08T09:56:06Z</time>
      </trkpt>
      <trkpt lat="44.77298" lon="6.99395">
        <ele>1899</ele>
        <time>2022-01-08T09:56:10Z</time>
      </trkpt>
      <trkpt lat="44.77304" lon="6.99392">
        <ele>1904</ele>
        <time>2022-01-08T09:56:18Z</time>
      </trkpt>
      <trkpt lat="44.77306" lon="6.99392">
        <ele>1905</ele>
        <time>2022-01-08T09:56:21Z</time>
      </trkpt>
      <trkpt lat="44.77308" lon="6.99394">
        <ele>1908</ele>
        <time>2022-01-08T09:56:30Z</time>
      </trkpt>
      <trkpt lat="44.77309" lon="6.99397">
        <ele>1908</ele>
        <time>2022-01-08T09:56:32Z</time>
      </trkpt>
      <trkpt lat="44.77317" lon="6.994">
        <ele>1912</ele>
        <time>2022-01-08T09:56:44Z</time>
      </trkpt>
      <trkpt lat="44.77318" lon="6.99403">
        <ele>1913</ele>
        <time>2022-01-08T09:56:51Z</time>
      </trkpt>
      <trkpt lat="44.77316" lon="6.99408">
        <ele>1913</ele>
        <time>2022-01-08T09:56:58Z</time>
      </trkpt>
      <trkpt lat="44.77314" lon="6.9941">
        <ele>1913</ele>
        <time>2022-01-08T09:57:03Z</time>
      </trkpt>
      <trkpt lat="44.77312" lon="6.99409">
        <ele>1913</ele>
        <time>2022-01-08T09:57:06Z</time>
      </trkpt>
      <trkpt lat="44.7731" lon="6.99408">
        <ele>1913</ele>
        <time>2022-01-08T09:57:08Z</time>
      </trkpt>
      <trkpt lat="44.77308" lon="6.99405">
        <ele>1913</ele>
        <time>2022-01-08T09:57:10Z</time>
      </trkpt>
      <trkpt lat="44.77306" lon="6.99405">
        <ele>1913</ele>
        <time>2022-01-08T09:57:13Z</time>
      </trkpt>
      <trkpt lat="44.77304" lon="6.99407">
        <ele>1913</ele>
        <time>2022-01-08T09:57:17Z</time>
      </trkpt>
      <trkpt lat="44.77302" lon="6.99409">
        <ele>1913</ele>
        <time>2022-01-08T09:57:21Z</time>
      </trkpt>
      <trkpt lat="44.77302" lon="6.99412">
        <ele>1913</ele>
        <time>2022-01-08T09:57:23Z</time>
      </trkpt>
      <trkpt lat="44.77303" lon="6.99416">
        <ele>1913</ele>
        <time>2022-01-08T09:57:26Z</time>
      </trkpt>
      <trkpt lat="44.77301" lon="6.99422">
        <ele>1914</ele>
        <time>2022-01-08T09:57:33Z</time>
      </trkpt>
      <trkpt lat="44.77299" lon="6.9943">
        <ele>1916</ele>
        <time>2022-01-08T09:57:44Z</time>
      </trkpt>
      <trkpt lat="44.77297" lon="6.99432">
        <ele>1917</ele>
        <time>2022-01-08T09:57:48Z</time>
      </trkpt>
      <trkpt lat="44.77295" lon="6.99433">
        <ele>1918</ele>
        <time>2022-01-08T09:57:50Z</time>
      </trkpt>
      <trkpt lat="44.77294" lon="6.99432">
        <ele>1918</ele>
        <time>2022-01-08T09:57:57Z</time>
      </trkpt>
      <trkpt lat="44.77293" lon="6.99434">
        <ele>1918</ele>
        <time>2022-01-08T09:58:02Z</time>
      </trkpt>
      <trkpt lat="44.77292" lon="6.99436">
        <ele>1919</ele>
        <time>2022-01-08T09:58:06Z</time>
      </trkpt>
      <trkpt lat="44.7729" lon="6.99438">
        <ele>1920</ele>
        <time>2022-01-08T09:58:11Z</time>
      </trkpt>
      <trkpt lat="44.77288" lon="6.99439">
        <ele>1921</ele>
        <time>2022-01-08T09:58:17Z</time>
      </trkpt>
      <trkpt lat="44.77287" lon="6.99436">
        <ele>1921</ele>
        <time>2022-01-08T09:58:25Z</time>
      </trkpt>
      <trkpt lat="44.77289" lon="6.99435">
        <ele>1921</ele>
        <time>2022-01-08T09:58:28Z</time>
      </trkpt>
      <trkpt lat="44.77292" lon="6.99435">
        <ele>1922</ele>
        <time>2022-01-08T09:58:31Z</time>
      </trkpt>
      <trkpt lat="44.77297" lon="6.99437">
        <ele>1923</ele>
        <time>2022-01-08T09:58:36Z</time>
      </trkpt>
      <trkpt lat="44.77299" lon="6.99438">
        <ele>1924</ele>
        <time>2022-01-08T09:58:39Z</time>
      </trkpt>
      <trkpt lat="44.77303" lon="6.99433">
        <ele>1924</ele>
        <time>2022-01-08T09:58:48Z</time>
      </trkpt>
      <trkpt lat="44.77305" lon="6.99433">
        <ele>1924</ele>
        <time>2022-01-08T09:58:52Z</time>
      </trkpt>
      <trkpt lat="44.77307" lon="6.99433">
        <ele>1923</ele>
        <time>2022-01-08T09:59:00Z</time>
      </trkpt>
      <trkpt lat="44.77315" lon="6.99442">
        <ele>1924</ele>
        <time>2022-01-08T09:59:18Z</time>
      </trkpt>
      <trkpt lat="44.77317" lon="6.99443">
        <ele>1924</ele>
        <time>2022-01-08T09:59:21Z</time>
      </trkpt>
      <trkpt lat="44.77319" lon="6.99443">
        <ele>1925</ele>
        <time>2022-01-08T09:59:24Z</time>
      </trkpt>
      <trkpt lat="44.77321" lon="6.99444">
        <ele>1925</ele>
        <time>2022-01-08T09:59:28Z</time>
      </trkpt>
      <trkpt lat="44.77319" lon="6.99447">
        <ele>1925</ele>
        <time>2022-01-08T09:59:39Z</time>
      </trkpt>
      <trkpt lat="44.77318" lon="6.99448">
        <ele>1927</ele>
        <time>2022-01-08T09:59:50Z</time>
      </trkpt>
      <trkpt lat="44.77316" lon="6.99451">
        <ele>1927</ele>
        <time>2022-01-08T09:59:53Z</time>
      </trkpt>
      <trkpt lat="44.77315" lon="6.99453">
        <ele>1927</ele>
        <time>2022-01-08T09:59:57Z</time>
      </trkpt>
      <trkpt lat="44.77308" lon="6.99456">
        <ele>1926</ele>
        <time>2022-01-08T10:00:07Z</time>
      </trkpt>
      <trkpt lat="44.77306" lon="6.99456">
        <ele>1926</ele>
        <time>2022-01-08T10:00:10Z</time>
      </trkpt>
      <trkpt lat="44.77304" lon="6.99458">
        <ele>1925</ele>
        <time>2022-01-08T10:00:13Z</time>
      </trkpt>
      <trkpt lat="44.77303" lon="6.99462">
        <ele>1925</ele>
        <time>2022-01-08T10:00:31Z</time>
      </trkpt>
      <trkpt lat="44.77314" lon="6.99467">
        <ele>1931</ele>
        <time>2022-01-08T10:00:46Z</time>
      </trkpt>
      <trkpt lat="44.77318" lon="6.99469">
        <ele>1933</ele>
        <time>2022-01-08T10:00:51Z</time>
      </trkpt>
      <trkpt lat="44.7732" lon="6.99467">
        <ele>1934</ele>
        <time>2022-01-08T10:00:56Z</time>
      </trkpt>
      <trkpt lat="44.77324" lon="6.99468">
        <ele>1938</ele>
        <time>2022-01-08T10:01:05Z</time>
      </trkpt>
      <trkpt lat="44.77324" lon="6.99469">
        <ele>1941</ele>
        <time>2022-01-08T10:01:13Z</time>
      </trkpt>
      <trkpt lat="44.77322" lon="6.99471">
        <ele>1941</ele>
        <time>2022-01-08T10:01:16Z</time>
      </trkpt>
      <trkpt lat="44.77321" lon="6.99473">
        <ele>1943</ele>
        <time>2022-01-08T10:01:19Z</time>
      </trkpt>
      <trkpt lat="44.77318" lon="6.99475">
        <ele>1944</ele>
        <time>2022-01-08T10:01:24Z</time>
      </trkpt>
      <trkpt lat="44.77317" lon="6.99476">
        <ele>1945</ele>
        <time>2022-01-08T10:01:27Z</time>
      </trkpt>
      <trkpt lat="44.77317" lon="6.99479">
        <ele>1946</ele>
        <time>2022-01-08T10:01:32Z</time>
      </trkpt>
      <trkpt lat="44.77319" lon="6.9948">
        <ele>1946</ele>
        <time>2022-01-08T10:01:35Z</time>
      </trkpt>
      <trkpt lat="44.77321" lon="6.99481">
        <ele>1947</ele>
        <time>2022-01-08T10:01:37Z</time>
      </trkpt>
      <trkpt lat="44.77325" lon="6.99483">
        <ele>1948</ele>
        <time>2022-01-08T10:01:41Z</time>
      </trkpt>
      <trkpt lat="44.77329" lon="6.99489">
        <ele>1950</ele>
        <time>2022-01-08T10:01:54Z</time>
      </trkpt>
      <trkpt lat="44.77333" lon="6.99493">
        <ele>1951</ele>
        <time>2022-01-08T10:01:59Z</time>
      </trkpt>
      <trkpt lat="44.77335" lon="6.99498">
        <ele>1951</ele>
        <time>2022-01-08T10:02:03Z</time>
      </trkpt>
      <trkpt lat="44.77333" lon="6.995">
        <ele>1952</ele>
        <time>2022-01-08T10:02:12Z</time>
      </trkpt>
      <trkpt lat="44.77331" lon="6.995">
        <ele>1952</ele>
        <time>2022-01-08T10:02:15Z</time>
      </trkpt>
      <trkpt lat="44.77332" lon="6.995">
        <ele>1953</ele>
        <time>2022-01-08T10:02:24Z</time>
      </trkpt>
      <trkpt lat="44.77334" lon="6.995">
        <ele>1953</ele>
        <time>2022-01-08T10:02:26Z</time>
      </trkpt>
      <trkpt lat="44.77338" lon="6.99499">
        <ele>1955</ele>
        <time>2022-01-08T10:02:30Z</time>
      </trkpt>
      <trkpt lat="44.7734" lon="6.99497">
        <ele>1957</ele>
        <time>2022-01-08T10:02:34Z</time>
      </trkpt>
      <trkpt lat="44.77343" lon="6.99496">
        <ele>1958</ele>
        <time>2022-01-08T10:02:37Z</time>
      </trkpt>
      <trkpt lat="44.77344" lon="6.99497">
        <ele>1961</ele>
        <time>2022-01-08T10:02:47Z</time>
      </trkpt>
      <trkpt lat="44.77346" lon="6.99497">
        <ele>1965</ele>
        <time>2022-01-08T10:02:59Z</time>
      </trkpt>
      <trkpt lat="44.77348" lon="6.99495">
        <ele>1965</ele>
        <time>2022-01-08T10:03:01Z</time>
      </trkpt>
      <trkpt lat="44.77356" lon="6.99489">
        <ele>1965</ele>
        <time>2022-01-08T10:03:15Z</time>
      </trkpt>
      <trkpt lat="44.77361" lon="6.9949">
        <ele>1964</ele>
        <time>2022-01-08T10:03:21Z</time>
      </trkpt>
      <trkpt lat="44.77362" lon="6.99487">
        <ele>1964</ele>
        <time>2022-01-08T10:03:25Z</time>
      </trkpt>
      <trkpt lat="44.77364" lon="6.99486">
        <ele>1964</ele>
        <time>2022-01-08T10:03:29Z</time>
      </trkpt>
      <trkpt lat="44.77366" lon="6.99487">
        <ele>1964</ele>
        <time>2022-01-08T10:03:32Z</time>
      </trkpt>
      <trkpt lat="44.77367" lon="6.99483">
        <ele>1963</ele>
        <time>2022-01-08T10:03:37Z</time>
      </trkpt>
      <trkpt lat="44.77368" lon="6.99481">
        <ele>1963</ele>
        <time>2022-01-08T10:03:40Z</time>
      </trkpt>
      <trkpt lat="44.77371" lon="6.9948">
        <ele>1963</ele>
        <time>2022-01-08T10:03:43Z</time>
      </trkpt>
      <trkpt lat="44.77375" lon="6.99476">
        <ele>1964</ele>
        <time>2022-01-08T10:03:51Z</time>
      </trkpt>
      <trkpt lat="44.77379" lon="6.99476">
        <ele>1966</ele>
        <time>2022-01-08T10:03:56Z</time>
      </trkpt>
      <trkpt lat="44.77382" lon="6.99478">
        <ele>1966</ele>
        <time>2022-01-08T10:03:59Z</time>
      </trkpt>
      <trkpt lat="44.77387" lon="6.99478">
        <ele>1965</ele>
        <time>2022-01-08T10:04:06Z</time>
      </trkpt>
      <trkpt lat="44.7739" lon="6.99479">
        <ele>1965</ele>
        <time>2022-01-08T10:04:12Z</time>
      </trkpt>
      <trkpt lat="44.77392" lon="6.99478">
        <ele>1965</ele>
        <time>2022-01-08T10:04:14Z</time>
      </trkpt>
      <trkpt lat="44.77397" lon="6.99478">
        <ele>1965</ele>
        <time>2022-01-08T10:04:20Z</time>
      </trkpt>
      <trkpt lat="44.77401" lon="6.99481">
        <ele>1966</ele>
        <time>2022-01-08T10:04:26Z</time>
      </trkpt>
      <trkpt lat="44.77404" lon="6.99482">
        <ele>1966</ele>
        <time>2022-01-08T10:04:29Z</time>
      </trkpt>
      <trkpt lat="44.77406" lon="6.99481">
        <ele>1967</ele>
        <time>2022-01-08T10:04:33Z</time>
      </trkpt>
      <trkpt lat="44.77408" lon="6.9948">
        <ele>1967</ele>
        <time>2022-01-08T10:04:36Z</time>
      </trkpt>
      <trkpt lat="44.77412" lon="6.99479">
        <ele>1967</ele>
        <time>2022-01-08T10:04:40Z</time>
      </trkpt>
      <trkpt lat="44.77414" lon="6.99479">
        <ele>1967</ele>
        <time>2022-01-08T10:04:42Z</time>
      </trkpt>
      <trkpt lat="44.77416" lon="6.99479">
        <ele>1967</ele>
        <time>2022-01-08T10:04:45Z</time>
      </trkpt>
      <trkpt lat="44.7742" lon="6.99477">
        <ele>1967</ele>
        <time>2022-01-08T10:04:51Z</time>
      </trkpt>
      <trkpt lat="44.77425" lon="6.99476">
        <ele>1967</ele>
        <time>2022-01-08T10:04:57Z</time>
      </trkpt>
      <trkpt lat="44.77427" lon="6.99476">
        <ele>1966</ele>
        <time>2022-01-08T10:05:01Z</time>
      </trkpt>
      <trkpt lat="44.77429" lon="6.99476">
        <ele>1966</ele>
        <time>2022-01-08T10:05:03Z</time>
      </trkpt>
      <trkpt lat="44.7743" lon="6.99479">
        <ele>1965</ele>
        <time>2022-01-08T10:05:07Z</time>
      </trkpt>
      <trkpt lat="44.77431" lon="6.99482">
        <ele>1965</ele>
        <time>2022-01-08T10:05:10Z</time>
      </trkpt>
      <trkpt lat="44.77431" lon="6.99486">
        <ele>1964</ele>
        <time>2022-01-08T10:05:15Z</time>
      </trkpt>
      <trkpt lat="44.77442" lon="6.99483">
        <ele>1966</ele>
        <time>2022-01-08T10:05:28Z</time>
      </trkpt>
      <trkpt lat="44.77445" lon="6.99482">
        <ele>1966</ele>
        <time>2022-01-08T10:05:30Z</time>
      </trkpt>
      <trkpt lat="44.77447" lon="6.99482">
        <ele>1966</ele>
        <time>2022-01-08T10:05:33Z</time>
      </trkpt>
      <trkpt lat="44.77449" lon="6.99484">
        <ele>1965</ele>
        <time>2022-01-08T10:05:38Z</time>
      </trkpt>
      <trkpt lat="44.77449" lon="6.99486">
        <ele>1966</ele>
        <time>2022-01-08T10:05:46Z</time>
      </trkpt>
      <trkpt lat="44.77448" lon="6.99488">
        <ele>1969</ele>
        <time>2022-01-08T10:05:49Z</time>
      </trkpt>
      <trkpt lat="44.77444" lon="6.99491">
        <ele>1973</ele>
        <time>2022-01-08T10:05:57Z</time>
      </trkpt>
      <trkpt lat="44.77443" lon="6.99494">
        <ele>1974</ele>
        <time>2022-01-08T10:06:02Z</time>
      </trkpt>
      <trkpt lat="44.77443" lon="6.99496">
        <ele>1975</ele>
        <time>2022-01-08T10:06:05Z</time>
      </trkpt>
      <trkpt lat="44.77444" lon="6.99498">
        <ele>1976</ele>
        <time>2022-01-08T10:06:09Z</time>
      </trkpt>
      <trkpt lat="44.7745" lon="6.99502">
        <ele>1978</ele>
        <time>2022-01-08T10:06:17Z</time>
      </trkpt>
      <trkpt lat="44.77452" lon="6.99504">
        <ele>1978</ele>
        <time>2022-01-08T10:06:21Z</time>
      </trkpt>
      <trkpt lat="44.7746" lon="6.99505">
        <ele>1980</ele>
        <time>2022-01-08T10:06:33Z</time>
      </trkpt>
      <trkpt lat="44.77461" lon="6.99508">
        <ele>1980</ele>
        <time>2022-01-08T10:06:38Z</time>
      </trkpt>
      <trkpt lat="44.77459" lon="6.99508">
        <ele>1980</ele>
        <time>2022-01-08T10:06:41Z</time>
      </trkpt>
      <trkpt lat="44.77457" lon="6.99507">
        <ele>1980</ele>
        <time>2022-01-08T10:06:43Z</time>
      </trkpt>
      <trkpt lat="44.77456" lon="6.99508">
        <ele>1981</ele>
        <time>2022-01-08T10:06:46Z</time>
      </trkpt>
      <trkpt lat="44.77453" lon="6.99508">
        <ele>1981</ele>
        <time>2022-01-08T10:06:50Z</time>
      </trkpt>
      <trkpt lat="44.77451" lon="6.99509">
        <ele>1981</ele>
        <time>2022-01-08T10:06:53Z</time>
      </trkpt>
      <trkpt lat="44.7745" lon="6.99511">
        <ele>1982</ele>
        <time>2022-01-08T10:06:57Z</time>
      </trkpt>
      <trkpt lat="44.77449" lon="6.99514">
        <ele>1983</ele>
        <time>2022-01-08T10:07:01Z</time>
      </trkpt>
      <trkpt lat="44.7745" lon="6.99516">
        <ele>1983</ele>
        <time>2022-01-08T10:07:05Z</time>
      </trkpt>
      <trkpt lat="44.77451" lon="6.99518">
        <ele>1983</ele>
        <time>2022-01-08T10:07:08Z</time>
      </trkpt>
      <trkpt lat="44.77452" lon="6.99521">
        <ele>1984</ele>
        <time>2022-01-08T10:07:12Z</time>
      </trkpt>
      <trkpt lat="44.77451" lon="6.99523">
        <ele>1984</ele>
        <time>2022-01-08T10:07:15Z</time>
      </trkpt>
      <trkpt lat="44.77448" lon="6.99526">
        <ele>1986</ele>
        <time>2022-01-08T10:07:24Z</time>
      </trkpt>
      <trkpt lat="44.77452" lon="6.99528">
        <ele>1987</ele>
        <time>2022-01-08T10:07:29Z</time>
      </trkpt>
      <trkpt lat="44.77454" lon="6.99529">
        <ele>1987</ele>
        <time>2022-01-08T10:07:32Z</time>
      </trkpt>
      <trkpt lat="44.77456" lon="6.99529">
        <ele>1986</ele>
        <time>2022-01-08T10:07:35Z</time>
      </trkpt>
      <trkpt lat="44.77458" lon="6.99531">
        <ele>1982</ele>
        <time>2022-01-08T10:07:40Z</time>
      </trkpt>
      <trkpt lat="44.7746" lon="6.99533">
        <ele>1980</ele>
        <time>2022-01-08T10:07:43Z</time>
      </trkpt>
      <trkpt lat="44.77462" lon="6.99537">
        <ele>1978</ele>
        <time>2022-01-08T10:07:51Z</time>
      </trkpt>
      <trkpt lat="44.77463" lon="6.9954">
        <ele>1977</ele>
        <time>2022-01-08T10:07:55Z</time>
      </trkpt>
      <trkpt lat="44.77463" lon="6.99543">
        <ele>1977</ele>
        <time>2022-01-08T10:08:01Z</time>
      </trkpt>
      <trkpt lat="44.77465" lon="6.99547">
        <ele>1975</ele>
        <time>2022-01-08T10:08:11Z</time>
      </trkpt>
      <trkpt lat="44.77469" lon="6.99552">
        <ele>1976</ele>
        <time>2022-01-08T10:08:17Z</time>
      </trkpt>
      <trkpt lat="44.7747" lon="6.99551">
        <ele>1978</ele>
        <time>2022-01-08T10:08:23Z</time>
      </trkpt>
      <trkpt lat="44.77472" lon="6.99549">
        <ele>1979</ele>
        <time>2022-01-08T10:08:27Z</time>
      </trkpt>
      <trkpt lat="44.77474" lon="6.99547">
        <ele>1981</ele>
        <time>2022-01-08T10:08:29Z</time>
      </trkpt>
      <trkpt lat="44.77476" lon="6.99547">
        <ele>1982</ele>
        <time>2022-01-08T10:08:31Z</time>
      </trkpt>
      <trkpt lat="44.77481" lon="6.99548">
        <ele>1988</ele>
        <time>2022-01-08T10:08:35Z</time>
      </trkpt>
      <trkpt lat="44.77483" lon="6.99548">
        <ele>1990</ele>
        <time>2022-01-08T10:08:38Z</time>
      </trkpt>
      <trkpt lat="44.77485" lon="6.99547">
        <ele>1993</ele>
        <time>2022-01-08T10:08:42Z</time>
      </trkpt>
      <trkpt lat="44.77487" lon="6.99548">
        <ele>1995</ele>
        <time>2022-01-08T10:08:44Z</time>
      </trkpt>
      <trkpt lat="44.7749" lon="6.99548">
        <ele>1996</ele>
        <time>2022-01-08T10:08:47Z</time>
      </trkpt>
      <trkpt lat="44.77492" lon="6.99548">
        <ele>1999</ele>
        <time>2022-01-08T10:08:56Z</time>
      </trkpt>
      <trkpt lat="44.77493" lon="6.99549">
        <ele>1999</ele>
        <time>2022-01-08T10:09:06Z</time>
      </trkpt>
      <trkpt lat="44.77491" lon="6.99551">
        <ele>1999</ele>
        <time>2022-01-08T10:09:20Z</time>
      </trkpt>
      <trkpt lat="44.7749" lon="6.99553">
        <ele>1999</ele>
        <time>2022-01-08T10:09:22Z</time>
      </trkpt>
      <trkpt lat="44.77484" lon="6.99559">
        <ele>2001</ele>
        <time>2022-01-08T10:09:32Z</time>
      </trkpt>
      <trkpt lat="44.77484" lon="6.99562">
        <ele>2002</ele>
        <time>2022-01-08T10:09:35Z</time>
      </trkpt>
      <trkpt lat="44.7748" lon="6.99565">
        <ele>2004</ele>
        <time>2022-01-08T10:09:43Z</time>
      </trkpt>
      <trkpt lat="44.7748" lon="6.99568">
        <ele>2005</ele>
        <time>2022-01-08T10:09:49Z</time>
      </trkpt>
      <trkpt lat="44.77482" lon="6.99571">
        <ele>2006</ele>
        <time>2022-01-08T10:09:53Z</time>
      </trkpt>
      <trkpt lat="44.77487" lon="6.99574">
        <ele>2005</ele>
        <time>2022-01-08T10:09:58Z</time>
      </trkpt>
      <trkpt lat="44.7749" lon="6.99574">
        <ele>2005</ele>
        <time>2022-01-08T10:10:06Z</time>
      </trkpt>
      <trkpt lat="44.77492" lon="6.99573">
        <ele>2006</ele>
        <time>2022-01-08T10:10:11Z</time>
      </trkpt>
      <trkpt lat="44.77494" lon="6.99574">
        <ele>2006</ele>
        <time>2022-01-08T10:10:14Z</time>
      </trkpt>
      <trkpt lat="44.77497" lon="6.99574">
        <ele>2006</ele>
        <time>2022-01-08T10:10:23Z</time>
      </trkpt>
      <trkpt lat="44.77503" lon="6.99576">
        <ele>2006</ele>
        <time>2022-01-08T10:10:32Z</time>
      </trkpt>
      <trkpt lat="44.77505" lon="6.99577">
        <ele>2006</ele>
        <time>2022-01-08T10:10:35Z</time>
      </trkpt>
      <trkpt lat="44.77507" lon="6.99576">
        <ele>2006</ele>
        <time>2022-01-08T10:10:38Z</time>
      </trkpt>
      <trkpt lat="44.77508" lon="6.99574">
        <ele>2006</ele>
        <time>2022-01-08T10:10:41Z</time>
      </trkpt>
      <trkpt lat="44.7751" lon="6.99573">
        <ele>2006</ele>
        <time>2022-01-08T10:10:44Z</time>
      </trkpt>
      <trkpt lat="44.77512" lon="6.99572">
        <ele>2006</ele>
        <time>2022-01-08T10:10:48Z</time>
      </trkpt>
      <trkpt lat="44.77512" lon="6.99569">
        <ele>2008</ele>
        <time>2022-01-08T10:10:53Z</time>
      </trkpt>
      <trkpt lat="44.7752" lon="6.99572">
        <ele>2011</ele>
        <time>2022-01-08T10:11:10Z</time>
      </trkpt>
      <trkpt lat="44.77521" lon="6.99574">
        <ele>2011</ele>
        <time>2022-01-08T10:11:12Z</time>
      </trkpt>
      <trkpt lat="44.77523" lon="6.99575">
        <ele>2011</ele>
        <time>2022-01-08T10:11:14Z</time>
      </trkpt>
      <trkpt lat="44.77523" lon="6.99577">
        <ele>2011</ele>
        <time>2022-01-08T10:11:19Z</time>
      </trkpt>
      <trkpt lat="44.77522" lon="6.9958">
        <ele>2012</ele>
        <time>2022-01-08T10:11:22Z</time>
      </trkpt>
      <trkpt lat="44.77521" lon="6.99584">
        <ele>2015</ele>
        <time>2022-01-08T10:12:21Z</time>
      </trkpt>
      <trkpt lat="44.7752" lon="6.99586">
        <ele>2016</ele>
        <time>2022-01-08T10:12:24Z</time>
      </trkpt>
      <trkpt lat="44.77519" lon="6.99589">
        <ele>2017</ele>
        <time>2022-01-08T10:12:27Z</time>
      </trkpt>
      <trkpt lat="44.77519" lon="6.99592">
        <ele>2017</ele>
        <time>2022-01-08T10:12:29Z</time>
      </trkpt>
      <trkpt lat="44.77517" lon="6.99595">
        <ele>2018</ele>
        <time>2022-01-08T10:12:32Z</time>
      </trkpt>
      <trkpt lat="44.77516" lon="6.99596">
        <ele>2019</ele>
        <time>2022-01-08T10:13:03Z</time>
      </trkpt>
      <trkpt lat="44.77515" lon="6.99597">
        <ele>2019</ele>
        <time>2022-01-08T10:13:05Z</time>
      </trkpt>
      <trkpt lat="44.77514" lon="6.99599">
        <ele>2020</ele>
        <time>2022-01-08T10:13:07Z</time>
      </trkpt>
      <trkpt lat="44.77511" lon="6.99602">
        <ele>2020</ele>
        <time>2022-01-08T10:13:11Z</time>
      </trkpt>
      <trkpt lat="44.77509" lon="6.99603">
        <ele>2021</ele>
        <time>2022-01-08T10:13:14Z</time>
      </trkpt>
      <trkpt lat="44.77508" lon="6.99605">
        <ele>2021</ele>
        <time>2022-01-08T10:13:16Z</time>
      </trkpt>
      <trkpt lat="44.77507" lon="6.99608">
        <ele>2021</ele>
        <time>2022-01-08T10:13:20Z</time>
      </trkpt>
      <trkpt lat="44.77507" lon="6.99611">
        <ele>2022</ele>
        <time>2022-01-08T10:13:24Z</time>
      </trkpt>
      <trkpt lat="44.77506" lon="6.99614">
        <ele>2023</ele>
        <time>2022-01-08T10:13:28Z</time>
      </trkpt>
      <trkpt lat="44.77506" lon="6.99617">
        <ele>2022</ele>
        <time>2022-01-08T10:13:33Z</time>
      </trkpt>
      <trkpt lat="44.77506" lon="6.99621">
        <ele>2021</ele>
        <time>2022-01-08T10:13:36Z</time>
      </trkpt>
      <trkpt lat="44.77515" lon="6.99624">
        <ele>2019</ele>
        <time>2022-01-08T10:13:52Z</time>
      </trkpt>
      <trkpt lat="44.77516" lon="6.99621">
        <ele>2018</ele>
        <time>2022-01-08T10:13:57Z</time>
      </trkpt>
      <trkpt lat="44.77524" lon="6.99621">
        <ele>2021</ele>
        <time>2022-01-08T10:14:13Z</time>
      </trkpt>
      <trkpt lat="44.77526" lon="6.99622">
        <ele>2021</ele>
        <time>2022-01-08T10:14:15Z</time>
      </trkpt>
      <trkpt lat="44.77535" lon="6.99624">
        <ele>2023</ele>
        <time>2022-01-08T10:14:26Z</time>
      </trkpt>
      <trkpt lat="44.77533" lon="6.99625">
        <ele>2025</ele>
        <time>2022-01-08T10:14:40Z</time>
      </trkpt>
      <trkpt lat="44.77532" lon="6.99627">
        <ele>2025</ele>
        <time>2022-01-08T10:14:44Z</time>
      </trkpt>
      <trkpt lat="44.77527" lon="6.99624">
        <ele>2028</ele>
        <time>2022-01-08T10:14:55Z</time>
      </trkpt>
      <trkpt lat="44.77525" lon="6.99625">
        <ele>2030</ele>
        <time>2022-01-08T10:14:59Z</time>
      </trkpt>
      <trkpt lat="44.77524" lon="6.99628">
        <ele>2031</ele>
        <time>2022-01-08T10:15:02Z</time>
      </trkpt>
      <trkpt lat="44.77524" lon="6.9963">
        <ele>2033</ele>
        <time>2022-01-08T10:15:08Z</time>
      </trkpt>
      <trkpt lat="44.77525" lon="6.99633">
        <ele>2034</ele>
        <time>2022-01-08T10:16:08Z</time>
      </trkpt>
      <trkpt lat="44.77524" lon="6.99635">
        <ele>2036</ele>
        <time>2022-01-08T10:16:13Z</time>
      </trkpt>
      <trkpt lat="44.77522" lon="6.99639">
        <ele>2036</ele>
        <time>2022-01-08T10:16:17Z</time>
      </trkpt>
      <trkpt lat="44.77521" lon="6.99642">
        <ele>2036</ele>
        <time>2022-01-08T10:16:20Z</time>
      </trkpt>
      <trkpt lat="44.77518" lon="6.99645">
        <ele>2036</ele>
        <time>2022-01-08T10:16:24Z</time>
      </trkpt>
      <trkpt lat="44.77517" lon="6.99655">
        <ele>2039</ele>
        <time>2022-01-08T10:16:34Z</time>
      </trkpt>
      <trkpt lat="44.77518" lon="6.99662">
        <ele>2041</ele>
        <time>2022-01-08T10:16:40Z</time>
      </trkpt>
      <trkpt lat="44.77516" lon="6.99666">
        <ele>2043</ele>
        <time>2022-01-08T10:16:46Z</time>
      </trkpt>
      <trkpt lat="44.77518" lon="6.99667">
        <ele>2044</ele>
        <time>2022-01-08T10:16:51Z</time>
      </trkpt>
      <trkpt lat="44.77518" lon="6.9967">
        <ele>2044</ele>
        <time>2022-01-08T10:16:54Z</time>
      </trkpt>
      <trkpt lat="44.77517" lon="6.99675">
        <ele>2045</ele>
        <time>2022-01-08T10:17:00Z</time>
      </trkpt>
      <trkpt lat="44.77517" lon="6.99678">
        <ele>2045</ele>
        <time>2022-01-08T10:17:03Z</time>
      </trkpt>
      <trkpt lat="44.77516" lon="6.9968">
        <ele>2046</ele>
        <time>2022-01-08T10:17:07Z</time>
      </trkpt>
      <trkpt lat="44.77515" lon="6.99683">
        <ele>2046</ele>
        <time>2022-01-08T10:17:12Z</time>
      </trkpt>
      <trkpt lat="44.77513" lon="6.99684">
        <ele>2048</ele>
        <time>2022-01-08T10:17:18Z</time>
      </trkpt>
      <trkpt lat="44.77512" lon="6.99683">
        <ele>2049</ele>
        <time>2022-01-08T10:17:21Z</time>
      </trkpt>
      <trkpt lat="44.77509" lon="6.99684">
        <ele>2050</ele>
        <time>2022-01-08T10:17:26Z</time>
      </trkpt>
      <trkpt lat="44.77507" lon="6.99687">
        <ele>2051</ele>
        <time>2022-01-08T10:17:34Z</time>
      </trkpt>
      <trkpt lat="44.77505" lon="6.99689">
        <ele>2052</ele>
        <time>2022-01-08T10:17:37Z</time>
      </trkpt>
      <trkpt lat="44.77504" lon="6.99689">
        <ele>2052</ele>
        <time>2022-01-08T10:17:40Z</time>
      </trkpt>
      <trkpt lat="44.77502" lon="6.99688">
        <ele>2053</ele>
        <time>2022-01-08T10:17:42Z</time>
      </trkpt>
      <trkpt lat="44.775" lon="6.99688">
        <ele>2053</ele>
        <time>2022-01-08T10:17:44Z</time>
      </trkpt>
      <trkpt lat="44.77498" lon="6.99687">
        <ele>2053</ele>
        <time>2022-01-08T10:17:46Z</time>
      </trkpt>
      <trkpt lat="44.77494" lon="6.99688">
        <ele>2054</ele>
        <time>2022-01-08T10:17:50Z</time>
      </trkpt>
      <trkpt lat="44.77493" lon="6.9969">
        <ele>2054</ele>
        <time>2022-01-08T10:17:53Z</time>
      </trkpt>
      <trkpt lat="44.7749" lon="6.99694">
        <ele>2056</ele>
        <time>2022-01-08T10:18:01Z</time>
      </trkpt>
      <trkpt lat="44.7749" lon="6.99697">
        <ele>2057</ele>
        <time>2022-01-08T10:18:06Z</time>
      </trkpt>
      <trkpt lat="44.77488" lon="6.99699">
        <ele>2057</ele>
        <time>2022-01-08T10:18:11Z</time>
      </trkpt>
      <trkpt lat="44.77488" lon="6.99702">
        <ele>2058</ele>
        <time>2022-01-08T10:18:14Z</time>
      </trkpt>
      <trkpt lat="44.77486" lon="6.99704">
        <ele>2058</ele>
        <time>2022-01-08T10:18:19Z</time>
      </trkpt>
      <trkpt lat="44.77484" lon="6.99704">
        <ele>2059</ele>
        <time>2022-01-08T10:18:23Z</time>
      </trkpt>
      <trkpt lat="44.77479" lon="6.99707">
        <ele>2060</ele>
        <time>2022-01-08T10:18:38Z</time>
      </trkpt>
      <trkpt lat="44.7748" lon="6.99706">
        <ele>2060</ele>
        <time>2022-01-08T10:18:45Z</time>
      </trkpt>
      <trkpt lat="44.77482" lon="6.99707">
        <ele>2060</ele>
        <time>2022-01-08T10:18:54Z</time>
      </trkpt>
      <trkpt lat="44.77484" lon="6.99707">
        <ele>2060</ele>
        <time>2022-01-08T10:18:59Z</time>
      </trkpt>
      <trkpt lat="44.77486" lon="6.99708">
        <ele>2060</ele>
        <time>2022-01-08T10:19:03Z</time>
      </trkpt>
      <trkpt lat="44.77488" lon="6.99709">
        <ele>2060</ele>
        <time>2022-01-08T10:19:07Z</time>
      </trkpt>
      <trkpt lat="44.77494" lon="6.99712">
        <ele>2060</ele>
        <time>2022-01-08T10:19:15Z</time>
      </trkpt>
      <trkpt lat="44.77495" lon="6.99714">
        <ele>2061</ele>
        <time>2022-01-08T10:19:17Z</time>
      </trkpt>
      <trkpt lat="44.77497" lon="6.99716">
        <ele>2062</ele>
        <time>2022-01-08T10:19:21Z</time>
      </trkpt>
      <trkpt lat="44.77498" lon="6.99718">
        <ele>2062</ele>
        <time>2022-01-08T10:19:26Z</time>
      </trkpt>
      <trkpt lat="44.77499" lon="6.99721">
        <ele>2063</ele>
        <time>2022-01-08T10:19:31Z</time>
      </trkpt>
      <trkpt lat="44.775" lon="6.99722">
        <ele>2064</ele>
        <time>2022-01-08T10:19:37Z</time>
      </trkpt>
      <trkpt lat="44.77502" lon="6.99724">
        <ele>2065</ele>
        <time>2022-01-08T10:19:40Z</time>
      </trkpt>
      <trkpt lat="44.77503" lon="6.99727">
        <ele>2066</ele>
        <time>2022-01-08T10:19:46Z</time>
      </trkpt>
      <trkpt lat="44.77501" lon="6.99729">
        <ele>2065</ele>
        <time>2022-01-08T10:19:57Z</time>
      </trkpt>
      <trkpt lat="44.77497" lon="6.9973">
        <ele>2066</ele>
        <time>2022-01-08T10:20:02Z</time>
      </trkpt>
      <trkpt lat="44.77494" lon="6.99732">
        <ele>2066</ele>
        <time>2022-01-08T10:20:06Z</time>
      </trkpt>
      <trkpt lat="44.77494" lon="6.99734">
        <ele>2067</ele>
        <time>2022-01-08T10:20:09Z</time>
      </trkpt>
      <trkpt lat="44.77491" lon="6.99737">
        <ele>2068</ele>
        <time>2022-01-08T10:20:17Z</time>
      </trkpt>
      <trkpt lat="44.77485" lon="6.99741">
        <ele>2071</ele>
        <time>2022-01-08T10:20:26Z</time>
      </trkpt>
      <trkpt lat="44.77485" lon="6.99743">
        <ele>2072</ele>
        <time>2022-01-08T10:20:30Z</time>
      </trkpt>
      <trkpt lat="44.77483" lon="6.99745">
        <ele>2073</ele>
        <time>2022-01-08T10:20:35Z</time>
      </trkpt>
      <trkpt lat="44.77483" lon="6.99748">
        <ele>2075</ele>
        <time>2022-01-08T10:20:39Z</time>
      </trkpt>
      <trkpt lat="44.77481" lon="6.99749">
        <ele>2075</ele>
        <time>2022-01-08T10:20:42Z</time>
      </trkpt>
      <trkpt lat="44.77481" lon="6.99752">
        <ele>2076</ele>
        <time>2022-01-08T10:20:46Z</time>
      </trkpt>
      <trkpt lat="44.77479" lon="6.99753">
        <ele>2076</ele>
        <time>2022-01-08T10:20:50Z</time>
      </trkpt>
      <trkpt lat="44.77481" lon="6.99755">
        <ele>2076</ele>
        <time>2022-01-08T10:20:55Z</time>
      </trkpt>
      <trkpt lat="44.77482" lon="6.99757">
        <ele>2077</ele>
        <time>2022-01-08T10:21:00Z</time>
      </trkpt>
      <trkpt lat="44.77484" lon="6.9976">
        <ele>2078</ele>
        <time>2022-01-08T10:21:04Z</time>
      </trkpt>
      <trkpt lat="44.77487" lon="6.99759">
        <ele>2079</ele>
        <time>2022-01-08T10:21:07Z</time>
      </trkpt>
      <trkpt lat="44.77488" lon="6.99758">
        <ele>2080</ele>
        <time>2022-01-08T10:21:10Z</time>
      </trkpt>
      <trkpt lat="44.77488" lon="6.99761">
        <ele>2081</ele>
        <time>2022-01-08T10:21:15Z</time>
      </trkpt>
      <trkpt lat="44.77488" lon="6.99764">
        <ele>2082</ele>
        <time>2022-01-08T10:21:18Z</time>
      </trkpt>
      <trkpt lat="44.77487" lon="6.99766">
        <ele>2082</ele>
        <time>2022-01-08T10:21:20Z</time>
      </trkpt>
      <trkpt lat="44.77485" lon="6.99768">
        <ele>2083</ele>
        <time>2022-01-08T10:21:23Z</time>
      </trkpt>
      <trkpt lat="44.77484" lon="6.9977">
        <ele>2084</ele>
        <time>2022-01-08T10:21:26Z</time>
      </trkpt>
      <trkpt lat="44.77484" lon="6.99773">
        <ele>2085</ele>
        <time>2022-01-08T10:21:32Z</time>
      </trkpt>
      <trkpt lat="44.77483" lon="6.99776">
        <ele>2086</ele>
        <time>2022-01-08T10:21:38Z</time>
      </trkpt>
      <trkpt lat="44.77482" lon="6.99776">
        <ele>2087</ele>
        <time>2022-01-08T10:21:41Z</time>
      </trkpt>
      <trkpt lat="44.7748" lon="6.99777">
        <ele>2088</ele>
        <time>2022-01-08T10:21:44Z</time>
      </trkpt>
      <trkpt lat="44.77478" lon="6.99777">
        <ele>2088</ele>
        <time>2022-01-08T10:21:47Z</time>
      </trkpt>
      <trkpt lat="44.77474" lon="6.9978">
        <ele>2090</ele>
        <time>2022-01-08T10:21:58Z</time>
      </trkpt>
      <trkpt lat="44.77473" lon="6.99782">
        <ele>2091</ele>
        <time>2022-01-08T10:22:01Z</time>
      </trkpt>
      <trkpt lat="44.77469" lon="6.99783">
        <ele>2093</ele>
        <time>2022-01-08T10:22:08Z</time>
      </trkpt>
      <trkpt lat="44.77467" lon="6.99782">
        <ele>2093</ele>
        <time>2022-01-08T10:22:10Z</time>
      </trkpt>
      <trkpt lat="44.77465" lon="6.99782">
        <ele>2094</ele>
        <time>2022-01-08T10:22:14Z</time>
      </trkpt>
      <trkpt lat="44.77462" lon="6.99781">
        <ele>2094</ele>
        <time>2022-01-08T10:22:22Z</time>
      </trkpt>
      <trkpt lat="44.77462" lon="6.99785">
        <ele>2095</ele>
        <time>2022-01-08T10:22:27Z</time>
      </trkpt>
      <trkpt lat="44.77464" lon="6.99787">
        <ele>2095</ele>
        <time>2022-01-08T10:22:29Z</time>
      </trkpt>
      <trkpt lat="44.77466" lon="6.99789">
        <ele>2095</ele>
        <time>2022-01-08T10:22:31Z</time>
      </trkpt>
      <trkpt lat="44.77467" lon="6.9979">
        <ele>2095</ele>
        <time>2022-01-08T10:22:33Z</time>
      </trkpt>
      <trkpt lat="44.77469" lon="6.99792">
        <ele>2094</ele>
        <time>2022-01-08T10:22:35Z</time>
      </trkpt>
      <trkpt lat="44.7747" lon="6.99794">
        <ele>2094</ele>
        <time>2022-01-08T10:22:38Z</time>
      </trkpt>
      <trkpt lat="44.77473" lon="6.99794">
        <ele>2093</ele>
        <time>2022-01-08T10:22:41Z</time>
      </trkpt>
      <trkpt lat="44.77473" lon="6.99796">
        <ele>2092</ele>
        <time>2022-01-08T10:22:47Z</time>
      </trkpt>
      <trkpt lat="44.77475" lon="6.99796">
        <ele>2091</ele>
        <time>2022-01-08T10:22:50Z</time>
      </trkpt>
      <trkpt lat="44.77477" lon="6.99798">
        <ele>2091</ele>
        <time>2022-01-08T10:22:53Z</time>
      </trkpt>
      <trkpt lat="44.77479" lon="6.998">
        <ele>2091</ele>
        <time>2022-01-08T10:22:57Z</time>
      </trkpt>
      <trkpt lat="44.77481" lon="6.99802">
        <ele>2092</ele>
        <time>2022-01-08T10:22:59Z</time>
      </trkpt>
      <trkpt lat="44.77483" lon="6.99802">
        <ele>2094</ele>
        <time>2022-01-08T10:23:04Z</time>
      </trkpt>
      <trkpt lat="44.77483" lon="6.99804">
        <ele>2097</ele>
        <time>2022-01-08T10:23:17Z</time>
      </trkpt>
      <trkpt lat="44.77481" lon="6.99805">
        <ele>2098</ele>
        <time>2022-01-08T10:23:20Z</time>
      </trkpt>
      <trkpt lat="44.7748" lon="6.99807">
        <ele>2098</ele>
        <time>2022-01-08T10:23:27Z</time>
      </trkpt>
      <trkpt lat="44.77477" lon="6.99807">
        <ele>2099</ele>
        <time>2022-01-08T10:23:35Z</time>
      </trkpt>
      <trkpt lat="44.77476" lon="6.99807">
        <ele>2099</ele>
        <time>2022-01-08T10:23:37Z</time>
      </trkpt>
      <trkpt lat="44.77473" lon="6.99807">
        <ele>2100</ele>
        <time>2022-01-08T10:23:40Z</time>
      </trkpt>
      <trkpt lat="44.77469" lon="6.99809">
        <ele>2101</ele>
        <time>2022-01-08T10:23:47Z</time>
      </trkpt>
      <trkpt lat="44.77465" lon="6.99808">
        <ele>2102</ele>
        <time>2022-01-08T10:23:52Z</time>
      </trkpt>
      <trkpt lat="44.77464" lon="6.9981">
        <ele>2103</ele>
        <time>2022-01-08T10:23:56Z</time>
      </trkpt>
      <trkpt lat="44.77464" lon="6.99812">
        <ele>2104</ele>
        <time>2022-01-08T10:23:59Z</time>
      </trkpt>
      <trkpt lat="44.77465" lon="6.99815">
        <ele>2104</ele>
        <time>2022-01-08T10:24:03Z</time>
      </trkpt>
      <trkpt lat="44.7747" lon="6.9982">
        <ele>2106</ele>
        <time>2022-01-08T10:24:13Z</time>
      </trkpt>
      <trkpt lat="44.7747" lon="6.99826">
        <ele>2108</ele>
        <time>2022-01-08T10:24:21Z</time>
      </trkpt>
      <trkpt lat="44.77472" lon="6.99829">
        <ele>2110</ele>
        <time>2022-01-08T10:24:29Z</time>
      </trkpt>
      <trkpt lat="44.77472" lon="6.99832">
        <ele>2111</ele>
        <time>2022-01-08T10:24:34Z</time>
      </trkpt>
      <trkpt lat="44.77474" lon="6.99834">
        <ele>2112</ele>
        <time>2022-01-08T10:24:37Z</time>
      </trkpt>
      <trkpt lat="44.77476" lon="6.99837">
        <ele>2112</ele>
        <time>2022-01-08T10:24:43Z</time>
      </trkpt>
      <trkpt lat="44.77479" lon="6.99841">
        <ele>2113</ele>
        <time>2022-01-08T10:24:51Z</time>
      </trkpt>
      <trkpt lat="44.7748" lon="6.99842">
        <ele>2114</ele>
        <time>2022-01-08T10:24:55Z</time>
      </trkpt>
      <trkpt lat="44.77483" lon="6.99843">
        <ele>2114</ele>
        <time>2022-01-08T10:25:03Z</time>
      </trkpt>
      <trkpt lat="44.77491" lon="6.99842">
        <ele>2116</ele>
        <time>2022-01-08T10:25:18Z</time>
      </trkpt>
      <trkpt lat="44.77494" lon="6.99842">
        <ele>2117</ele>
        <time>2022-01-08T10:25:24Z</time>
      </trkpt>
      <trkpt lat="44.77498" lon="6.99841">
        <ele>2118</ele>
        <time>2022-01-08T10:25:30Z</time>
      </trkpt>
      <trkpt lat="44.77499" lon="6.99841">
        <ele>2118</ele>
        <time>2022-01-08T10:25:33Z</time>
      </trkpt>
      <trkpt lat="44.77503" lon="6.9984">
        <ele>2119</ele>
        <time>2022-01-08T10:25:40Z</time>
      </trkpt>
      <trkpt lat="44.77504" lon="6.99842">
        <ele>2120</ele>
        <time>2022-01-08T10:25:43Z</time>
      </trkpt>
      <trkpt lat="44.77505" lon="6.99845">
        <ele>2120</ele>
        <time>2022-01-08T10:25:46Z</time>
      </trkpt>
      <trkpt lat="44.77505" lon="6.99847">
        <ele>2120</ele>
        <time>2022-01-08T10:25:51Z</time>
      </trkpt>
      <trkpt lat="44.77507" lon="6.99848">
        <ele>2121</ele>
        <time>2022-01-08T10:25:57Z</time>
      </trkpt>
      <trkpt lat="44.7751" lon="6.99848">
        <ele>2122</ele>
        <time>2022-01-08T10:26:22Z</time>
      </trkpt>
      <trkpt lat="44.77509" lon="6.9985">
        <ele>2122</ele>
        <time>2022-01-08T10:26:25Z</time>
      </trkpt>
      <trkpt lat="44.77509" lon="6.99853">
        <ele>2125</ele>
        <time>2022-01-08T10:26:28Z</time>
      </trkpt>
      <trkpt lat="44.77508" lon="6.99855">
        <ele>2125</ele>
        <time>2022-01-08T10:26:32Z</time>
      </trkpt>
      <trkpt lat="44.77511" lon="6.99853">
        <ele>2126</ele>
        <time>2022-01-08T10:26:39Z</time>
      </trkpt>
      <trkpt lat="44.77515" lon="6.99851">
        <ele>2127</ele>
        <time>2022-01-08T10:26:45Z</time>
      </trkpt>
      <trkpt lat="44.77516" lon="6.9985">
        <ele>2127</ele>
        <time>2022-01-08T10:26:48Z</time>
      </trkpt>
      <trkpt lat="44.77519" lon="6.99849">
        <ele>2128</ele>
        <time>2022-01-08T10:26:58Z</time>
      </trkpt>
      <trkpt lat="44.7752" lon="6.99847">
        <ele>2129</ele>
        <time>2022-01-08T10:27:01Z</time>
      </trkpt>
      <trkpt lat="44.77521" lon="6.99845">
        <ele>2130</ele>
        <time>2022-01-08T10:27:08Z</time>
      </trkpt>
      <trkpt lat="44.77524" lon="6.99845">
        <ele>2130</ele>
        <time>2022-01-08T10:27:15Z</time>
      </trkpt>
      <trkpt lat="44.77527" lon="6.99847">
        <ele>2131</ele>
        <time>2022-01-08T10:27:23Z</time>
      </trkpt>
      <trkpt lat="44.77531" lon="6.99852">
        <ele>2132</ele>
        <time>2022-01-08T10:27:38Z</time>
      </trkpt>
      <trkpt lat="44.77533" lon="6.99854">
        <ele>2132</ele>
        <time>2022-01-08T10:27:43Z</time>
      </trkpt>
      <trkpt lat="44.77534" lon="6.99856">
        <ele>2133</ele>
        <time>2022-01-08T10:27:47Z</time>
      </trkpt>
      <trkpt lat="44.7754" lon="6.9986">
        <ele>2135</ele>
        <time>2022-01-08T10:28:01Z</time>
      </trkpt>
      <trkpt lat="44.77542" lon="6.9986">
        <ele>2135</ele>
        <time>2022-01-08T10:28:05Z</time>
      </trkpt>
      <trkpt lat="44.77547" lon="6.99859">
        <ele>2137</ele>
        <time>2022-01-08T10:28:16Z</time>
      </trkpt>
      <trkpt lat="44.7755" lon="6.99859">
        <ele>2137</ele>
        <time>2022-01-08T10:28:19Z</time>
      </trkpt>
      <trkpt lat="44.77552" lon="6.99859">
        <ele>2138</ele>
        <time>2022-01-08T10:28:22Z</time>
      </trkpt>
      <trkpt lat="44.77551" lon="6.99862">
        <ele>2139</ele>
        <time>2022-01-08T10:28:32Z</time>
      </trkpt>
      <trkpt lat="44.7755" lon="6.99863">
        <ele>2139</ele>
        <time>2022-01-08T10:28:35Z</time>
      </trkpt>
      <trkpt lat="44.77547" lon="6.99865">
        <ele>2140</ele>
        <time>2022-01-08T10:28:42Z</time>
      </trkpt>
      <trkpt lat="44.77545" lon="6.99866">
        <ele>2141</ele>
        <time>2022-01-08T10:28:44Z</time>
      </trkpt>
      <trkpt lat="44.77544" lon="6.99867">
        <ele>2141</ele>
        <time>2022-01-08T10:28:47Z</time>
      </trkpt>
      <trkpt lat="44.77538" lon="6.99869">
        <ele>2142</ele>
        <time>2022-01-08T10:28:56Z</time>
      </trkpt>
      <trkpt lat="44.77537" lon="6.9987">
        <ele>2142</ele>
        <time>2022-01-08T10:28:59Z</time>
      </trkpt>
      <trkpt lat="44.7754" lon="6.99872">
        <ele>2142</ele>
        <time>2022-01-08T10:29:05Z</time>
      </trkpt>
      <trkpt lat="44.77542" lon="6.99874">
        <ele>2142</ele>
        <time>2022-01-08T10:29:08Z</time>
      </trkpt>
      <trkpt lat="44.77544" lon="6.99874">
        <ele>2142</ele>
        <time>2022-01-08T10:29:11Z</time>
      </trkpt>
      <trkpt lat="44.77548" lon="6.99878">
        <ele>2142</ele>
        <time>2022-01-08T10:29:22Z</time>
      </trkpt>
      <trkpt lat="44.77555" lon="6.99878">
        <ele>2145</ele>
        <time>2022-01-08T10:29:43Z</time>
      </trkpt>
      <trkpt lat="44.77559" lon="6.99879">
        <ele>2148</ele>
        <time>2022-01-08T10:29:53Z</time>
      </trkpt>
      <trkpt lat="44.7756" lon="6.99878">
        <ele>2149</ele>
        <time>2022-01-08T10:30:00Z</time>
      </trkpt>
      <trkpt lat="44.77563" lon="6.99874">
        <ele>2151</ele>
        <time>2022-01-08T10:30:06Z</time>
      </trkpt>
      <trkpt lat="44.77564" lon="6.99873">
        <ele>2151</ele>
        <time>2022-01-08T10:30:08Z</time>
      </trkpt>
      <trkpt lat="44.77565" lon="6.99871">
        <ele>2152</ele>
        <time>2022-01-08T10:30:11Z</time>
      </trkpt>
      <trkpt lat="44.77572" lon="6.99869">
        <ele>2154</ele>
        <time>2022-01-08T10:30:23Z</time>
      </trkpt>
      <trkpt lat="44.77575" lon="6.99868">
        <ele>2154</ele>
        <time>2022-01-08T10:30:27Z</time>
      </trkpt>
      <trkpt lat="44.77577" lon="6.99867">
        <ele>2154</ele>
        <time>2022-01-08T10:30:30Z</time>
      </trkpt>
      <trkpt lat="44.77582" lon="6.99863">
        <ele>2156</ele>
        <time>2022-01-08T10:30:44Z</time>
      </trkpt>
      <trkpt lat="44.77586" lon="6.99863">
        <ele>2156</ele>
        <time>2022-01-08T10:30:48Z</time>
      </trkpt>
      <trkpt lat="44.7759" lon="6.99864">
        <ele>2157</ele>
        <time>2022-01-08T10:30:52Z</time>
      </trkpt>
      <trkpt lat="44.77592" lon="6.99866">
        <ele>2157</ele>
        <time>2022-01-08T10:30:55Z</time>
      </trkpt>
      <trkpt lat="44.77593" lon="6.99867">
        <ele>2157</ele>
        <time>2022-01-08T10:30:57Z</time>
      </trkpt>
      <trkpt lat="44.77594" lon="6.99869">
        <ele>2157</ele>
        <time>2022-01-08T10:31:00Z</time>
      </trkpt>
      <trkpt lat="44.77594" lon="6.99872">
        <ele>2158</ele>
        <time>2022-01-08T10:31:03Z</time>
      </trkpt>
      <trkpt lat="44.77593" lon="6.99873">
        <ele>2158</ele>
        <time>2022-01-08T10:31:05Z</time>
      </trkpt>
      <trkpt lat="44.77592" lon="6.99875">
        <ele>2159</ele>
        <time>2022-01-08T10:31:07Z</time>
      </trkpt>
      <trkpt lat="44.7759" lon="6.99876">
        <ele>2159</ele>
        <time>2022-01-08T10:31:10Z</time>
      </trkpt>
      <trkpt lat="44.77588" lon="6.99876">
        <ele>2160</ele>
        <time>2022-01-08T10:31:13Z</time>
      </trkpt>
      <trkpt lat="44.7759" lon="6.99878">
        <ele>2160</ele>
        <time>2022-01-08T10:31:20Z</time>
      </trkpt>
      <trkpt lat="44.77592" lon="6.99879">
        <ele>2160</ele>
        <time>2022-01-08T10:31:22Z</time>
      </trkpt>
      <trkpt lat="44.77596" lon="6.99882">
        <ele>2162</ele>
        <time>2022-01-08T10:31:26Z</time>
      </trkpt>
      <trkpt lat="44.77601" lon="6.99886">
        <ele>2164</ele>
        <time>2022-01-08T10:31:34Z</time>
      </trkpt>
      <trkpt lat="44.77603" lon="6.99887">
        <ele>2165</ele>
        <time>2022-01-08T10:31:39Z</time>
      </trkpt>
      <trkpt lat="44.77604" lon="6.99889">
        <ele>2164</ele>
        <time>2022-01-08T10:31:44Z</time>
      </trkpt>
      <trkpt lat="44.77606" lon="6.9989">
        <ele>2163</ele>
        <time>2022-01-08T10:31:49Z</time>
      </trkpt>
      <trkpt lat="44.77607" lon="6.9989">
        <ele>2163</ele>
        <time>2022-01-08T10:31:51Z</time>
      </trkpt>
      <trkpt lat="44.77609" lon="6.9989">
        <ele>2163</ele>
        <time>2022-01-08T10:31:55Z</time>
      </trkpt>
      <trkpt lat="44.77611" lon="6.99893">
        <ele>2163</ele>
        <time>2022-01-08T10:32:19Z</time>
      </trkpt>
      <trkpt lat="44.77616" lon="6.99894">
        <ele>2165</ele>
        <time>2022-01-08T10:32:24Z</time>
      </trkpt>
      <trkpt lat="44.77621" lon="6.99896">
        <ele>2167</ele>
        <time>2022-01-08T10:32:28Z</time>
      </trkpt>
      <trkpt lat="44.77625" lon="6.99897">
        <ele>2170</ele>
        <time>2022-01-08T10:32:32Z</time>
      </trkpt>
      <trkpt lat="44.77633" lon="6.99898">
        <ele>2175</ele>
        <time>2022-01-08T10:32:45Z</time>
      </trkpt>
      <trkpt lat="44.77634" lon="6.99897">
        <ele>2176</ele>
        <time>2022-01-08T10:32:49Z</time>
      </trkpt>
      <trkpt lat="44.77635" lon="6.99899">
        <ele>2176</ele>
        <time>2022-01-08T10:32:57Z</time>
      </trkpt>
      <trkpt lat="44.77634" lon="6.99902">
        <ele>2176</ele>
        <time>2022-01-08T10:32:59Z</time>
      </trkpt>
      <trkpt lat="44.77633" lon="6.99904">
        <ele>2176</ele>
        <time>2022-01-08T10:33:01Z</time>
      </trkpt>
      <trkpt lat="44.77631" lon="6.99908">
        <ele>2176</ele>
        <time>2022-01-08T10:33:06Z</time>
      </trkpt>
      <trkpt lat="44.77631" lon="6.99911">
        <ele>2177</ele>
        <time>2022-01-08T10:33:10Z</time>
      </trkpt>
      <trkpt lat="44.77632" lon="6.99913">
        <ele>2178</ele>
        <time>2022-01-08T10:33:14Z</time>
      </trkpt>
      <trkpt lat="44.77634" lon="6.99916">
        <ele>2179</ele>
        <time>2022-01-08T10:33:20Z</time>
      </trkpt>
      <trkpt lat="44.77636" lon="6.99917">
        <ele>2179</ele>
        <time>2022-01-08T10:33:23Z</time>
      </trkpt>
      <trkpt lat="44.77638" lon="6.99917">
        <ele>2180</ele>
        <time>2022-01-08T10:33:28Z</time>
      </trkpt>
      <trkpt lat="44.7764" lon="6.99917">
        <ele>2180</ele>
        <time>2022-01-08T10:33:30Z</time>
      </trkpt>
      <trkpt lat="44.77644" lon="6.99916">
        <ele>2181</ele>
        <time>2022-01-08T10:33:35Z</time>
      </trkpt>
      <trkpt lat="44.7765" lon="6.99918">
        <ele>2182</ele>
        <time>2022-01-08T10:33:46Z</time>
      </trkpt>
      <trkpt lat="44.77651" lon="6.99919">
        <ele>2183</ele>
        <time>2022-01-08T10:33:50Z</time>
      </trkpt>
      <trkpt lat="44.77652" lon="6.9992">
        <ele>2183</ele>
        <time>2022-01-08T10:33:53Z</time>
      </trkpt>
      <trkpt lat="44.77653" lon="6.99921">
        <ele>2184</ele>
        <time>2022-01-08T10:33:57Z</time>
      </trkpt>
      <trkpt lat="44.77655" lon="6.99923">
        <ele>2184</ele>
        <time>2022-01-08T10:34:00Z</time>
      </trkpt>
      <trkpt lat="44.77656" lon="6.99924">
        <ele>2184</ele>
        <time>2022-01-08T10:34:03Z</time>
      </trkpt>
      <trkpt lat="44.77665" lon="6.99922">
        <ele>2185</ele>
        <time>2022-01-08T10:34:13Z</time>
      </trkpt>
      <trkpt lat="44.77666" lon="6.99923">
        <ele>2186</ele>
        <time>2022-01-08T10:34:15Z</time>
      </trkpt>
      <trkpt lat="44.77672" lon="6.99923">
        <ele>2188</ele>
        <time>2022-01-08T10:34:22Z</time>
      </trkpt>
      <trkpt lat="44.77674" lon="6.99924">
        <ele>2188</ele>
        <time>2022-01-08T10:34:25Z</time>
      </trkpt>
      <trkpt lat="44.77675" lon="6.99925">
        <ele>2189</ele>
        <time>2022-01-08T10:34:28Z</time>
      </trkpt>
      <trkpt lat="44.77681" lon="6.99926">
        <ele>2191</ele>
        <time>2022-01-08T10:34:37Z</time>
      </trkpt>
      <trkpt lat="44.77683" lon="6.99926">
        <ele>2192</ele>
        <time>2022-01-08T10:34:40Z</time>
      </trkpt>
      <trkpt lat="44.77685" lon="6.99927">
        <ele>2193</ele>
        <time>2022-01-08T10:34:43Z</time>
      </trkpt>
      <trkpt lat="44.77688" lon="6.99928">
        <ele>2194</ele>
        <time>2022-01-08T10:34:46Z</time>
      </trkpt>
      <trkpt lat="44.77689" lon="6.99929">
        <ele>2196</ele>
        <time>2022-01-08T10:34:51Z</time>
      </trkpt>
      <trkpt lat="44.77694" lon="6.99931">
        <ele>2197</ele>
        <time>2022-01-08T10:35:00Z</time>
      </trkpt>
      <trkpt lat="44.77697" lon="6.99931">
        <ele>2198</ele>
        <time>2022-01-08T10:35:06Z</time>
      </trkpt>
      <trkpt lat="44.77704" lon="6.99932">
        <ele>2200</ele>
        <time>2022-01-08T10:35:21Z</time>
      </trkpt>
      <trkpt lat="44.77707" lon="6.99934">
        <ele>2202</ele>
        <time>2022-01-08T10:35:28Z</time>
      </trkpt>
      <trkpt lat="44.77713" lon="6.99936">
        <ele>2202</ele>
        <time>2022-01-08T10:35:38Z</time>
      </trkpt>
      <trkpt lat="44.77715" lon="6.99937">
        <ele>2202</ele>
        <time>2022-01-08T10:35:41Z</time>
      </trkpt>
      <trkpt lat="44.77721" lon="6.99939">
        <ele>2201</ele>
        <time>2022-01-08T10:35:50Z</time>
      </trkpt>
      <trkpt lat="44.77722" lon="6.9994">
        <ele>2201</ele>
        <time>2022-01-08T10:36:58Z</time>
      </trkpt>
      <trkpt lat="44.77724" lon="6.99942">
        <ele>2201</ele>
        <time>2022-01-08T10:37:04Z</time>
      </trkpt>
      <trkpt lat="44.77726" lon="6.99943">
        <ele>2201</ele>
        <time>2022-01-08T10:37:08Z</time>
      </trkpt>
      <trkpt lat="44.77731" lon="6.99949">
        <ele>2202</ele>
        <time>2022-01-08T10:37:15Z</time>
      </trkpt>
      <trkpt lat="44.77733" lon="6.9995">
        <ele>2203</ele>
        <time>2022-01-08T10:37:18Z</time>
      </trkpt>
      <trkpt lat="44.77735" lon="6.99953">
        <ele>2203</ele>
        <time>2022-01-08T10:37:21Z</time>
      </trkpt>
      <trkpt lat="44.77734" lon="6.99956">
        <ele>2203</ele>
        <time>2022-01-08T10:37:24Z</time>
      </trkpt>
      <trkpt lat="44.77734" lon="6.99961">
        <ele>2203</ele>
        <time>2022-01-08T10:37:27Z</time>
      </trkpt>
      <trkpt lat="44.77736" lon="6.99963">
        <ele>2204</ele>
        <time>2022-01-08T10:37:32Z</time>
      </trkpt>
      <trkpt lat="44.77738" lon="6.99963">
        <ele>2204</ele>
        <time>2022-01-08T10:37:35Z</time>
      </trkpt>
      <trkpt lat="44.77741" lon="6.99964">
        <ele>2203</ele>
        <time>2022-01-08T10:37:38Z</time>
      </trkpt>
      <trkpt lat="44.77749" lon="6.99969">
        <ele>2204</ele>
        <time>2022-01-08T10:37:49Z</time>
      </trkpt>
      <trkpt lat="44.77751" lon="6.99971">
        <ele>2204</ele>
        <time>2022-01-08T10:37:55Z</time>
      </trkpt>
      <trkpt lat="44.77751" lon="6.99977">
        <ele>2206</ele>
        <time>2022-01-08T10:38:03Z</time>
      </trkpt>
      <trkpt lat="44.77752" lon="6.9998">
        <ele>2207</ele>
        <time>2022-01-08T10:38:11Z</time>
      </trkpt>
      <trkpt lat="44.77752" lon="6.99983">
        <ele>2207</ele>
        <time>2022-01-08T10:38:14Z</time>
      </trkpt>
      <trkpt lat="44.77753" lon="6.99986">
        <ele>2209</ele>
        <time>2022-01-08T10:38:17Z</time>
      </trkpt>
      <trkpt lat="44.77753" lon="6.9999">
        <ele>2210</ele>
        <time>2022-01-08T10:38:23Z</time>
      </trkpt>
      <trkpt lat="44.77755" lon="6.99992">
        <ele>2211</ele>
        <time>2022-01-08T10:38:26Z</time>
      </trkpt>
      <trkpt lat="44.77756" lon="6.99995">
        <ele>2211</ele>
        <time>2022-01-08T10:38:29Z</time>
      </trkpt>
      <trkpt lat="44.7776" lon="7.00001">
        <ele>2213</ele>
        <time>2022-01-08T10:38:43Z</time>
      </trkpt>
      <trkpt lat="44.7776" lon="7.00004">
        <ele>2213</ele>
        <time>2022-01-08T10:38:46Z</time>
      </trkpt>
      <trkpt lat="44.77762" lon="7.00006">
        <ele>2214</ele>
        <time>2022-01-08T10:38:50Z</time>
      </trkpt>
      <trkpt lat="44.77765" lon="7.0001">
        <ele>2216</ele>
        <time>2022-01-08T10:38:58Z</time>
      </trkpt>
      <trkpt lat="44.77766" lon="7.00012">
        <ele>2217</ele>
        <time>2022-01-08T10:39:01Z</time>
      </trkpt>
      <trkpt lat="44.77768" lon="7.00014">
        <ele>2218</ele>
        <time>2022-01-08T10:39:04Z</time>
      </trkpt>
      <trkpt lat="44.77771" lon="7.00014">
        <ele>2218</ele>
        <time>2022-01-08T10:39:08Z</time>
      </trkpt>
      <trkpt lat="44.77773" lon="7.00014">
        <ele>2218</ele>
        <time>2022-01-08T10:39:11Z</time>
      </trkpt>
      <trkpt lat="44.77778" lon="7.00021">
        <ele>2220</ele>
        <time>2022-01-08T10:39:21Z</time>
      </trkpt>
      <trkpt lat="44.7778" lon="7.00022">
        <ele>2220</ele>
        <time>2022-01-08T10:39:26Z</time>
      </trkpt>
      <trkpt lat="44.77782" lon="7.00024">
        <ele>2221</ele>
        <time>2022-01-08T10:39:30Z</time>
      </trkpt>
      <trkpt lat="44.77783" lon="7.00026">
        <ele>2221</ele>
        <time>2022-01-08T10:39:34Z</time>
      </trkpt>
      <trkpt lat="44.77784" lon="7.00027">
        <ele>2220</ele>
        <time>2022-01-08T10:39:39Z</time>
      </trkpt>
      <trkpt lat="44.77785" lon="7.0003">
        <ele>2220</ele>
        <time>2022-01-08T10:39:43Z</time>
      </trkpt>
      <trkpt lat="44.77789" lon="7.00033">
        <ele>2219</ele>
        <time>2022-01-08T10:39:50Z</time>
      </trkpt>
      <trkpt lat="44.77793" lon="7.00036">
        <ele>2219</ele>
        <time>2022-01-08T10:39:55Z</time>
      </trkpt>
      <trkpt lat="44.77794" lon="7.00039">
        <ele>2219</ele>
        <time>2022-01-08T10:39:58Z</time>
      </trkpt>
      <trkpt lat="44.77796" lon="7.00039">
        <ele>2219</ele>
        <time>2022-01-08T10:40:01Z</time>
      </trkpt>
      <trkpt lat="44.77798" lon="7.0004">
        <ele>2220</ele>
        <time>2022-01-08T10:40:05Z</time>
      </trkpt>
      <trkpt lat="44.778" lon="7.00042">
        <ele>2221</ele>
        <time>2022-01-08T10:40:10Z</time>
      </trkpt>
      <trkpt lat="44.77806" lon="7.00045">
        <ele>2221</ele>
        <time>2022-01-08T10:40:21Z</time>
      </trkpt>
      <trkpt lat="44.77809" lon="7.00047">
        <ele>2222</ele>
        <time>2022-01-08T10:40:24Z</time>
      </trkpt>
      <trkpt lat="44.77811" lon="7.00047">
        <ele>2222</ele>
        <time>2022-01-08T10:40:27Z</time>
      </trkpt>
      <trkpt lat="44.77814" lon="7.00047">
        <ele>2222</ele>
        <time>2022-01-08T10:40:29Z</time>
      </trkpt>
      <trkpt lat="44.77813" lon="7.0005">
        <ele>2222</ele>
        <time>2022-01-08T10:40:31Z</time>
      </trkpt>
      <trkpt lat="44.77817" lon="7.00053">
        <ele>2224</ele>
        <time>2022-01-08T10:40:41Z</time>
      </trkpt>
      <trkpt lat="44.77819" lon="7.00058">
        <ele>2226</ele>
        <time>2022-01-08T10:40:49Z</time>
      </trkpt>
      <trkpt lat="44.77821" lon="7.00059">
        <ele>2226</ele>
        <time>2022-01-08T10:40:51Z</time>
      </trkpt>
      <trkpt lat="44.77823" lon="7.00059">
        <ele>2227</ele>
        <time>2022-01-08T10:40:53Z</time>
      </trkpt>
      <trkpt lat="44.77825" lon="7.00059">
        <ele>2227</ele>
        <time>2022-01-08T10:40:56Z</time>
      </trkpt>
      <trkpt lat="44.77827" lon="7.00059">
        <ele>2228</ele>
        <time>2022-01-08T10:40:58Z</time>
      </trkpt>
      <trkpt lat="44.77829" lon="7.0006">
        <ele>2228</ele>
        <time>2022-01-08T10:41:02Z</time>
      </trkpt>
      <trkpt lat="44.77832" lon="7.00069">
        <ele>2229</ele>
        <time>2022-01-08T10:41:14Z</time>
      </trkpt>
      <trkpt lat="44.77834" lon="7.0007">
        <ele>2229</ele>
        <time>2022-01-08T10:41:17Z</time>
      </trkpt>
      <trkpt lat="44.77836" lon="7.00072">
        <ele>2230</ele>
        <time>2022-01-08T10:41:22Z</time>
      </trkpt>
      <trkpt lat="44.77838" lon="7.00073">
        <ele>2231</ele>
        <time>2022-01-08T10:41:29Z</time>
      </trkpt>
      <trkpt lat="44.77841" lon="7.00072">
        <ele>2233</ele>
        <time>2022-01-08T10:41:33Z</time>
      </trkpt>
      <trkpt lat="44.77846" lon="7.00075">
        <ele>2235</ele>
        <time>2022-01-08T10:41:41Z</time>
      </trkpt>
      <trkpt lat="44.77847" lon="7.00078">
        <ele>2235</ele>
        <time>2022-01-08T10:41:44Z</time>
      </trkpt>
      <trkpt lat="44.77847" lon="7.00081">
        <ele>2235</ele>
        <time>2022-01-08T10:41:50Z</time>
      </trkpt>
      <trkpt lat="44.77849" lon="7.00083">
        <ele>2234</ele>
        <time>2022-01-08T10:41:56Z</time>
      </trkpt>
      <trkpt lat="44.77851" lon="7.00083">
        <ele>2234</ele>
        <time>2022-01-08T10:42:00Z</time>
      </trkpt>
      <trkpt lat="44.77853" lon="7.00082">
        <ele>2235</ele>
        <time>2022-01-08T10:42:07Z</time>
      </trkpt>
      <trkpt lat="44.77857" lon="7.00079">
        <ele>2236</ele>
        <time>2022-01-08T10:42:15Z</time>
      </trkpt>
      <trkpt lat="44.7786" lon="7.00077">
        <ele>2238</ele>
        <time>2022-01-08T10:42:23Z</time>
      </trkpt>
      <trkpt lat="44.77863" lon="7.00076">
        <ele>2239</ele>
        <time>2022-01-08T10:42:26Z</time>
      </trkpt>
      <trkpt lat="44.77865" lon="7.00078">
        <ele>2240</ele>
        <time>2022-01-08T10:42:29Z</time>
      </trkpt>
      <trkpt lat="44.77867" lon="7.00076">
        <ele>2241</ele>
        <time>2022-01-08T10:42:34Z</time>
      </trkpt>
      <trkpt lat="44.77869" lon="7.00071">
        <ele>2242</ele>
        <time>2022-01-08T10:42:41Z</time>
      </trkpt>
      <trkpt lat="44.7787" lon="7.00069">
        <ele>2243</ele>
        <time>2022-01-08T10:42:45Z</time>
      </trkpt>
      <trkpt lat="44.77875" lon="7.00067">
        <ele>2245</ele>
        <time>2022-01-08T10:42:54Z</time>
      </trkpt>
      <trkpt lat="44.77876" lon="7.00066">
        <ele>2245</ele>
        <time>2022-01-08T10:42:59Z</time>
      </trkpt>
      <trkpt lat="44.77877" lon="7.00063">
        <ele>2244</ele>
        <time>2022-01-08T10:43:02Z</time>
      </trkpt>
      <trkpt lat="44.77877" lon="7.0006">
        <ele>2243</ele>
        <time>2022-01-08T10:43:06Z</time>
      </trkpt>
      <trkpt lat="44.77877" lon="7.00057">
        <ele>2243</ele>
        <time>2022-01-08T10:43:09Z</time>
      </trkpt>
      <trkpt lat="44.77877" lon="7.00053">
        <ele>2243</ele>
        <time>2022-01-08T10:43:15Z</time>
      </trkpt>
      <trkpt lat="44.77878" lon="7.00052">
        <ele>2244</ele>
        <time>2022-01-08T10:43:18Z</time>
      </trkpt>
      <trkpt lat="44.77881" lon="7.00052">
        <ele>2244</ele>
        <time>2022-01-08T10:43:22Z</time>
      </trkpt>
      <trkpt lat="44.77883" lon="7.00053">
        <ele>2245</ele>
        <time>2022-01-08T10:43:24Z</time>
      </trkpt>
      <trkpt lat="44.77885" lon="7.00053">
        <ele>2245</ele>
        <time>2022-01-08T10:43:26Z</time>
      </trkpt>
      <trkpt lat="44.77893" lon="7.00055">
        <ele>2250</ele>
        <time>2022-01-08T10:43:38Z</time>
      </trkpt>
      <trkpt lat="44.77898" lon="7.00056">
        <ele>2252</ele>
        <time>2022-01-08T10:43:42Z</time>
      </trkpt>
      <trkpt lat="44.779" lon="7.00056">
        <ele>2254</ele>
        <time>2022-01-08T10:43:45Z</time>
      </trkpt>
      <trkpt lat="44.77902" lon="7.00056">
        <ele>2255</ele>
        <time>2022-01-08T10:43:48Z</time>
      </trkpt>
      <trkpt lat="44.77905" lon="7.00057">
        <ele>2256</ele>
        <time>2022-01-08T10:43:52Z</time>
      </trkpt>
      <trkpt lat="44.77906" lon="7.00056">
        <ele>2258</ele>
        <time>2022-01-08T10:43:56Z</time>
      </trkpt>
      <trkpt lat="44.77911" lon="7.00057">
        <ele>2257</ele>
        <time>2022-01-08T10:44:05Z</time>
      </trkpt>
      <trkpt lat="44.77912" lon="7.00059">
        <ele>2256</ele>
        <time>2022-01-08T10:44:08Z</time>
      </trkpt>
      <trkpt lat="44.77916" lon="7.00064">
        <ele>2254</ele>
        <time>2022-01-08T10:44:15Z</time>
      </trkpt>
      <trkpt lat="44.77917" lon="7.00067">
        <ele>2252</ele>
        <time>2022-01-08T10:44:19Z</time>
      </trkpt>
      <trkpt lat="44.77916" lon="7.00069">
        <ele>2252</ele>
        <time>2022-01-08T10:44:24Z</time>
      </trkpt>
      <trkpt lat="44.77915" lon="7.00071">
        <ele>2253</ele>
        <time>2022-01-08T10:44:30Z</time>
      </trkpt>
      <trkpt lat="44.77913" lon="7.00073">
        <ele>2253</ele>
        <time>2022-01-08T10:44:33Z</time>
      </trkpt>
      <trkpt lat="44.7791" lon="7.00076">
        <ele>2254</ele>
        <time>2022-01-08T10:44:38Z</time>
      </trkpt>
      <trkpt lat="44.77911" lon="7.00078">
        <ele>2257</ele>
        <time>2022-01-08T10:45:01Z</time>
      </trkpt>
      <trkpt lat="44.77913" lon="7.00079">
        <ele>2258</ele>
        <time>2022-01-08T10:45:05Z</time>
      </trkpt>
      <trkpt lat="44.77915" lon="7.00081">
        <ele>2260</ele>
        <time>2022-01-08T10:45:09Z</time>
      </trkpt>
      <trkpt lat="44.77916" lon="7.00083">
        <ele>2263</ele>
        <time>2022-01-08T10:45:18Z</time>
      </trkpt>
      <trkpt lat="44.77916" lon="7.0008">
        <ele>2264</ele>
        <time>2022-01-08T10:45:26Z</time>
      </trkpt>
      <trkpt lat="44.77918" lon="7.00081">
        <ele>2265</ele>
        <time>2022-01-08T10:45:30Z</time>
      </trkpt>
      <trkpt lat="44.7792" lon="7.00083">
        <ele>2268</ele>
        <time>2022-01-08T10:45:36Z</time>
      </trkpt>
      <trkpt lat="44.77923" lon="7.00083">
        <ele>2270</ele>
        <time>2022-01-08T10:45:39Z</time>
      </trkpt>
      <trkpt lat="44.77925" lon="7.00083">
        <ele>2272</ele>
        <time>2022-01-08T10:45:42Z</time>
      </trkpt>
      <trkpt lat="44.77928" lon="7.00086">
        <ele>2272</ele>
        <time>2022-01-08T10:45:47Z</time>
      </trkpt>
      <trkpt lat="44.77931" lon="7.00088">
        <ele>2272</ele>
        <time>2022-01-08T10:45:52Z</time>
      </trkpt>
      <trkpt lat="44.77933" lon="7.00088">
        <ele>2273</ele>
        <time>2022-01-08T10:45:55Z</time>
      </trkpt>
      <trkpt lat="44.77935" lon="7.0009">
        <ele>2274</ele>
        <time>2022-01-08T10:45:58Z</time>
      </trkpt>
      <trkpt lat="44.77936" lon="7.00093">
        <ele>2276</ele>
        <time>2022-01-08T10:46:05Z</time>
      </trkpt>
      <trkpt lat="44.77937" lon="7.00096">
        <ele>2277</ele>
        <time>2022-01-08T10:46:08Z</time>
      </trkpt>
      <trkpt lat="44.77938" lon="7.00098">
        <ele>2277</ele>
        <time>2022-01-08T10:46:10Z</time>
      </trkpt>
      <trkpt lat="44.7794" lon="7.00098">
        <ele>2277</ele>
        <time>2022-01-08T10:46:13Z</time>
      </trkpt>
      <trkpt lat="44.77941" lon="7.00096">
        <ele>2277</ele>
        <time>2022-01-08T10:46:15Z</time>
      </trkpt>
      <trkpt lat="44.77943" lon="7.00094">
        <ele>2278</ele>
        <time>2022-01-08T10:46:18Z</time>
      </trkpt>
      <trkpt lat="44.77945" lon="7.00094">
        <ele>2278</ele>
        <time>2022-01-08T10:46:21Z</time>
      </trkpt>
      <trkpt lat="44.77946" lon="7.00097">
        <ele>2279</ele>
        <time>2022-01-08T10:46:27Z</time>
      </trkpt>
      <trkpt lat="44.77946" lon="7.001">
        <ele>2279</ele>
        <time>2022-01-08T10:46:30Z</time>
      </trkpt>
      <trkpt lat="44.77944" lon="7.00108">
        <ele>2280</ele>
        <time>2022-01-08T10:46:37Z</time>
      </trkpt>
      <trkpt lat="44.77946" lon="7.00109">
        <ele>2281</ele>
        <time>2022-01-08T10:46:44Z</time>
      </trkpt>
      <trkpt lat="44.77955" lon="7.00115">
        <ele>2281</ele>
        <time>2022-01-08T10:46:58Z</time>
      </trkpt>
      <trkpt lat="44.77956" lon="7.00116">
        <ele>2281</ele>
        <time>2022-01-08T10:47:01Z</time>
      </trkpt>
      <trkpt lat="44.77958" lon="7.00118">
        <ele>2281</ele>
        <time>2022-01-08T10:47:04Z</time>
      </trkpt>
      <trkpt lat="44.7796" lon="7.00119">
        <ele>2282</ele>
        <time>2022-01-08T10:47:08Z</time>
      </trkpt>
      <trkpt lat="44.77964" lon="7.00123">
        <ele>2283</ele>
        <time>2022-01-08T10:47:14Z</time>
      </trkpt>
      <trkpt lat="44.77966" lon="7.00123">
        <ele>2283</ele>
        <time>2022-01-08T10:47:19Z</time>
      </trkpt>
      <trkpt lat="44.77968" lon="7.00124">
        <ele>2283</ele>
        <time>2022-01-08T10:47:22Z</time>
      </trkpt>
      <trkpt lat="44.77972" lon="7.00125">
        <ele>2283</ele>
        <time>2022-01-08T10:47:30Z</time>
      </trkpt>
      <trkpt lat="44.77975" lon="7.00123">
        <ele>2283</ele>
        <time>2022-01-08T10:47:36Z</time>
      </trkpt>
      <trkpt lat="44.77977" lon="7.00126">
        <ele>2283</ele>
        <time>2022-01-08T10:47:40Z</time>
      </trkpt>
      <trkpt lat="44.77977" lon="7.00128">
        <ele>2284</ele>
        <time>2022-01-08T10:47:43Z</time>
      </trkpt>
      <trkpt lat="44.77979" lon="7.0013">
        <ele>2284</ele>
        <time>2022-01-08T10:47:46Z</time>
      </trkpt>
      <trkpt lat="44.7798" lon="7.00132">
        <ele>2285</ele>
        <time>2022-01-08T10:47:49Z</time>
      </trkpt>
      <trkpt lat="44.77984" lon="7.0013">
        <ele>2285</ele>
        <time>2022-01-08T10:47:54Z</time>
      </trkpt>
      <trkpt lat="44.77987" lon="7.0013">
        <ele>2286</ele>
        <time>2022-01-08T10:48:03Z</time>
      </trkpt>
      <trkpt lat="44.77996" lon="7.00139">
        <ele>2287</ele>
        <time>2022-01-08T10:48:18Z</time>
      </trkpt>
      <trkpt lat="44.77998" lon="7.00139">
        <ele>2288</ele>
        <time>2022-01-08T10:48:21Z</time>
      </trkpt>
      <trkpt lat="44.78001" lon="7.00143">
        <ele>2289</ele>
        <time>2022-01-08T10:48:28Z</time>
      </trkpt>
      <trkpt lat="44.78004" lon="7.00147">
        <ele>2290</ele>
        <time>2022-01-08T10:48:35Z</time>
      </trkpt>
      <trkpt lat="44.78007" lon="7.00153">
        <ele>2291</ele>
        <time>2022-01-08T10:48:42Z</time>
      </trkpt>
      <trkpt lat="44.78009" lon="7.00158">
        <ele>2293</ele>
        <time>2022-01-08T10:48:47Z</time>
      </trkpt>
      <trkpt lat="44.78012" lon="7.0016">
        <ele>2295</ele>
        <time>2022-01-08T10:48:51Z</time>
      </trkpt>
      <trkpt lat="44.78017" lon="7.00162">
        <ele>2297</ele>
        <time>2022-01-08T10:48:56Z</time>
      </trkpt>
      <trkpt lat="44.78018" lon="7.00161">
        <ele>2298</ele>
        <time>2022-01-08T10:48:58Z</time>
      </trkpt>
      <trkpt lat="44.78021" lon="7.00157">
        <ele>2300</ele>
        <time>2022-01-08T10:49:02Z</time>
      </trkpt>
      <trkpt lat="44.78022" lon="7.00154">
        <ele>2301</ele>
        <time>2022-01-08T10:49:04Z</time>
      </trkpt>
      <trkpt lat="44.78023" lon="7.00153">
        <ele>2301</ele>
        <time>2022-01-08T10:49:13Z</time>
      </trkpt>
      <trkpt lat="44.78025" lon="7.00153">
        <ele>2301</ele>
        <time>2022-01-08T10:49:16Z</time>
      </trkpt>
      <trkpt lat="44.78026" lon="7.00152">
        <ele>2300</ele>
        <time>2022-01-08T10:49:20Z</time>
      </trkpt>
      <trkpt lat="44.78036" lon="7.00151">
        <ele>2299</ele>
        <time>2022-01-08T10:49:31Z</time>
      </trkpt>
      <trkpt lat="44.7804" lon="7.00153">
        <ele>2300</ele>
        <time>2022-01-08T10:49:35Z</time>
      </trkpt>
      <trkpt lat="44.78042" lon="7.00152">
        <ele>2300</ele>
        <time>2022-01-08T10:49:37Z</time>
      </trkpt>
      <trkpt lat="44.78044" lon="7.00152">
        <ele>2301</ele>
        <time>2022-01-08T10:49:39Z</time>
      </trkpt>
      <trkpt lat="44.78047" lon="7.00151">
        <ele>2302</ele>
        <time>2022-01-08T10:49:46Z</time>
      </trkpt>
      <trkpt lat="44.78049" lon="7.00149">
        <ele>2303</ele>
        <time>2022-01-08T10:49:49Z</time>
      </trkpt>
      <trkpt lat="44.78051" lon="7.00149">
        <ele>2303</ele>
        <time>2022-01-08T10:49:52Z</time>
      </trkpt>
      <trkpt lat="44.78053" lon="7.00148">
        <ele>2304</ele>
        <time>2022-01-08T10:49:55Z</time>
      </trkpt>
      <trkpt lat="44.78057" lon="7.00147">
        <ele>2304</ele>
        <time>2022-01-08T10:50:00Z</time>
      </trkpt>
      <trkpt lat="44.78059" lon="7.00147">
        <ele>2304</ele>
        <time>2022-01-08T10:50:02Z</time>
      </trkpt>
      <trkpt lat="44.78062" lon="7.00145">
        <ele>2304</ele>
        <time>2022-01-08T10:50:06Z</time>
      </trkpt>
      <trkpt lat="44.78064" lon="7.00144">
        <ele>2304</ele>
        <time>2022-01-08T10:50:09Z</time>
      </trkpt>
      <trkpt lat="44.78066" lon="7.00144">
        <ele>2304</ele>
        <time>2022-01-08T10:50:11Z</time>
      </trkpt>
      <trkpt lat="44.78068" lon="7.00143">
        <ele>2305</ele>
        <time>2022-01-08T10:50:13Z</time>
      </trkpt>
      <trkpt lat="44.7807" lon="7.00143">
        <ele>2305</ele>
        <time>2022-01-08T10:50:16Z</time>
      </trkpt>
      <trkpt lat="44.78072" lon="7.00143">
        <ele>2305</ele>
        <time>2022-01-08T10:50:18Z</time>
      </trkpt>
      <trkpt lat="44.78074" lon="7.00142">
        <ele>2305</ele>
        <time>2022-01-08T10:50:20Z</time>
      </trkpt>
      <trkpt lat="44.78076" lon="7.00142">
        <ele>2306</ele>
        <time>2022-01-08T10:50:22Z</time>
      </trkpt>
      <trkpt lat="44.78078" lon="7.00142">
        <ele>2306</ele>
        <time>2022-01-08T10:50:25Z</time>
      </trkpt>
      <trkpt lat="44.78082" lon="7.00141">
        <ele>2306</ele>
        <time>2022-01-08T10:50:30Z</time>
      </trkpt>
      <trkpt lat="44.78086" lon="7.00142">
        <ele>2306</ele>
        <time>2022-01-08T10:50:34Z</time>
      </trkpt>
      <trkpt lat="44.7809" lon="7.00141">
        <ele>2306</ele>
        <time>2022-01-08T10:50:38Z</time>
      </trkpt>
      <trkpt lat="44.78092" lon="7.0014">
        <ele>2306</ele>
        <time>2022-01-08T10:50:40Z</time>
      </trkpt>
      <trkpt lat="44.78095" lon="7.00137">
        <ele>2306</ele>
        <time>2022-01-08T10:50:46Z</time>
      </trkpt>
      <trkpt lat="44.78097" lon="7.00134">
        <ele>2307</ele>
        <time>2022-01-08T10:50:49Z</time>
      </trkpt>
      <trkpt lat="44.78097" lon="7.00132">
        <ele>2307</ele>
        <time>2022-01-08T10:50:52Z</time>
      </trkpt>
      <trkpt lat="44.78099" lon="7.0013">
        <ele>2308</ele>
        <time>2022-01-08T10:50:55Z</time>
      </trkpt>
      <trkpt lat="44.781" lon="7.00128">
        <ele>2308</ele>
        <time>2022-01-08T10:50:57Z</time>
      </trkpt>
      <trkpt lat="44.78106" lon="7.0012">
        <ele>2310</ele>
        <time>2022-01-08T10:51:08Z</time>
      </trkpt>
      <trkpt lat="44.78108" lon="7.00119">
        <ele>2310</ele>
        <time>2022-01-08T10:51:12Z</time>
      </trkpt>
      <trkpt lat="44.7811" lon="7.00116">
        <ele>2310</ele>
        <time>2022-01-08T10:51:15Z</time>
      </trkpt>
      <trkpt lat="44.78112" lon="7.00116">
        <ele>2310</ele>
        <time>2022-01-08T10:51:18Z</time>
      </trkpt>
      <trkpt lat="44.78113" lon="7.00115">
        <ele>2311</ele>
        <time>2022-01-08T10:51:21Z</time>
      </trkpt>
      <trkpt lat="44.78115" lon="7.00113">
        <ele>2312</ele>
        <time>2022-01-08T10:51:26Z</time>
      </trkpt>
      <trkpt lat="44.78116" lon="7.0011">
        <ele>2313</ele>
        <time>2022-01-08T10:51:29Z</time>
      </trkpt>
      <trkpt lat="44.78118" lon="7.00107">
        <ele>2317</ele>
        <time>2022-01-08T10:51:36Z</time>
      </trkpt>
      <trkpt lat="44.78123" lon="7.00101">
        <ele>2320</ele>
        <time>2022-01-08T10:51:49Z</time>
      </trkpt>
      <trkpt lat="44.78125" lon="7.001">
        <ele>2321</ele>
        <time>2022-01-08T10:51:52Z</time>
      </trkpt>
      <trkpt lat="44.78127" lon="7.00099">
        <ele>2321</ele>
        <time>2022-01-08T10:51:55Z</time>
      </trkpt>
      <trkpt lat="44.78128" lon="7.00097">
        <ele>2322</ele>
        <time>2022-01-08T10:51:58Z</time>
      </trkpt>
      <trkpt lat="44.78132" lon="7.00095">
        <ele>2322</ele>
        <time>2022-01-08T10:52:03Z</time>
      </trkpt>
      <trkpt lat="44.78135" lon="7.00091">
        <ele>2323</ele>
        <time>2022-01-08T10:52:10Z</time>
      </trkpt>
      <trkpt lat="44.78137" lon="7.00092">
        <ele>2324</ele>
        <time>2022-01-08T10:52:13Z</time>
      </trkpt>
      <trkpt lat="44.78139" lon="7.00093">
        <ele>2325</ele>
        <time>2022-01-08T10:52:16Z</time>
      </trkpt>
      <trkpt lat="44.78141" lon="7.00093">
        <ele>2325</ele>
        <time>2022-01-08T10:52:19Z</time>
      </trkpt>
      <trkpt lat="44.78146" lon="7.00091">
        <ele>2326</ele>
        <time>2022-01-08T10:52:27Z</time>
      </trkpt>
      <trkpt lat="44.78148" lon="7.00091">
        <ele>2326</ele>
        <time>2022-01-08T10:52:30Z</time>
      </trkpt>
      <trkpt lat="44.7815" lon="7.00088">
        <ele>2326</ele>
        <time>2022-01-08T10:52:39Z</time>
      </trkpt>
      <trkpt lat="44.78152" lon="7.00088">
        <ele>2326</ele>
        <time>2022-01-08T10:52:43Z</time>
      </trkpt>
      <trkpt lat="44.78156" lon="7.00088">
        <ele>2326</ele>
        <time>2022-01-08T10:52:49Z</time>
      </trkpt>
      <trkpt lat="44.78161" lon="7.00089">
        <ele>2327</ele>
        <time>2022-01-08T10:52:56Z</time>
      </trkpt>
      <trkpt lat="44.78162" lon="7.0009">
        <ele>2327</ele>
        <time>2022-01-08T10:52:58Z</time>
      </trkpt>
      <trkpt lat="44.78164" lon="7.00089">
        <ele>2328</ele>
        <time>2022-01-08T10:53:00Z</time>
      </trkpt>
      <trkpt lat="44.78168" lon="7.00088">
        <ele>2328</ele>
        <time>2022-01-08T10:53:05Z</time>
      </trkpt>
      <trkpt lat="44.7817" lon="7.00089">
        <ele>2328</ele>
        <time>2022-01-08T10:53:08Z</time>
      </trkpt>
      <trkpt lat="44.78172" lon="7.00089">
        <ele>2329</ele>
        <time>2022-01-08T10:53:11Z</time>
      </trkpt>
      <trkpt lat="44.78176" lon="7.00086">
        <ele>2329</ele>
        <time>2022-01-08T10:53:18Z</time>
      </trkpt>
      <trkpt lat="44.78179" lon="7.00083">
        <ele>2329</ele>
        <time>2022-01-08T10:53:25Z</time>
      </trkpt>
      <trkpt lat="44.7818" lon="7.00082">
        <ele>2329</ele>
        <time>2022-01-08T10:53:30Z</time>
      </trkpt>
      <trkpt lat="44.78185" lon="7.00082">
        <ele>2328</ele>
        <time>2022-01-08T10:53:40Z</time>
      </trkpt>
      <trkpt lat="44.78187" lon="7.00083">
        <ele>2328</ele>
        <time>2022-01-08T10:53:43Z</time>
      </trkpt>
      <trkpt lat="44.78193" lon="7.00086">
        <ele>2327</ele>
        <time>2022-01-08T10:53:52Z</time>
      </trkpt>
      <trkpt lat="44.78196" lon="7.00087">
        <ele>2327</ele>
        <time>2022-01-08T10:53:55Z</time>
      </trkpt>
      <trkpt lat="44.78202" lon="7.00092">
        <ele>2326</ele>
        <time>2022-01-08T10:54:03Z</time>
      </trkpt>
      <trkpt lat="44.78204" lon="7.00094">
        <ele>2327</ele>
        <time>2022-01-08T10:54:06Z</time>
      </trkpt>
      <trkpt lat="44.78206" lon="7.00095">
        <ele>2328</ele>
        <time>2022-01-08T10:54:09Z</time>
      </trkpt>
      <trkpt lat="44.78208" lon="7.00097">
        <ele>2330</ele>
        <time>2022-01-08T10:54:12Z</time>
      </trkpt>
      <trkpt lat="44.78208" lon="7.00098">
        <ele>2332</ele>
        <time>2022-01-08T10:54:24Z</time>
      </trkpt>
      <trkpt lat="44.78213" lon="7.00097">
        <ele>2335</ele>
        <time>2022-01-08T10:54:35Z</time>
      </trkpt>
      <trkpt lat="44.78221" lon="7.00096">
        <ele>2336</ele>
        <time>2022-01-08T10:54:44Z</time>
      </trkpt>
      <trkpt lat="44.78225" lon="7.00098">
        <ele>2336</ele>
        <time>2022-01-08T10:54:49Z</time>
      </trkpt>
      <trkpt lat="44.7823" lon="7.00101">
        <ele>2338</ele>
        <time>2022-01-08T10:54:54Z</time>
      </trkpt>
      <trkpt lat="44.78231" lon="7.00104">
        <ele>2339</ele>
        <time>2022-01-08T10:54:56Z</time>
      </trkpt>
      <trkpt lat="44.78233" lon="7.00104">
        <ele>2339</ele>
        <time>2022-01-08T10:55:01Z</time>
      </trkpt>
      <trkpt lat="44.78234" lon="7.00108">
        <ele>2340</ele>
        <time>2022-01-08T10:55:04Z</time>
      </trkpt>
      <trkpt lat="44.78234" lon="7.00111">
        <ele>2340</ele>
        <time>2022-01-08T10:55:08Z</time>
      </trkpt>
      <trkpt lat="44.78236" lon="7.00113">
        <ele>2340</ele>
        <time>2022-01-08T10:55:12Z</time>
      </trkpt>
      <trkpt lat="44.78239" lon="7.00112">
        <ele>2339</ele>
        <time>2022-01-08T10:55:15Z</time>
      </trkpt>
      <trkpt lat="44.7824" lon="7.00116">
        <ele>2340</ele>
        <time>2022-01-08T10:55:21Z</time>
      </trkpt>
      <trkpt lat="44.78242" lon="7.00116">
        <ele>2340</ele>
        <time>2022-01-08T10:55:24Z</time>
      </trkpt>
      <trkpt lat="44.78245" lon="7.00118">
        <ele>2341</ele>
        <time>2022-01-08T10:55:28Z</time>
      </trkpt>
      <trkpt lat="44.78254" lon="7.00122">
        <ele>2343</ele>
        <time>2022-01-08T10:55:39Z</time>
      </trkpt>
      <trkpt lat="44.78259" lon="7.00122">
        <ele>2344</ele>
        <time>2022-01-08T10:55:43Z</time>
      </trkpt>
      <trkpt lat="44.78261" lon="7.00123">
        <ele>2344</ele>
        <time>2022-01-08T10:55:46Z</time>
      </trkpt>
      <trkpt lat="44.78263" lon="7.00124">
        <ele>2344</ele>
        <time>2022-01-08T10:55:49Z</time>
      </trkpt>
      <trkpt lat="44.78269" lon="7.0012">
        <ele>2345</ele>
        <time>2022-01-08T10:56:01Z</time>
      </trkpt>
      <trkpt lat="44.78273" lon="7.00118">
        <ele>2345</ele>
        <time>2022-01-08T10:56:03Z</time>
      </trkpt>
      <trkpt lat="44.78275" lon="7.00117">
        <ele>2346</ele>
        <time>2022-01-08T10:56:05Z</time>
      </trkpt>
      <trkpt lat="44.78277" lon="7.00115">
        <ele>2347</ele>
        <time>2022-01-08T10:56:08Z</time>
      </trkpt>
      <trkpt lat="44.78287" lon="7.00114">
        <ele>2348</ele>
        <time>2022-01-08T10:56:21Z</time>
      </trkpt>
      <trkpt lat="44.78291" lon="7.00115">
        <ele>2348</ele>
        <time>2022-01-08T10:56:24Z</time>
      </trkpt>
      <trkpt lat="44.78293" lon="7.00115">
        <ele>2349</ele>
        <time>2022-01-08T10:56:28Z</time>
      </trkpt>
      <trkpt lat="44.78295" lon="7.00112">
        <ele>2350</ele>
        <time>2022-01-08T10:56:33Z</time>
      </trkpt>
      <trkpt lat="44.78297" lon="7.00112">
        <ele>2352</ele>
        <time>2022-01-08T10:56:36Z</time>
      </trkpt>
      <trkpt lat="44.78301" lon="7.00111">
        <ele>2355</ele>
        <time>2022-01-08T10:56:42Z</time>
      </trkpt>
      <trkpt lat="44.78303" lon="7.00111">
        <ele>2355</ele>
        <time>2022-01-08T10:56:44Z</time>
      </trkpt>
      <trkpt lat="44.78308" lon="7.0011">
        <ele>2357</ele>
        <time>2022-01-08T10:56:49Z</time>
      </trkpt>
      <trkpt lat="44.78315" lon="7.00105">
        <ele>2360</ele>
        <time>2022-01-08T10:56:57Z</time>
      </trkpt>
      <trkpt lat="44.78319" lon="7.00104">
        <ele>2360</ele>
        <time>2022-01-08T10:57:05Z</time>
      </trkpt>
      <trkpt lat="44.78321" lon="7.00102">
        <ele>2360</ele>
        <time>2022-01-08T10:57:09Z</time>
      </trkpt>
      <trkpt lat="44.78323" lon="7.00103">
        <ele>2361</ele>
        <time>2022-01-08T10:57:14Z</time>
      </trkpt>
      <trkpt lat="44.78326" lon="7.00103">
        <ele>2364</ele>
        <time>2022-01-08T10:57:17Z</time>
      </trkpt>
      <trkpt lat="44.78334" lon="7.00104">
        <ele>2373</ele>
        <time>2022-01-08T10:57:32Z</time>
      </trkpt>
      <trkpt lat="44.78336" lon="7.00104">
        <ele>2371</ele>
        <time>2022-01-08T10:57:35Z</time>
      </trkpt>
      <trkpt lat="44.78338" lon="7.00104">
        <ele>2371</ele>
        <time>2022-01-08T10:57:38Z</time>
      </trkpt>
      <trkpt lat="44.7834" lon="7.00103">
        <ele>2369</ele>
        <time>2022-01-08T10:57:41Z</time>
      </trkpt>
      <trkpt lat="44.78343" lon="7.00101">
        <ele>2370</ele>
        <time>2022-01-08T10:57:47Z</time>
      </trkpt>
      <trkpt lat="44.78344" lon="7.001">
        <ele>2371</ele>
        <time>2022-01-08T10:57:52Z</time>
      </trkpt>
      <trkpt lat="44.78346" lon="7.00099">
        <ele>2372</ele>
        <time>2022-01-08T10:57:56Z</time>
      </trkpt>
      <trkpt lat="44.78351" lon="7.00099">
        <ele>2373</ele>
        <time>2022-01-08T10:58:10Z</time>
      </trkpt>
      <trkpt lat="44.78353" lon="7.00097">
        <ele>2373</ele>
        <time>2022-01-08T10:58:16Z</time>
      </trkpt>
      <trkpt lat="44.78355" lon="7.00097">
        <ele>2373</ele>
        <time>2022-01-08T10:58:22Z</time>
      </trkpt>
      <trkpt lat="44.78357" lon="7.00096">
        <ele>2373</ele>
        <time>2022-01-08T10:58:27Z</time>
      </trkpt>
      <trkpt lat="44.78359" lon="7.00095">
        <ele>2373</ele>
        <time>2022-01-08T10:58:31Z</time>
      </trkpt>
      <trkpt lat="44.78362" lon="7.00096">
        <ele>2372</ele>
        <time>2022-01-08T10:58:40Z</time>
      </trkpt>
      <trkpt lat="44.78364" lon="7.00096">
        <ele>2371</ele>
        <time>2022-01-08T10:58:43Z</time>
      </trkpt>
      <trkpt lat="44.78368" lon="7.00093">
        <ele>2369</ele>
        <time>2022-01-08T10:58:53Z</time>
      </trkpt>
      <trkpt lat="44.78367" lon="7.00096">
        <ele>2369</ele>
        <time>2022-01-08T10:58:58Z</time>
      </trkpt>
      <trkpt lat="44.78367" lon="7.00099">
        <ele>2369</ele>
        <time>2022-01-08T10:59:03Z</time>
      </trkpt>
      <trkpt lat="44.78366" lon="7.00104">
        <ele>2368</ele>
        <time>2022-01-08T10:59:10Z</time>
      </trkpt>
      <trkpt lat="44.78366" lon="7.00107">
        <ele>2368</ele>
        <time>2022-01-08T10:59:15Z</time>
      </trkpt>
      <trkpt lat="44.78367" lon="7.0011">
        <ele>2368</ele>
        <time>2022-01-08T10:59:20Z</time>
      </trkpt>
      <trkpt lat="44.78366" lon="7.00113">
        <ele>2368</ele>
        <time>2022-01-08T10:59:23Z</time>
      </trkpt>
      <trkpt lat="44.78365" lon="7.00116">
        <ele>2367</ele>
        <time>2022-01-08T10:59:27Z</time>
      </trkpt>
      <trkpt lat="44.78364" lon="7.00119">
        <ele>2367</ele>
        <time>2022-01-08T10:59:30Z</time>
      </trkpt>
      <trkpt lat="44.78363" lon="7.0012">
        <ele>2366</ele>
        <time>2022-01-08T10:59:33Z</time>
      </trkpt>
      <trkpt lat="44.78364" lon="7.00121">
        <ele>2366</ele>
        <time>2022-01-08T10:59:42Z</time>
      </trkpt>
      <trkpt lat="44.78368" lon="7.00116">
        <ele>2366</ele>
        <time>2022-01-08T10:59:56Z</time>
      </trkpt>
      <trkpt lat="44.7837" lon="7.00115">
        <ele>2367</ele>
        <time>2022-01-08T10:59:58Z</time>
      </trkpt>
      <trkpt lat="44.78375" lon="7.00109">
        <ele>2367</ele>
        <time>2022-01-08T11:00:05Z</time>
      </trkpt>
      <trkpt lat="44.78376" lon="7.00106">
        <ele>2367</ele>
        <time>2022-01-08T11:00:08Z</time>
      </trkpt>
      <trkpt lat="44.78378" lon="7.00105">
        <ele>2368</ele>
        <time>2022-01-08T11:00:13Z</time>
      </trkpt>
      <trkpt lat="44.7838" lon="7.00103">
        <ele>2369</ele>
        <time>2022-01-08T11:00:23Z</time>
      </trkpt>
      <trkpt lat="44.78383" lon="7.001">
        <ele>2371</ele>
        <time>2022-01-08T11:00:36Z</time>
      </trkpt>
      <trkpt lat="44.78386" lon="7.00092">
        <ele>2374</ele>
        <time>2022-01-08T11:00:47Z</time>
      </trkpt>
      <trkpt lat="44.78391" lon="7.00087">
        <ele>2375</ele>
        <time>2022-01-08T11:00:55Z</time>
      </trkpt>
      <trkpt lat="44.78392" lon="7.00085">
        <ele>2375</ele>
        <time>2022-01-08T11:00:57Z</time>
      </trkpt>
      <trkpt lat="44.78393" lon="7.00083">
        <ele>2376</ele>
        <time>2022-01-08T11:01:01Z</time>
      </trkpt>
      <trkpt lat="44.78395" lon="7.00082">
        <ele>2377</ele>
        <time>2022-01-08T11:01:04Z</time>
      </trkpt>
      <trkpt lat="44.78399" lon="7.0008">
        <ele>2379</ele>
        <time>2022-01-08T11:01:10Z</time>
      </trkpt>
      <trkpt lat="44.784" lon="7.00081">
        <ele>2381</ele>
        <time>2022-01-08T11:01:20Z</time>
      </trkpt>
      <trkpt lat="44.784" lon="7.00084">
        <ele>2382</ele>
        <time>2022-01-08T11:01:23Z</time>
      </trkpt>
      <trkpt lat="44.784" lon="7.00087">
        <ele>2382</ele>
        <time>2022-01-08T11:01:38Z</time>
      </trkpt>
      <trkpt lat="44.784" lon="7.00089">
        <ele>2382</ele>
        <time>2022-01-08T11:01:41Z</time>
      </trkpt>
      <trkpt lat="44.78401" lon="7.00095">
        <ele>2382</ele>
        <time>2022-01-08T11:01:49Z</time>
      </trkpt>
      <trkpt lat="44.78402" lon="7.00093">
        <ele>2382</ele>
        <time>2022-01-08T11:01:52Z</time>
      </trkpt>
      <trkpt lat="44.78403" lon="7.00091">
        <ele>2382</ele>
        <time>2022-01-08T11:01:55Z</time>
      </trkpt>
      <trkpt lat="44.78405" lon="7.00088">
        <ele>2382</ele>
        <time>2022-01-08T11:01:59Z</time>
      </trkpt>
      <trkpt lat="44.78406" lon="7.00086">
        <ele>2382</ele>
        <time>2022-01-08T11:02:02Z</time>
      </trkpt>
      <trkpt lat="44.78406" lon="7.00084">
        <ele>2382</ele>
        <time>2022-01-08T11:02:06Z</time>
      </trkpt>
      <trkpt lat="44.78407" lon="7.00078">
        <ele>2382</ele>
        <time>2022-01-08T11:02:13Z</time>
      </trkpt>
      <trkpt lat="44.78408" lon="7.00075">
        <ele>2383</ele>
        <time>2022-01-08T11:02:16Z</time>
      </trkpt>
      <trkpt lat="44.78409" lon="7.00073">
        <ele>2384</ele>
        <time>2022-01-08T11:02:22Z</time>
      </trkpt>
      <trkpt lat="44.78411" lon="7.00074">
        <ele>2385</ele>
        <time>2022-01-08T11:02:29Z</time>
      </trkpt>
      <trkpt lat="44.78413" lon="7.00072">
        <ele>2385</ele>
        <time>2022-01-08T11:02:54Z</time>
      </trkpt>
      <trkpt lat="44.78415" lon="7.00072">
        <ele>2386</ele>
        <time>2022-01-08T11:02:57Z</time>
      </trkpt>
      <trkpt lat="44.78416" lon="7.00069">
        <ele>2386</ele>
        <time>2022-01-08T11:03:00Z</time>
      </trkpt>
      <trkpt lat="44.78418" lon="7.00068">
        <ele>2387</ele>
        <time>2022-01-08T11:03:04Z</time>
      </trkpt>
      <trkpt lat="44.78419" lon="7.0007">
        <ele>2388</ele>
        <time>2022-01-08T11:03:12Z</time>
      </trkpt>
      <trkpt lat="44.78417" lon="7.00072">
        <ele>2390</ele>
        <time>2022-01-08T11:03:47Z</time>
      </trkpt>
      <trkpt lat="44.78416" lon="7.0007">
        <ele>2391</ele>
        <time>2022-01-08T11:04:02Z</time>
      </trkpt>
      <trkpt lat="44.78415" lon="7.0007">
        <ele>2391</ele>
        <time>2022-01-08T11:04:07Z</time>
      </trkpt>
      <trkpt lat="44.78415" lon="7.00072">
        <ele>2392</ele>
        <time>2022-01-08T11:04:16Z</time>
      </trkpt>
      <trkpt lat="44.78416" lon="7.0007">
        <ele>2392</ele>
        <time>2022-01-08T11:04:52Z</time>
      </trkpt>
      <trkpt lat="44.78414" lon="7.0007">
        <ele>2393</ele>
        <time>2022-01-08T11:05:31Z</time>
      </trkpt>
      <trkpt lat="44.78412" lon="7.00071">
        <ele>2393</ele>
        <time>2022-01-08T11:05:34Z</time>
      </trkpt>
      <trkpt lat="44.78413" lon="7.00076">
        <ele>2394</ele>
        <time>2022-01-08T11:05:40Z</time>
      </trkpt>
      <trkpt lat="44.78418" lon="7.00092">
        <ele>2396</ele>
        <time>2022-01-08T11:05:56Z</time>
      </trkpt>
      <trkpt lat="44.78419" lon="7.00092">
        <ele>2396</ele>
        <time>2022-01-08T11:06:09Z</time>
      </trkpt>
      <trkpt lat="44.78426" lon="7.00084">
        <ele>2397</ele>
        <time>2022-01-08T11:06:18Z</time>
      </trkpt>
      <trkpt lat="44.78427" lon="7.00083">
        <ele>2397</ele>
        <time>2022-01-08T11:06:22Z</time>
      </trkpt>
      <trkpt lat="44.78429" lon="7.00082">
        <ele>2398</ele>
        <time>2022-01-08T11:06:26Z</time>
      </trkpt>
      <trkpt lat="44.7843" lon="7.00079">
        <ele>2398</ele>
        <time>2022-01-08T11:06:29Z</time>
      </trkpt>
      <trkpt lat="44.78433" lon="7.00075">
        <ele>2399</ele>
        <time>2022-01-08T11:06:36Z</time>
      </trkpt>
      <trkpt lat="44.78435" lon="7.00073">
        <ele>2400</ele>
        <time>2022-01-08T11:06:41Z</time>
      </trkpt>
      <trkpt lat="44.78436" lon="7.0007">
        <ele>2400</ele>
        <time>2022-01-08T11:06:45Z</time>
      </trkpt>
      <trkpt lat="44.78438" lon="7.00069">
        <ele>2399</ele>
        <time>2022-01-08T11:06:51Z</time>
      </trkpt>
      <trkpt lat="44.78439" lon="7.00067">
        <ele>2399</ele>
        <time>2022-01-08T11:06:53Z</time>
      </trkpt>
      <trkpt lat="44.7844" lon="7.00064">
        <ele>2399</ele>
        <time>2022-01-08T11:06:56Z</time>
      </trkpt>
      <trkpt lat="44.78442" lon="7.00061">
        <ele>2399</ele>
        <time>2022-01-08T11:06:59Z</time>
      </trkpt>
      <trkpt lat="44.78443" lon="7.0006">
        <ele>2399</ele>
        <time>2022-01-08T11:07:03Z</time>
      </trkpt>
      <trkpt lat="44.78444" lon="7.00056">
        <ele>2400</ele>
        <time>2022-01-08T11:07:06Z</time>
      </trkpt>
      <trkpt lat="44.78447" lon="7.00055">
        <ele>2403</ele>
        <time>2022-01-08T11:07:18Z</time>
      </trkpt>
      <trkpt lat="44.78449" lon="7.00055">
        <ele>2404</ele>
        <time>2022-01-08T11:07:24Z</time>
      </trkpt>
      <trkpt lat="44.78451" lon="7.00051">
        <ele>2405</ele>
        <time>2022-01-08T11:07:28Z</time>
      </trkpt>
      <trkpt lat="44.78452" lon="7.00049">
        <ele>2405</ele>
        <time>2022-01-08T11:07:30Z</time>
      </trkpt>
      <trkpt lat="44.78454" lon="7.00048">
        <ele>2405</ele>
        <time>2022-01-08T11:07:34Z</time>
      </trkpt>
      <trkpt lat="44.78455" lon="7.00046">
        <ele>2406</ele>
        <time>2022-01-08T11:07:35Z</time>
      </trkpt>
      <trkpt lat="44.78457" lon="7.00043">
        <ele>2407</ele>
        <time>2022-01-08T11:07:38Z</time>
      </trkpt>
      <trkpt lat="44.78458" lon="7.00041">
        <ele>2410</ele>
        <time>2022-01-08T11:07:44Z</time>
      </trkpt>
      <trkpt lat="44.78459" lon="7.00039">
        <ele>2410</ele>
        <time>2022-01-08T11:07:47Z</time>
      </trkpt>
      <trkpt lat="44.78463" lon="7.00035">
        <ele>2412</ele>
        <time>2022-01-08T11:07:53Z</time>
      </trkpt>
      <trkpt lat="44.78464" lon="7.00032">
        <ele>2414</ele>
        <time>2022-01-08T11:07:58Z</time>
      </trkpt>
      <trkpt lat="44.78466" lon="7.00026">
        <ele>2415</ele>
        <time>2022-01-08T11:08:04Z</time>
      </trkpt>
      <trkpt lat="44.78467" lon="7.00024">
        <ele>2416</ele>
        <time>2022-01-08T11:08:06Z</time>
      </trkpt>
      <trkpt lat="44.7847" lon="7.00019">
        <ele>2418</ele>
        <time>2022-01-08T11:08:14Z</time>
      </trkpt>
      <trkpt lat="44.78471" lon="7.00017">
        <ele>2419</ele>
        <time>2022-01-08T11:08:16Z</time>
      </trkpt>
      <trkpt lat="44.78471" lon="7.00014">
        <ele>2421</ele>
        <time>2022-01-08T11:08:20Z</time>
      </trkpt>
      <trkpt lat="44.78472" lon="7.00008">
        <ele>2424</ele>
        <time>2022-01-08T11:08:25Z</time>
      </trkpt>
      <trkpt lat="44.78474" lon="7.00004">
        <ele>2426</ele>
        <time>2022-01-08T11:08:36Z</time>
      </trkpt>
      <trkpt lat="44.78476" lon="7.00003">
        <ele>2426</ele>
        <time>2022-01-08T11:08:39Z</time>
      </trkpt>
      <trkpt lat="44.78478" lon="7.00001">
        <ele>2427</ele>
        <time>2022-01-08T11:08:43Z</time>
      </trkpt>
      <trkpt lat="44.7848" lon="6.99999">
        <ele>2427</ele>
        <time>2022-01-08T11:08:47Z</time>
      </trkpt>
      <trkpt lat="44.78481" lon="6.99998">
        <ele>2427</ele>
        <time>2022-01-08T11:08:51Z</time>
      </trkpt>
      <trkpt lat="44.78483" lon="6.99993">
        <ele>2426</ele>
        <time>2022-01-08T11:08:56Z</time>
      </trkpt>
      <trkpt lat="44.78485" lon="6.99992">
        <ele>2426</ele>
        <time>2022-01-08T11:08:58Z</time>
      </trkpt>
      <trkpt lat="44.78489" lon="6.9999">
        <ele>2424</ele>
        <time>2022-01-08T11:09:05Z</time>
      </trkpt>
      <trkpt lat="44.7849" lon="6.99988">
        <ele>2423</ele>
        <time>2022-01-08T11:09:08Z</time>
      </trkpt>
      <trkpt lat="44.78494" lon="6.99983">
        <ele>2422</ele>
        <time>2022-01-08T11:09:12Z</time>
      </trkpt>
      <trkpt lat="44.78496" lon="6.99982">
        <ele>2422</ele>
        <time>2022-01-08T11:09:14Z</time>
      </trkpt>
      <trkpt lat="44.78498" lon="6.9998">
        <ele>2422</ele>
        <time>2022-01-08T11:09:18Z</time>
      </trkpt>
      <trkpt lat="44.78498" lon="6.99978">
        <ele>2422</ele>
        <time>2022-01-08T11:09:23Z</time>
      </trkpt>
      <trkpt lat="44.78499" lon="6.99975">
        <ele>2423</ele>
        <time>2022-01-08T11:09:30Z</time>
      </trkpt>
      <trkpt lat="44.78501" lon="6.99973">
        <ele>2424</ele>
        <time>2022-01-08T11:09:33Z</time>
      </trkpt>
      <trkpt lat="44.78502" lon="6.99971">
        <ele>2424</ele>
        <time>2022-01-08T11:09:37Z</time>
      </trkpt>
      <trkpt lat="44.78505" lon="6.99966">
        <ele>2425</ele>
        <time>2022-01-08T11:09:44Z</time>
      </trkpt>
      <trkpt lat="44.78508" lon="6.99962">
        <ele>2426</ele>
        <time>2022-01-08T11:09:50Z</time>
      </trkpt>
      <trkpt lat="44.78508" lon="6.99959">
        <ele>2427</ele>
        <time>2022-01-08T11:09:56Z</time>
      </trkpt>
      <trkpt lat="44.78509" lon="6.99957">
        <ele>2428</ele>
        <time>2022-01-08T11:10:00Z</time>
      </trkpt>
      <trkpt lat="44.78511" lon="6.99955">
        <ele>2428</ele>
        <time>2022-01-08T11:10:03Z</time>
      </trkpt>
      <trkpt lat="44.78512" lon="6.99951">
        <ele>2429</ele>
        <time>2022-01-08T11:10:06Z</time>
      </trkpt>
      <trkpt lat="44.78512" lon="6.99949">
        <ele>2429</ele>
        <time>2022-01-08T11:10:09Z</time>
      </trkpt>
      <trkpt lat="44.78513" lon="6.99947">
        <ele>2430</ele>
        <time>2022-01-08T11:10:12Z</time>
      </trkpt>
      <trkpt lat="44.78514" lon="6.99946">
        <ele>2431</ele>
        <time>2022-01-08T11:10:21Z</time>
      </trkpt>
      <trkpt lat="44.78519" lon="6.99947">
        <ele>2432</ele>
        <time>2022-01-08T11:11:10Z</time>
      </trkpt>
      <trkpt lat="44.78518" lon="6.99943">
        <ele>2432</ele>
        <time>2022-01-08T11:11:13Z</time>
      </trkpt>
      <trkpt lat="44.78518" lon="6.9994">
        <ele>2432</ele>
        <time>2022-01-08T11:11:15Z</time>
      </trkpt>
      <trkpt lat="44.78519" lon="6.99933">
        <ele>2432</ele>
        <time>2022-01-08T11:11:23Z</time>
      </trkpt>
      <trkpt lat="44.78518" lon="6.99933">
        <ele>2433</ele>
        <time>2022-01-08T11:11:38Z</time>
      </trkpt>
      <trkpt lat="44.78518" lon="6.99936">
        <ele>2433</ele>
        <time>2022-01-08T11:11:40Z</time>
      </trkpt>
      <trkpt lat="44.78519" lon="6.99937">
        <ele>2433</ele>
        <time>2022-01-08T11:11:42Z</time>
      </trkpt>
      <trkpt lat="44.7852" lon="6.99939">
        <ele>2433</ele>
        <time>2022-01-08T11:11:44Z</time>
      </trkpt>
      <trkpt lat="44.78522" lon="6.99942">
        <ele>2434</ele>
        <time>2022-01-08T11:11:47Z</time>
      </trkpt>
      <trkpt lat="44.78522" lon="6.99945">
        <ele>2434</ele>
        <time>2022-01-08T11:11:49Z</time>
      </trkpt>
      <trkpt lat="44.78524" lon="6.99953">
        <ele>2434</ele>
        <time>2022-01-08T11:11:57Z</time>
      </trkpt>
      <trkpt lat="44.78523" lon="6.9995">
        <ele>2434</ele>
        <time>2022-01-08T11:12:04Z</time>
      </trkpt>
      <trkpt lat="44.78525" lon="6.99948">
        <ele>2435</ele>
        <time>2022-01-08T11:12:06Z</time>
      </trkpt>
      <trkpt lat="44.78524" lon="6.99945">
        <ele>2436</ele>
        <time>2022-01-08T11:12:09Z</time>
      </trkpt>
      <trkpt lat="44.78525" lon="6.99942">
        <ele>2437</ele>
        <time>2022-01-08T11:12:11Z</time>
      </trkpt>
      <trkpt lat="44.78527" lon="6.9994">
        <ele>2437</ele>
        <time>2022-01-08T11:12:14Z</time>
      </trkpt>
      <trkpt lat="44.78528" lon="6.99938">
        <ele>2439</ele>
        <time>2022-01-08T11:12:18Z</time>
      </trkpt>
      <trkpt lat="44.78529" lon="6.99935">
        <ele>2440</ele>
        <time>2022-01-08T11:12:25Z</time>
      </trkpt>
      <trkpt lat="44.78532" lon="6.99931">
        <ele>2441</ele>
        <time>2022-01-08T11:12:29Z</time>
      </trkpt>
      <trkpt lat="44.78533" lon="6.99928">
        <ele>2442</ele>
        <time>2022-01-08T11:12:33Z</time>
      </trkpt>
      <trkpt lat="44.78533" lon="6.99925">
        <ele>2442</ele>
        <time>2022-01-08T11:12:37Z</time>
      </trkpt>
      <trkpt lat="44.78534" lon="6.99923">
        <ele>2443</ele>
        <time>2022-01-08T11:12:40Z</time>
      </trkpt>
      <trkpt lat="44.78536" lon="6.99921">
        <ele>2444</ele>
        <time>2022-01-08T11:12:43Z</time>
      </trkpt>
      <trkpt lat="44.78538" lon="6.99919">
        <ele>2444</ele>
        <time>2022-01-08T11:12:48Z</time>
      </trkpt>
      <trkpt lat="44.78538" lon="6.99922">
        <ele>2444</ele>
        <time>2022-01-08T11:12:53Z</time>
      </trkpt>
      <trkpt lat="44.78537" lon="6.99926">
        <ele>2444</ele>
        <time>2022-01-08T11:12:55Z</time>
      </trkpt>
      <trkpt lat="44.78536" lon="6.99929">
        <ele>2445</ele>
        <time>2022-01-08T11:12:57Z</time>
      </trkpt>
      <trkpt lat="44.78537" lon="6.99931">
        <ele>2445</ele>
        <time>2022-01-08T11:12:59Z</time>
      </trkpt>
      <trkpt lat="44.78539" lon="6.99932">
        <ele>2446</ele>
        <time>2022-01-08T11:13:03Z</time>
      </trkpt>
      <trkpt lat="44.7854" lon="6.99934">
        <ele>2446</ele>
        <time>2022-01-08T11:13:08Z</time>
      </trkpt>
      <trkpt lat="44.78541" lon="6.99937">
        <ele>2447</ele>
        <time>2022-01-08T11:13:11Z</time>
      </trkpt>
      <trkpt lat="44.78541" lon="6.99949">
        <ele>2450</ele>
        <time>2022-01-08T11:13:23Z</time>
      </trkpt>
      <trkpt lat="44.78543" lon="6.99958">
        <ele>2451</ele>
        <time>2022-01-08T11:13:32Z</time>
      </trkpt>
      <trkpt lat="44.78542" lon="6.99966">
        <ele>2452</ele>
        <time>2022-01-08T11:13:41Z</time>
      </trkpt>
      <trkpt lat="44.78542" lon="6.99969">
        <ele>2453</ele>
        <time>2022-01-08T11:13:43Z</time>
      </trkpt>
      <trkpt lat="44.78543" lon="6.99978">
        <ele>2457</ele>
        <time>2022-01-08T11:13:55Z</time>
      </trkpt>
      <trkpt lat="44.78543" lon="6.99981">
        <ele>2458</ele>
        <time>2022-01-08T11:13:59Z</time>
      </trkpt>
      <trkpt lat="44.78545" lon="6.99983">
        <ele>2459</ele>
        <time>2022-01-08T11:14:05Z</time>
      </trkpt>
      <trkpt lat="44.78545" lon="6.99985">
        <ele>2460</ele>
        <time>2022-01-08T11:14:09Z</time>
      </trkpt>
      <trkpt lat="44.78545" lon="6.99988">
        <ele>2461</ele>
        <time>2022-01-08T11:14:13Z</time>
      </trkpt>
      <trkpt lat="44.78548" lon="6.99995">
        <ele>2462</ele>
        <time>2022-01-08T11:14:26Z</time>
      </trkpt>
      <trkpt lat="44.78549" lon="6.99993">
        <ele>2462</ele>
        <time>2022-01-08T11:14:30Z</time>
      </trkpt>
      <trkpt lat="44.7855" lon="6.99992">
        <ele>2462</ele>
        <time>2022-01-08T11:14:32Z</time>
      </trkpt>
      <trkpt lat="44.78551" lon="6.99989">
        <ele>2462</ele>
        <time>2022-01-08T11:14:34Z</time>
      </trkpt>
      <trkpt lat="44.78555" lon="6.99979">
        <ele>2462</ele>
        <time>2022-01-08T11:14:45Z</time>
      </trkpt>
      <trkpt lat="44.78556" lon="6.99977">
        <ele>2462</ele>
        <time>2022-01-08T11:14:49Z</time>
      </trkpt>
      <trkpt lat="44.78557" lon="6.99975">
        <ele>2463</ele>
        <time>2022-01-08T11:14:53Z</time>
      </trkpt>
      <trkpt lat="44.78558" lon="6.99969">
        <ele>2463</ele>
        <time>2022-01-08T11:15:01Z</time>
      </trkpt>
      <trkpt lat="44.78562" lon="6.99961">
        <ele>2464</ele>
        <time>2022-01-08T11:15:12Z</time>
      </trkpt>
      <trkpt lat="44.78562" lon="6.99958">
        <ele>2464</ele>
        <time>2022-01-08T11:15:16Z</time>
      </trkpt>
      <trkpt lat="44.78562" lon="6.99956">
        <ele>2465</ele>
        <time>2022-01-08T11:15:21Z</time>
      </trkpt>
      <trkpt lat="44.78563" lon="6.99953">
        <ele>2465</ele>
        <time>2022-01-08T11:15:24Z</time>
      </trkpt>
      <trkpt lat="44.78566" lon="6.99949">
        <ele>2466</ele>
        <time>2022-01-08T11:15:30Z</time>
      </trkpt>
      <trkpt lat="44.78567" lon="6.99947">
        <ele>2466</ele>
        <time>2022-01-08T11:15:33Z</time>
      </trkpt>
      <trkpt lat="44.78568" lon="6.99944">
        <ele>2467</ele>
        <time>2022-01-08T11:15:37Z</time>
      </trkpt>
      <trkpt lat="44.78569" lon="6.99943">
        <ele>2468</ele>
        <time>2022-01-08T11:15:55Z</time>
      </trkpt>
      <trkpt lat="44.78571" lon="6.99942">
        <ele>2467</ele>
        <time>2022-01-08T11:16:02Z</time>
      </trkpt>
      <trkpt lat="44.78572" lon="6.99939">
        <ele>2467</ele>
        <time>2022-01-08T11:16:06Z</time>
      </trkpt>
      <trkpt lat="44.78571" lon="6.99933">
        <ele>2469</ele>
        <time>2022-01-08T11:16:15Z</time>
      </trkpt>
      <trkpt lat="44.78573" lon="6.99933">
        <ele>2470</ele>
        <time>2022-01-08T11:16:45Z</time>
      </trkpt>
      <trkpt lat="44.78573" lon="6.99931">
        <ele>2470</ele>
        <time>2022-01-08T11:16:50Z</time>
      </trkpt>
      <trkpt lat="44.78575" lon="6.99925">
        <ele>2470</ele>
        <time>2022-01-08T11:16:56Z</time>
      </trkpt>
      <trkpt lat="44.78577" lon="6.99923">
        <ele>2471</ele>
        <time>2022-01-08T11:16:59Z</time>
      </trkpt>
      <trkpt lat="44.78585" lon="6.99905">
        <ele>2472</ele>
        <time>2022-01-08T11:17:30Z</time>
      </trkpt>
      <trkpt lat="44.78587" lon="6.99903">
        <ele>2473</ele>
        <time>2022-01-08T11:17:33Z</time>
      </trkpt>
      <trkpt lat="44.78587" lon="6.999">
        <ele>2473</ele>
        <time>2022-01-08T11:17:37Z</time>
      </trkpt>
      <trkpt lat="44.78588" lon="6.99897">
        <ele>2474</ele>
        <time>2022-01-08T11:17:42Z</time>
      </trkpt>
      <trkpt lat="44.78588" lon="6.99895">
        <ele>2475</ele>
        <time>2022-01-08T11:17:55Z</time>
      </trkpt>
      <trkpt lat="44.7859" lon="6.99899">
        <ele>2476</ele>
        <time>2022-01-08T11:18:01Z</time>
      </trkpt>
      <trkpt lat="44.7859" lon="6.99902">
        <ele>2478</ele>
        <time>2022-01-08T11:18:04Z</time>
      </trkpt>
      <trkpt lat="44.78589" lon="6.99903">
        <ele>2479</ele>
        <time>2022-01-08T11:18:13Z</time>
      </trkpt>
      <trkpt lat="44.7859" lon="6.99905">
        <ele>2480</ele>
        <time>2022-01-08T11:19:27Z</time>
      </trkpt>
      <trkpt lat="44.78591" lon="6.99907">
        <ele>2480</ele>
        <time>2022-01-08T11:19:31Z</time>
      </trkpt>
      <trkpt lat="44.78592" lon="6.9991">
        <ele>2484</ele>
        <time>2022-01-08T11:19:34Z</time>
      </trkpt>
      <trkpt lat="44.78593" lon="6.99913">
        <ele>2484</ele>
        <time>2022-01-08T11:19:37Z</time>
      </trkpt>
      <trkpt lat="44.78593" lon="6.99915">
        <ele>2485</ele>
        <time>2022-01-08T11:19:40Z</time>
      </trkpt>
      <trkpt lat="44.78594" lon="6.99918">
        <ele>2485</ele>
        <time>2022-01-08T11:19:43Z</time>
      </trkpt>
      <trkpt lat="44.78594" lon="6.99921">
        <ele>2485</ele>
        <time>2022-01-08T11:19:46Z</time>
      </trkpt>
      <trkpt lat="44.78593" lon="6.99923">
        <ele>2485</ele>
        <time>2022-01-08T11:19:49Z</time>
      </trkpt>
      <trkpt lat="44.78592" lon="6.99925">
        <ele>2485</ele>
        <time>2022-01-08T11:19:53Z</time>
      </trkpt>
      <trkpt lat="44.78593" lon="6.99927">
        <ele>2485</ele>
        <time>2022-01-08T11:19:57Z</time>
      </trkpt>
      <trkpt lat="44.78595" lon="6.99931">
        <ele>2486</ele>
        <time>2022-01-08T11:20:16Z</time>
      </trkpt>
      <trkpt lat="44.78596" lon="6.99934">
        <ele>2486</ele>
        <time>2022-01-08T11:20:19Z</time>
      </trkpt>
      <trkpt lat="44.78596" lon="6.99937">
        <ele>2487</ele>
        <time>2022-01-08T11:20:23Z</time>
      </trkpt>
      <trkpt lat="44.78597" lon="6.99944">
        <ele>2488</ele>
        <time>2022-01-08T11:20:33Z</time>
      </trkpt>
      <trkpt lat="44.78598" lon="6.99947">
        <ele>2488</ele>
        <time>2022-01-08T11:20:36Z</time>
      </trkpt>
      <trkpt lat="44.78599" lon="6.9995">
        <ele>2489</ele>
        <time>2022-01-08T11:20:42Z</time>
      </trkpt>
      <trkpt lat="44.786" lon="6.99952">
        <ele>2489</ele>
        <time>2022-01-08T11:20:46Z</time>
      </trkpt>
      <trkpt lat="44.78601" lon="6.99961">
        <ele>2492</ele>
        <time>2022-01-08T11:20:57Z</time>
      </trkpt>
      <trkpt lat="44.78602" lon="6.99964">
        <ele>2493</ele>
        <time>2022-01-08T11:21:00Z</time>
      </trkpt>
      <trkpt lat="44.78602" lon="6.99971">
        <ele>2494</ele>
        <time>2022-01-08T11:21:07Z</time>
      </trkpt>
      <trkpt lat="44.78601" lon="6.99973">
        <ele>2495</ele>
        <time>2022-01-08T11:21:10Z</time>
      </trkpt>
      <trkpt lat="44.78601" lon="6.99976">
        <ele>2495</ele>
        <time>2022-01-08T11:21:16Z</time>
      </trkpt>
      <trkpt lat="44.7861" lon="6.99955">
        <ele>2496</ele>
        <time>2022-01-08T11:21:45Z</time>
      </trkpt>
      <trkpt lat="44.78611" lon="6.99948">
        <ele>2497</ele>
        <time>2022-01-08T11:21:54Z</time>
      </trkpt>
      <trkpt lat="44.78613" lon="6.99945">
        <ele>2498</ele>
        <time>2022-01-08T11:21:59Z</time>
      </trkpt>
      <trkpt lat="44.78614" lon="6.99943">
        <ele>2498</ele>
        <time>2022-01-08T11:22:03Z</time>
      </trkpt>
      <trkpt lat="44.78614" lon="6.99941">
        <ele>2498</ele>
        <time>2022-01-08T11:22:07Z</time>
      </trkpt>
      <trkpt lat="44.78614" lon="6.99935">
        <ele>2499</ele>
        <time>2022-01-08T11:22:14Z</time>
      </trkpt>
      <trkpt lat="44.78614" lon="6.99932">
        <ele>2500</ele>
        <time>2022-01-08T11:22:18Z</time>
      </trkpt>
      <trkpt lat="44.78615" lon="6.99922">
        <ele>2502</ele>
        <time>2022-01-08T11:22:30Z</time>
      </trkpt>
      <trkpt lat="44.78615" lon="6.99919">
        <ele>2502</ele>
        <time>2022-01-08T11:22:34Z</time>
      </trkpt>
      <trkpt lat="44.78614" lon="6.99918">
        <ele>2503</ele>
        <time>2022-01-08T11:22:38Z</time>
      </trkpt>
      <trkpt lat="44.78614" lon="6.99914">
        <ele>2503</ele>
        <time>2022-01-08T11:22:43Z</time>
      </trkpt>
      <trkpt lat="44.78615" lon="6.99912">
        <ele>2503</ele>
        <time>2022-01-08T11:22:45Z</time>
      </trkpt>
      <trkpt lat="44.78616" lon="6.99909">
        <ele>2503</ele>
        <time>2022-01-08T11:22:49Z</time>
      </trkpt>
      <trkpt lat="44.78618" lon="6.99905">
        <ele>2502</ele>
        <time>2022-01-08T11:22:52Z</time>
      </trkpt>
      <trkpt lat="44.7862" lon="6.99904">
        <ele>2502</ele>
        <time>2022-01-08T11:22:54Z</time>
      </trkpt>
      <trkpt lat="44.78621" lon="6.99902">
        <ele>2502</ele>
        <time>2022-01-08T11:22:58Z</time>
      </trkpt>
      <trkpt lat="44.78623" lon="6.99895">
        <ele>2503</ele>
        <time>2022-01-08T11:23:08Z</time>
      </trkpt>
      <trkpt lat="44.78624" lon="6.99892">
        <ele>2503</ele>
        <time>2022-01-08T11:23:11Z</time>
      </trkpt>
      <trkpt lat="44.78626" lon="6.99887">
        <ele>2505</ele>
        <time>2022-01-08T11:23:17Z</time>
      </trkpt>
      <trkpt lat="44.78626" lon="6.99878">
        <ele>2507</ele>
        <time>2022-01-08T11:23:29Z</time>
      </trkpt>
      <trkpt lat="44.78628" lon="6.99876">
        <ele>2508</ele>
        <time>2022-01-08T11:23:32Z</time>
      </trkpt>
      <trkpt lat="44.78629" lon="6.99873">
        <ele>2508</ele>
        <time>2022-01-08T11:23:37Z</time>
      </trkpt>
      <trkpt lat="44.7863" lon="6.99871">
        <ele>2508</ele>
        <time>2022-01-08T11:23:40Z</time>
      </trkpt>
      <trkpt lat="44.78631" lon="6.9987">
        <ele>2509</ele>
        <time>2022-01-08T11:24:02Z</time>
      </trkpt>
      <trkpt lat="44.78633" lon="6.99878">
        <ele>2511</ele>
        <time>2022-01-08T11:24:19Z</time>
      </trkpt>
      <trkpt lat="44.78633" lon="6.99881">
        <ele>2512</ele>
        <time>2022-01-08T11:24:29Z</time>
      </trkpt>
      <trkpt lat="44.78635" lon="6.99878">
        <ele>2512</ele>
        <time>2022-01-08T11:24:36Z</time>
      </trkpt>
      <trkpt lat="44.78637" lon="6.99876">
        <ele>2513</ele>
        <time>2022-01-08T11:24:39Z</time>
      </trkpt>
      <trkpt lat="44.78638" lon="6.99874">
        <ele>2513</ele>
        <time>2022-01-08T11:24:41Z</time>
      </trkpt>
      <trkpt lat="44.7864" lon="6.99872">
        <ele>2513</ele>
        <time>2022-01-08T11:24:46Z</time>
      </trkpt>
      <trkpt lat="44.78642" lon="6.9987">
        <ele>2512</ele>
        <time>2022-01-08T11:24:50Z</time>
      </trkpt>
      <trkpt lat="44.78643" lon="6.99866">
        <ele>2512</ele>
        <time>2022-01-08T11:24:56Z</time>
      </trkpt>
      <trkpt lat="44.78645" lon="6.99864">
        <ele>2511</ele>
        <time>2022-01-08T11:25:00Z</time>
      </trkpt>
      <trkpt lat="44.78645" lon="6.99862">
        <ele>2510</ele>
        <time>2022-01-08T11:25:04Z</time>
      </trkpt>
      <trkpt lat="44.78646" lon="6.9986">
        <ele>2509</ele>
        <time>2022-01-08T11:25:09Z</time>
      </trkpt>
      <trkpt lat="44.78656" lon="6.99854">
        <ele>2508</ele>
        <time>2022-01-08T11:25:19Z</time>
      </trkpt>
      <trkpt lat="44.78657" lon="6.99849">
        <ele>2508</ele>
        <time>2022-01-08T11:25:30Z</time>
      </trkpt>
      <trkpt lat="44.78658" lon="6.99847">
        <ele>2509</ele>
        <time>2022-01-08T11:25:35Z</time>
      </trkpt>
      <trkpt lat="44.7866" lon="6.99846">
        <ele>2510</ele>
        <time>2022-01-08T11:25:40Z</time>
      </trkpt>
      <trkpt lat="44.78661" lon="6.99843">
        <ele>2511</ele>
        <time>2022-01-08T11:25:47Z</time>
      </trkpt>
      <trkpt lat="44.78662" lon="6.99842">
        <ele>2512</ele>
        <time>2022-01-08T11:25:50Z</time>
      </trkpt>
      <trkpt lat="44.78661" lon="6.99839">
        <ele>2512</ele>
        <time>2022-01-08T11:25:58Z</time>
      </trkpt>
      <trkpt lat="44.7866" lon="6.99842">
        <ele>2512</ele>
        <time>2022-01-08T11:26:04Z</time>
      </trkpt>
      <trkpt lat="44.78659" lon="6.99845">
        <ele>2513</ele>
        <time>2022-01-08T11:26:07Z</time>
      </trkpt>
      <trkpt lat="44.7866" lon="6.99848">
        <ele>2516</ele>
        <time>2022-01-08T11:26:12Z</time>
      </trkpt>
      <trkpt lat="44.7866" lon="6.9985">
        <ele>2517</ele>
        <time>2022-01-08T11:26:15Z</time>
      </trkpt>
      <trkpt lat="44.7866" lon="6.99853">
        <ele>2520</ele>
        <time>2022-01-08T11:26:20Z</time>
      </trkpt>
      <trkpt lat="44.7866" lon="6.99856">
        <ele>2521</ele>
        <time>2022-01-08T11:26:23Z</time>
      </trkpt>
      <trkpt lat="44.78661" lon="6.99869">
        <ele>2524</ele>
        <time>2022-01-08T11:26:39Z</time>
      </trkpt>
      <trkpt lat="44.78662" lon="6.99872">
        <ele>2525</ele>
        <time>2022-01-08T11:26:43Z</time>
      </trkpt>
      <trkpt lat="44.78663" lon="6.9988">
        <ele>2527</ele>
        <time>2022-01-08T11:26:59Z</time>
      </trkpt>
      <trkpt lat="44.78664" lon="6.99881">
        <ele>2529</ele>
        <time>2022-01-08T11:27:05Z</time>
      </trkpt>
      <trkpt lat="44.78667" lon="6.99881">
        <ele>2530</ele>
        <time>2022-01-08T11:27:15Z</time>
      </trkpt>
      <trkpt lat="44.78669" lon="6.99879">
        <ele>2530</ele>
        <time>2022-01-08T11:27:18Z</time>
      </trkpt>
      <trkpt lat="44.78671" lon="6.99879">
        <ele>2531</ele>
        <time>2022-01-08T11:27:22Z</time>
      </trkpt>
      <trkpt lat="44.78671" lon="6.99877">
        <ele>2531</ele>
        <time>2022-01-08T11:27:27Z</time>
      </trkpt>
      <trkpt lat="44.78674" lon="6.99875">
        <ele>2531</ele>
        <time>2022-01-08T11:27:33Z</time>
      </trkpt>
      <trkpt lat="44.78678" lon="6.99872">
        <ele>2532</ele>
        <time>2022-01-08T11:27:41Z</time>
      </trkpt>
      <trkpt lat="44.78679" lon="6.9987">
        <ele>2532</ele>
        <time>2022-01-08T11:27:46Z</time>
      </trkpt>
      <trkpt lat="44.78681" lon="6.99867">
        <ele>2532</ele>
        <time>2022-01-08T11:27:50Z</time>
      </trkpt>
      <trkpt lat="44.78681" lon="6.99865">
        <ele>2533</ele>
        <time>2022-01-08T11:27:56Z</time>
      </trkpt>
      <trkpt lat="44.78684" lon="6.99859">
        <ele>2534</ele>
        <time>2022-01-08T11:28:04Z</time>
      </trkpt>
      <trkpt lat="44.78679" lon="6.99868">
        <ele>2535</ele>
        <time>2022-01-08T11:28:29Z</time>
      </trkpt>
      <trkpt lat="44.7868" lon="6.99876">
        <ele>2537</ele>
        <time>2022-01-08T11:28:39Z</time>
      </trkpt>
      <trkpt lat="44.78695" lon="6.99861">
        <ele>2540</ele>
        <time>2022-01-08T11:29:11Z</time>
      </trkpt>
      <trkpt lat="44.78701" lon="6.99852">
        <ele>2541</ele>
        <time>2022-01-08T11:29:31Z</time>
      </trkpt>
      <trkpt lat="44.78702" lon="6.9985">
        <ele>2542</ele>
        <time>2022-01-08T11:29:34Z</time>
      </trkpt>
      <trkpt lat="44.78702" lon="6.99847">
        <ele>2543</ele>
        <time>2022-01-08T11:29:39Z</time>
      </trkpt>
      <trkpt lat="44.787" lon="6.99848">
        <ele>2544</ele>
        <time>2022-01-08T11:29:53Z</time>
      </trkpt>
      <trkpt lat="44.78698" lon="6.99852">
        <ele>2545</ele>
        <time>2022-01-08T11:29:58Z</time>
      </trkpt>
      <trkpt lat="44.78698" lon="6.99853">
        <ele>2546</ele>
        <time>2022-01-08T11:30:04Z</time>
      </trkpt>
      <trkpt lat="44.78698" lon="6.99861">
        <ele>2547</ele>
        <time>2022-01-08T11:30:15Z</time>
      </trkpt>
      <trkpt lat="44.78699" lon="6.99865">
        <ele>2548</ele>
        <time>2022-01-08T11:30:24Z</time>
      </trkpt>
      <trkpt lat="44.78699" lon="6.99874">
        <ele>2550</ele>
        <time>2022-01-08T11:30:34Z</time>
      </trkpt>
      <trkpt lat="44.78699" lon="6.99876">
        <ele>2550</ele>
        <time>2022-01-08T11:30:37Z</time>
      </trkpt>
      <trkpt lat="44.78699" lon="6.99879">
        <ele>2550</ele>
        <time>2022-01-08T11:30:41Z</time>
      </trkpt>
      <trkpt lat="44.787" lon="6.99881">
        <ele>2551</ele>
        <time>2022-01-08T11:30:47Z</time>
      </trkpt>
      <trkpt lat="44.787" lon="6.99889">
        <ele>2551</ele>
        <time>2022-01-08T11:30:54Z</time>
      </trkpt>
      <trkpt lat="44.787" lon="6.99891">
        <ele>2551</ele>
        <time>2022-01-08T11:30:57Z</time>
      </trkpt>
      <trkpt lat="44.78701" lon="6.99894">
        <ele>2552</ele>
        <time>2022-01-08T11:31:02Z</time>
      </trkpt>
      <trkpt lat="44.78703" lon="6.99897">
        <ele>2553</ele>
        <time>2022-01-08T11:31:15Z</time>
      </trkpt>
      <trkpt lat="44.78705" lon="6.99896">
        <ele>2553</ele>
        <time>2022-01-08T11:31:18Z</time>
      </trkpt>
      <trkpt lat="44.78708" lon="6.99891">
        <ele>2555</ele>
        <time>2022-01-08T11:31:24Z</time>
      </trkpt>
      <trkpt lat="44.78709" lon="6.9989">
        <ele>2555</ele>
        <time>2022-01-08T11:31:26Z</time>
      </trkpt>
      <trkpt lat="44.78715" lon="6.99879">
        <ele>2557</ele>
        <time>2022-01-08T11:31:41Z</time>
      </trkpt>
      <trkpt lat="44.78713" lon="6.9988">
        <ele>2558</ele>
        <time>2022-01-08T11:31:52Z</time>
      </trkpt>
      <trkpt lat="44.78712" lon="6.99888">
        <ele>2559</ele>
        <time>2022-01-08T11:32:04Z</time>
      </trkpt>
      <trkpt lat="44.78713" lon="6.99891">
        <ele>2559</ele>
        <time>2022-01-08T11:32:07Z</time>
      </trkpt>
      <trkpt lat="44.78715" lon="6.99899">
        <ele>2560</ele>
        <time>2022-01-08T11:32:20Z</time>
      </trkpt>
      <trkpt lat="44.78715" lon="6.99902">
        <ele>2561</ele>
        <time>2022-01-08T11:32:26Z</time>
      </trkpt>
      <trkpt lat="44.78716" lon="6.99907">
        <ele>2563</ele>
        <time>2022-01-08T11:32:45Z</time>
      </trkpt>
      <trkpt lat="44.78724" lon="6.99902">
        <ele>2565</ele>
        <time>2022-01-08T11:32:57Z</time>
      </trkpt>
      <trkpt lat="44.78727" lon="6.99902">
        <ele>2566</ele>
        <time>2022-01-08T11:33:00Z</time>
      </trkpt>
      <trkpt lat="44.78729" lon="6.99904">
        <ele>2567</ele>
        <time>2022-01-08T11:33:04Z</time>
      </trkpt>
      <trkpt lat="44.78722" lon="6.99912">
        <ele>2567</ele>
        <time>2022-01-08T11:33:17Z</time>
      </trkpt>
      <trkpt lat="44.78721" lon="6.99913">
        <ele>2567</ele>
        <time>2022-01-08T11:33:20Z</time>
      </trkpt>
      <trkpt lat="44.78719" lon="6.99916">
        <ele>2568</ele>
        <time>2022-01-08T11:33:36Z</time>
      </trkpt>
      <trkpt lat="44.78721" lon="6.99918">
        <ele>2568</ele>
        <time>2022-01-08T11:33:52Z</time>
      </trkpt>
      <trkpt lat="44.78721" lon="6.9992">
        <ele>2569</ele>
        <time>2022-01-08T11:33:57Z</time>
      </trkpt>
      <trkpt lat="44.7872" lon="6.99923">
        <ele>2570</ele>
        <time>2022-01-08T11:34:00Z</time>
      </trkpt>
      <trkpt lat="44.78719" lon="6.99925">
        <ele>2570</ele>
        <time>2022-01-08T11:34:03Z</time>
      </trkpt>
      <trkpt lat="44.78717" lon="6.99927">
        <ele>2570</ele>
        <time>2022-01-08T11:34:07Z</time>
      </trkpt>
      <trkpt lat="44.78718" lon="6.99929">
        <ele>2571</ele>
        <time>2022-01-08T11:34:11Z</time>
      </trkpt>
      <trkpt lat="44.78719" lon="6.99931">
        <ele>2571</ele>
        <time>2022-01-08T11:34:15Z</time>
      </trkpt>
      <trkpt lat="44.7872" lon="6.99933">
        <ele>2571</ele>
        <time>2022-01-08T11:34:20Z</time>
      </trkpt>
      <trkpt lat="44.78719" lon="6.99935">
        <ele>2574</ele>
        <time>2022-01-08T11:34:30Z</time>
      </trkpt>
      <trkpt lat="44.78719" lon="6.99945">
        <ele>2580</ele>
        <time>2022-01-08T11:34:52Z</time>
      </trkpt>
      <trkpt lat="44.78716" lon="6.99949">
        <ele>2581</ele>
        <time>2022-01-08T11:35:03Z</time>
      </trkpt>
      <trkpt lat="44.78718" lon="6.99954">
        <ele>2583</ele>
        <time>2022-01-08T11:35:11Z</time>
      </trkpt>
      <trkpt lat="44.78719" lon="6.99956">
        <ele>2583</ele>
        <time>2022-01-08T11:35:14Z</time>
      </trkpt>
      <trkpt lat="44.78721" lon="6.99957">
        <ele>2584</ele>
        <time>2022-01-08T11:35:17Z</time>
      </trkpt>
      <trkpt lat="44.78721" lon="6.9996">
        <ele>2584</ele>
        <time>2022-01-08T11:35:21Z</time>
      </trkpt>
      <trkpt lat="44.7872" lon="6.99961">
        <ele>2585</ele>
        <time>2022-01-08T11:35:26Z</time>
      </trkpt>
      <trkpt lat="44.78721" lon="6.99968">
        <ele>2588</ele>
        <time>2022-01-08T11:35:44Z</time>
      </trkpt>
      <trkpt lat="44.78722" lon="6.9997">
        <ele>2589</ele>
        <time>2022-01-08T11:35:49Z</time>
      </trkpt>
      <trkpt lat="44.78721" lon="6.99975">
        <ele>2590</ele>
        <time>2022-01-08T11:35:58Z</time>
      </trkpt>
      <trkpt lat="44.78722" lon="6.9998">
        <ele>2592</ele>
        <time>2022-01-08T11:36:10Z</time>
      </trkpt>
      <trkpt lat="44.78722" lon="6.99982">
        <ele>2592</ele>
        <time>2022-01-08T11:36:16Z</time>
      </trkpt>
      <trkpt lat="44.78724" lon="6.99981">
        <ele>2593</ele>
        <time>2022-01-08T11:36:34Z</time>
      </trkpt>
      <trkpt lat="44.78726" lon="6.99976">
        <ele>2593</ele>
        <time>2022-01-08T11:36:44Z</time>
      </trkpt>
      <trkpt lat="44.78728" lon="6.99975">
        <ele>2593</ele>
        <time>2022-01-08T11:36:47Z</time>
      </trkpt>
      <trkpt lat="44.7873" lon="6.99975">
        <ele>2593</ele>
        <time>2022-01-08T11:36:49Z</time>
      </trkpt>
      <trkpt lat="44.78731" lon="6.99976">
        <ele>2592</ele>
        <time>2022-01-08T11:37:01Z</time>
      </trkpt>
      <trkpt lat="44.7873" lon="6.99979">
        <ele>2592</ele>
        <time>2022-01-08T11:37:16Z</time>
      </trkpt>
      <trkpt lat="44.78728" lon="6.99978">
        <ele>2592</ele>
        <time>2022-01-08T11:37:19Z</time>
      </trkpt>
      <trkpt lat="44.78725" lon="6.99978">
        <ele>2594</ele>
        <time>2022-01-08T11:37:22Z</time>
      </trkpt>
      <trkpt lat="44.78727" lon="6.99977">
        <ele>2600</ele>
        <time>2022-01-08T11:37:53Z</time>
      </trkpt>
      <trkpt lat="44.78727" lon="6.99974">
        <ele>2601</ele>
        <time>2022-01-08T11:38:03Z</time>
      </trkpt>
      <trkpt lat="44.78729" lon="6.99974">
        <ele>2602</ele>
        <time>2022-01-08T11:38:11Z</time>
      </trkpt>
      <trkpt lat="44.7874" lon="6.9998">
        <ele>2597</ele>
        <time>2022-01-08T11:38:23Z</time>
      </trkpt>
      <trkpt lat="44.7874" lon="6.99984">
        <ele>2595</ele>
        <time>2022-01-08T11:38:27Z</time>
      </trkpt>
      <trkpt lat="44.78738" lon="6.99984">
        <ele>2594</ele>
        <time>2022-01-08T11:38:31Z</time>
      </trkpt>
      <trkpt lat="44.78735" lon="6.99983">
        <ele>2592</ele>
        <time>2022-01-08T11:38:42Z</time>
      </trkpt>
      <trkpt lat="44.7873" lon="6.99979">
        <ele>2591</ele>
        <time>2022-01-08T11:38:48Z</time>
      </trkpt>
      <trkpt lat="44.78731" lon="6.9998">
        <ele>2593</ele>
        <time>2022-01-08T11:39:34Z</time>
      </trkpt>
      <trkpt lat="44.78725" lon="6.9998">
        <ele>2598</ele>
        <time>2022-01-08T11:40:03Z</time>
      </trkpt>
      <trkpt lat="44.78725" lon="6.99981">
        <ele>2598</ele>
        <time>2022-01-08T11:40:55Z</time>
      </trkpt>
      <trkpt lat="44.78728" lon="6.99983">
        <ele>2600</ele>
        <time>2022-01-08T11:40:59Z</time>
      </trkpt>
      <trkpt lat="44.78729" lon="6.9998">
        <ele>2598</ele>
        <time>2022-01-08T11:41:18Z</time>
      </trkpt>
      <trkpt lat="44.78727" lon="6.99979">
        <ele>2599</ele>
        <time>2022-01-08T11:41:31Z</time>
      </trkpt>
      <trkpt lat="44.78727" lon="6.99978">
        <ele>2600</ele>
        <time>2022-01-08T11:42:28Z</time>
      </trkpt>
      <trkpt lat="44.78728" lon="6.99976">
        <ele>2601</ele>
        <time>2022-01-08T11:44:07Z</time>
      </trkpt>
      <trkpt lat="44.78728" lon="6.99971">
        <ele>2601</ele>
        <time>2022-01-08T11:44:10Z</time>
      </trkpt>
      <trkpt lat="44.78736" lon="6.99971">
        <ele>2601</ele>
        <time>2022-01-08T11:44:20Z</time>
      </trkpt>
      <trkpt lat="44.78727" lon="6.99982">
        <ele>2601</ele>
        <time>2022-01-08T11:44:21Z</time>
      </trkpt>
      <trkpt lat="44.78725" lon="6.99983">
        <ele>2598</ele>
        <time>2022-01-08T11:44:33Z</time>
      </trkpt>
      <trkpt lat="44.78726" lon="6.99982">
        <ele>2598</ele>
        <time>2022-01-08T11:44:43Z</time>
      </trkpt>
      <trkpt lat="44.78715" lon="6.99973">
        <ele>2599</ele>
        <time>2022-01-08T11:44:47Z</time>
      </trkpt>
      <trkpt lat="44.78719" lon="6.99976">
        <ele>2600</ele>
        <time>2022-01-08T11:44:53Z</time>
      </trkpt>
      <trkpt lat="44.78723" lon="6.99976">
        <ele>2602</ele>
        <time>2022-01-08T11:44:57Z</time>
      </trkpt>
      <trkpt lat="44.78725" lon="6.99978">
        <ele>2603</ele>
        <time>2022-01-08T11:45:01Z</time>
      </trkpt>
      <trkpt lat="44.78728" lon="6.9998">
        <ele>2603</ele>
        <time>2022-01-08T11:45:07Z</time>
      </trkpt>
      <trkpt lat="44.78725" lon="6.99981">
        <ele>2603</ele>
        <time>2022-01-08T11:45:31Z</time>
      </trkpt>
      <trkpt lat="44.78729" lon="6.99984">
        <ele>2602</ele>
        <time>2022-01-08T11:45:36Z</time>
      </trkpt>
      <trkpt lat="44.78728" lon="6.99981">
        <ele>2602</ele>
        <time>2022-01-08T11:45:41Z</time>
      </trkpt>
      <trkpt lat="44.78731" lon="6.99986">
        <ele>2602</ele>
        <time>2022-01-08T11:45:53Z</time>
      </trkpt>
      <trkpt lat="44.78729" lon="6.99984">
        <ele>2601</ele>
        <time>2022-01-08T11:45:58Z</time>
      </trkpt>
      <trkpt lat="44.78726" lon="6.99983">
        <ele>2601</ele>
        <time>2022-01-08T11:46:31Z</time>
      </trkpt>
      <trkpt lat="44.78727" lon="6.99987">
        <ele>2601</ele>
        <time>2022-01-08T11:46:43Z</time>
      </trkpt>
      <trkpt lat="44.78728" lon="6.99999">
        <ele>2600</ele>
        <time>2022-01-08T11:46:45Z</time>
      </trkpt>
      <trkpt lat="44.78728" lon="6.99995">
        <ele>2600</ele>
        <time>2022-01-08T11:46:48Z</time>
      </trkpt>
      <trkpt lat="44.78728" lon="6.99981">
        <ele>2600</ele>
        <time>2022-01-08T11:46:56Z</time>
      </trkpt>
      <trkpt lat="44.78727" lon="6.99979">
        <ele>2599</ele>
        <time>2022-01-08T11:47:14Z</time>
      </trkpt>
      <trkpt lat="44.78725" lon="6.99977">
        <ele>2601</ele>
        <time>2022-01-08T11:47:19Z</time>
      </trkpt>
      <trkpt lat="44.78724" lon="6.99976">
        <ele>2602</ele>
        <time>2022-01-08T11:47:22Z</time>
      </trkpt>
      <trkpt lat="44.78723" lon="6.99973">
        <ele>2603</ele>
        <time>2022-01-08T11:47:26Z</time>
      </trkpt>
      <trkpt lat="44.7872" lon="6.99973">
        <ele>2604</ele>
        <time>2022-01-08T11:47:44Z</time>
      </trkpt>
      <trkpt lat="44.78719" lon="6.99974">
        <ele>2605</ele>
        <time>2022-01-08T11:47:48Z</time>
      </trkpt>
      <trkpt lat="44.78718" lon="6.99973">
        <ele>2607</ele>
        <time>2022-01-08T11:48:09Z</time>
      </trkpt>
      <trkpt lat="44.78723" lon="6.99972">
        <ele>2608</ele>
        <time>2022-01-08T11:48:29Z</time>
      </trkpt>
      <trkpt lat="44.78727" lon="6.99974">
        <ele>2608</ele>
        <time>2022-01-08T11:48:38Z</time>
      </trkpt>
      <trkpt lat="44.78729" lon="6.99975">
        <ele>2607</ele>
        <time>2022-01-08T11:48:54Z</time>
      </trkpt>
      <trkpt lat="44.78731" lon="6.99974">
        <ele>2607</ele>
        <time>2022-01-08T11:49:08Z</time>
      </trkpt>
      <trkpt lat="44.78736" lon="6.99973">
        <ele>2607</ele>
        <time>2022-01-08T11:49:21Z</time>
      </trkpt>
      <trkpt lat="44.78738" lon="6.9997">
        <ele>2607</ele>
        <time>2022-01-08T11:49:30Z</time>
      </trkpt>
      <trkpt lat="44.78741" lon="6.99973">
        <ele>2607</ele>
        <time>2022-01-08T11:49:46Z</time>
      </trkpt>
      <trkpt lat="44.78744" lon="6.99974">
        <ele>2607</ele>
        <time>2022-01-08T11:49:56Z</time>
      </trkpt>
      <trkpt lat="44.78746" lon="6.9997">
        <ele>2608</ele>
        <time>2022-01-08T11:50:40Z</time>
      </trkpt>
      <trkpt lat="44.78745" lon="6.99967">
        <ele>2609</ele>
        <time>2022-01-08T11:50:48Z</time>
      </trkpt>
      <trkpt lat="44.78743" lon="6.99965">
        <ele>2610</ele>
        <time>2022-01-08T11:50:52Z</time>
      </trkpt>
      <trkpt lat="44.78744" lon="6.9996">
        <ele>2613</ele>
        <time>2022-01-08T11:50:59Z</time>
      </trkpt>
      <trkpt lat="44.7875" lon="6.99961">
        <ele>2617</ele>
        <time>2022-01-08T11:51:16Z</time>
      </trkpt>
      <trkpt lat="44.78753" lon="6.99963">
        <ele>2618</ele>
        <time>2022-01-08T11:51:19Z</time>
      </trkpt>
      <trkpt lat="44.78755" lon="6.99965">
        <ele>2618</ele>
        <time>2022-01-08T11:51:22Z</time>
      </trkpt>
      <trkpt lat="44.78757" lon="6.99964">
        <ele>2619</ele>
        <time>2022-01-08T11:51:29Z</time>
      </trkpt>
      <trkpt lat="44.78758" lon="6.99959">
        <ele>2619</ele>
        <time>2022-01-08T11:51:55Z</time>
      </trkpt>
      <trkpt lat="44.7876" lon="6.99958">
        <ele>2626</ele>
        <time>2022-01-08T11:52:34Z</time>
      </trkpt>
      <trkpt lat="44.7876" lon="6.99959">
        <ele>2627</ele>
        <time>2022-01-08T11:52:43Z</time>
      </trkpt>
      <trkpt lat="44.7876" lon="6.99957">
        <ele>2626</ele>
        <time>2022-01-08T11:52:50Z</time>
      </trkpt>
      <trkpt lat="44.78764" lon="6.99956">
        <ele>2625</ele>
        <time>2022-01-08T11:52:57Z</time>
      </trkpt>
      <trkpt lat="44.78764" lon="6.99951">
        <ele>2626</ele>
        <time>2022-01-08T11:53:04Z</time>
      </trkpt>
      <trkpt lat="44.78767" lon="6.99953">
        <ele>2625</ele>
        <time>2022-01-08T11:53:16Z</time>
      </trkpt>
      <trkpt lat="44.78771" lon="6.99953">
        <ele>2623</ele>
        <time>2022-01-08T11:53:24Z</time>
      </trkpt>
      <trkpt lat="44.78768" lon="6.99948">
        <ele>2622</ele>
        <time>2022-01-08T11:53:29Z</time>
      </trkpt>
      <trkpt lat="44.78771" lon="6.99945">
        <ele>2623</ele>
        <time>2022-01-08T11:53:40Z</time>
      </trkpt>
      <trkpt lat="44.78764" lon="6.9994">
        <ele>2634</ele>
        <time>2022-01-08T11:53:50Z</time>
      </trkpt>
      <trkpt lat="44.78772" lon="6.9994">
        <ele>2641</ele>
        <time>2022-01-08T11:54:16Z</time>
      </trkpt>
      <trkpt lat="44.78775" lon="6.99942">
        <ele>2640</ele>
        <time>2022-01-08T11:54:18Z</time>
      </trkpt>
      <trkpt lat="44.78778" lon="6.99944">
        <ele>2639</ele>
        <time>2022-01-08T11:54:20Z</time>
      </trkpt>
      <trkpt lat="44.78786" lon="6.99949">
        <ele>2631</ele>
        <time>2022-01-08T11:54:28Z</time>
      </trkpt>
      <trkpt lat="44.78788" lon="6.99953">
        <ele>2627</ele>
        <time>2022-01-08T11:54:33Z</time>
      </trkpt>
      <trkpt lat="44.7879" lon="6.99955">
        <ele>2625</ele>
        <time>2022-01-08T11:54:36Z</time>
      </trkpt>
      <trkpt lat="44.7879" lon="6.99953">
        <ele>2619</ele>
        <time>2022-01-08T11:54:55Z</time>
      </trkpt>
      <trkpt lat="44.78787" lon="6.99951">
        <ele>2629</ele>
        <time>2022-01-08T11:55:00Z</time>
      </trkpt>
      <trkpt lat="44.7878" lon="6.99947">
        <ele>2641</ele>
        <time>2022-01-08T11:55:04Z</time>
      </trkpt>
      <trkpt lat="44.78778" lon="6.99945">
        <ele>2658</ele>
        <time>2022-01-08T11:55:20Z</time>
      </trkpt>
      <trkpt lat="44.78782" lon="6.99937">
        <ele>2661</ele>
        <time>2022-01-08T11:55:58Z</time>
      </trkpt>
      <trkpt lat="44.78786" lon="6.99935">
        <ele>2662</ele>
        <time>2022-01-08T11:56:02Z</time>
      </trkpt>
      <trkpt lat="44.78788" lon="6.99938">
        <ele>2663</ele>
        <time>2022-01-08T11:56:19Z</time>
      </trkpt>
      <trkpt lat="44.7879" lon="6.99935">
        <ele>2664</ele>
        <time>2022-01-08T11:56:35Z</time>
      </trkpt>
      <trkpt lat="44.78792" lon="6.99933">
        <ele>2665</ele>
        <time>2022-01-08T11:56:42Z</time>
      </trkpt>
      <trkpt lat="44.78794" lon="6.99935">
        <ele>2665</ele>
        <time>2022-01-08T11:57:09Z</time>
      </trkpt>
      <trkpt lat="44.78797" lon="6.99934">
        <ele>2665</ele>
        <time>2022-01-08T11:57:20Z</time>
      </trkpt>
      <trkpt lat="44.788" lon="6.99931">
        <ele>2665</ele>
        <time>2022-01-08T11:57:25Z</time>
      </trkpt>
      <trkpt lat="44.78802" lon="6.99929">
        <ele>2663</ele>
        <time>2022-01-08T11:57:31Z</time>
      </trkpt>
      <trkpt lat="44.78802" lon="6.99924">
        <ele>2663</ele>
        <time>2022-01-08T11:57:34Z</time>
      </trkpt>
      <trkpt lat="44.78803" lon="6.99921">
        <ele>2664</ele>
        <time>2022-01-08T11:57:39Z</time>
      </trkpt>
      <trkpt lat="44.78803" lon="6.99917">
        <ele>2665</ele>
        <time>2022-01-08T11:57:45Z</time>
      </trkpt>
      <trkpt lat="44.78801" lon="6.99915">
        <ele>2674</ele>
        <time>2022-01-08T11:58:05Z</time>
      </trkpt>
      <trkpt lat="44.78802" lon="6.99915">
        <ele>2677</ele>
        <time>2022-01-08T11:58:25Z</time>
      </trkpt>
      <trkpt lat="44.78801" lon="6.99913">
        <ele>2676</ele>
        <time>2022-01-08T11:58:31Z</time>
      </trkpt>
      <trkpt lat="44.788" lon="6.9991">
        <ele>2676</ele>
        <time>2022-01-08T11:58:37Z</time>
      </trkpt>
      <trkpt lat="44.78799" lon="6.99906">
        <ele>2677</ele>
        <time>2022-01-08T11:58:41Z</time>
      </trkpt>
      <trkpt lat="44.78799" lon="6.99901">
        <ele>2677</ele>
        <time>2022-01-08T11:58:46Z</time>
      </trkpt>
      <trkpt lat="44.78799" lon="6.99898">
        <ele>2678</ele>
        <time>2022-01-08T11:58:50Z</time>
      </trkpt>
      <trkpt lat="44.78802" lon="6.99898">
        <ele>2678</ele>
        <time>2022-01-08T11:58:56Z</time>
      </trkpt>
      <trkpt lat="44.78804" lon="6.99896">
        <ele>2679</ele>
        <time>2022-01-08T11:59:01Z</time>
      </trkpt>
      <trkpt lat="44.78806" lon="6.99893">
        <ele>2679</ele>
        <time>2022-01-08T11:59:08Z</time>
      </trkpt>
      <trkpt lat="44.78804" lon="6.9989">
        <ele>2680</ele>
        <time>2022-01-08T11:59:13Z</time>
      </trkpt>
      <trkpt lat="44.78803" lon="6.99887">
        <ele>2682</ele>
        <time>2022-01-08T11:59:19Z</time>
      </trkpt>
      <trkpt lat="44.78806" lon="6.99885">
        <ele>2683</ele>
        <time>2022-01-08T11:59:23Z</time>
      </trkpt>
      <trkpt lat="44.78805" lon="6.99882">
        <ele>2685</ele>
        <time>2022-01-08T11:59:30Z</time>
      </trkpt>
      <trkpt lat="44.78805" lon="6.99879">
        <ele>2686</ele>
        <time>2022-01-08T11:59:40Z</time>
      </trkpt>
      <trkpt lat="44.78806" lon="6.99876">
        <ele>2688</ele>
        <time>2022-01-08T11:59:47Z</time>
      </trkpt>
      <trkpt lat="44.78806" lon="6.99874">
        <ele>2690</ele>
        <time>2022-01-08T12:00:12Z</time>
      </trkpt>
      <trkpt lat="44.78807" lon="6.99874">
        <ele>2692</ele>
        <time>2022-01-08T12:00:33Z</time>
      </trkpt>
      <trkpt lat="44.78808" lon="6.99872">
        <ele>2691</ele>
        <time>2022-01-08T12:00:35Z</time>
      </trkpt>
      <trkpt lat="44.78808" lon="6.99869">
        <ele>2690</ele>
        <time>2022-01-08T12:00:42Z</time>
      </trkpt>
      <trkpt lat="44.7881" lon="6.99867">
        <ele>2690</ele>
        <time>2022-01-08T12:00:45Z</time>
      </trkpt>
      <trkpt lat="44.78806" lon="6.99865">
        <ele>2695</ele>
        <time>2022-01-08T12:01:16Z</time>
      </trkpt>
      <trkpt lat="44.78803" lon="6.99866">
        <ele>2695</ele>
        <time>2022-01-08T12:01:19Z</time>
      </trkpt>
      <trkpt lat="44.78803" lon="6.99863">
        <ele>2696</ele>
        <time>2022-01-08T12:01:27Z</time>
      </trkpt>
      <trkpt lat="44.78807" lon="6.99859">
        <ele>2695</ele>
        <time>2022-01-08T12:01:34Z</time>
      </trkpt>
      <trkpt lat="44.78808" lon="6.99856">
        <ele>2696</ele>
        <time>2022-01-08T12:01:47Z</time>
      </trkpt>
      <trkpt lat="44.7881" lon="6.99856">
        <ele>2695</ele>
        <time>2022-01-08T12:01:48Z</time>
      </trkpt>
      <trkpt lat="44.78811" lon="6.99859">
        <ele>2696</ele>
        <time>2022-01-08T12:01:56Z</time>
      </trkpt>
      <trkpt lat="44.78812" lon="6.99858">
        <ele>2704</ele>
        <time>2022-01-08T12:02:23Z</time>
      </trkpt>
      <trkpt lat="44.78812" lon="6.99855">
        <ele>2704</ele>
        <time>2022-01-08T12:02:26Z</time>
      </trkpt>
      <trkpt lat="44.78812" lon="6.9985">
        <ele>2704</ele>
        <time>2022-01-08T12:02:32Z</time>
      </trkpt>
      <trkpt lat="44.78812" lon="6.99847">
        <ele>2704</ele>
        <time>2022-01-08T12:02:35Z</time>
      </trkpt>
      <trkpt lat="44.78815" lon="6.99844">
        <ele>2703</ele>
        <time>2022-01-08T12:02:38Z</time>
      </trkpt>
      <trkpt lat="44.78817" lon="6.99846">
        <ele>2701</ele>
        <time>2022-01-08T12:02:46Z</time>
      </trkpt>
      <trkpt lat="44.78816" lon="6.99844">
        <ele>2706</ele>
        <time>2022-01-08T12:03:09Z</time>
      </trkpt>
      <trkpt lat="44.78817" lon="6.9984">
        <ele>2708</ele>
        <time>2022-01-08T12:03:14Z</time>
      </trkpt>
      <trkpt lat="44.7882" lon="6.99842">
        <ele>2708</ele>
        <time>2022-01-08T12:03:16Z</time>
      </trkpt>
      <trkpt lat="44.78823" lon="6.99842">
        <ele>2708</ele>
        <time>2022-01-08T12:03:19Z</time>
      </trkpt>
      <trkpt lat="44.78824" lon="6.99846">
        <ele>2707</ele>
        <time>2022-01-08T12:03:26Z</time>
      </trkpt>
      <trkpt lat="44.78826" lon="6.99848">
        <ele>2705</ele>
        <time>2022-01-08T12:03:30Z</time>
      </trkpt>
      <trkpt lat="44.78827" lon="6.99851">
        <ele>2706</ele>
        <time>2022-01-08T12:03:33Z</time>
      </trkpt>
      <trkpt lat="44.78828" lon="6.99853">
        <ele>2706</ele>
        <time>2022-01-08T12:03:39Z</time>
      </trkpt>
      <trkpt lat="44.78831" lon="6.99855">
        <ele>2706</ele>
        <time>2022-01-08T12:03:43Z</time>
      </trkpt>
      <trkpt lat="44.78832" lon="6.99858">
        <ele>2701</ele>
        <time>2022-01-08T12:03:59Z</time>
      </trkpt>
      <trkpt lat="44.78834" lon="6.99858">
        <ele>2700</ele>
        <time>2022-01-08T12:04:03Z</time>
      </trkpt>
      <trkpt lat="44.78836" lon="6.99854">
        <ele>2700</ele>
        <time>2022-01-08T12:04:08Z</time>
      </trkpt>
      <trkpt lat="44.78837" lon="6.99855">
        <ele>2698</ele>
        <time>2022-01-08T12:04:30Z</time>
      </trkpt>
      <trkpt lat="44.7884" lon="6.99851">
        <ele>2697</ele>
        <time>2022-01-08T12:04:37Z</time>
      </trkpt>
      <trkpt lat="44.78839" lon="6.99847">
        <ele>2697</ele>
        <time>2022-01-08T12:04:43Z</time>
      </trkpt>
      <trkpt lat="44.78835" lon="6.99845">
        <ele>2698</ele>
        <time>2022-01-08T12:04:46Z</time>
      </trkpt>
      <trkpt lat="44.78834" lon="6.99841">
        <ele>2703</ele>
        <time>2022-01-08T12:04:49Z</time>
      </trkpt>
      <trkpt lat="44.78824" lon="6.99842">
        <ele>2718</ele>
        <time>2022-01-08T12:05:02Z</time>
      </trkpt>
      <trkpt lat="44.78828" lon="6.99837">
        <ele>2722</ele>
        <time>2022-01-08T12:05:10Z</time>
      </trkpt>
      <trkpt lat="44.78831" lon="6.99838">
        <ele>2724</ele>
        <time>2022-01-08T12:05:24Z</time>
      </trkpt>
      <trkpt lat="44.78832" lon="6.99837">
        <ele>2724</ele>
        <time>2022-01-08T12:05:31Z</time>
      </trkpt>
      <trkpt lat="44.78835" lon="6.99835">
        <ele>2723</ele>
        <time>2022-01-08T12:05:36Z</time>
      </trkpt>
      <trkpt lat="44.78837" lon="6.99832">
        <ele>2720</ele>
        <time>2022-01-08T12:05:38Z</time>
      </trkpt>
      <trkpt lat="44.7884" lon="6.99831">
        <ele>2718</ele>
        <time>2022-01-08T12:05:40Z</time>
      </trkpt>
      <trkpt lat="44.78841" lon="6.99834">
        <ele>2717</ele>
        <time>2022-01-08T12:05:45Z</time>
      </trkpt>
      <trkpt lat="44.78844" lon="6.99832">
        <ele>2716</ele>
        <time>2022-01-08T12:05:50Z</time>
      </trkpt>
      <trkpt lat="44.78843" lon="6.9983">
        <ele>2716</ele>
        <time>2022-01-08T12:05:58Z</time>
      </trkpt>
      <trkpt lat="44.78842" lon="6.99826">
        <ele>2719</ele>
        <time>2022-01-08T12:06:06Z</time>
      </trkpt>
      <trkpt lat="44.7884" lon="6.99823">
        <ele>2720</ele>
        <time>2022-01-08T12:06:09Z</time>
      </trkpt>
      <trkpt lat="44.7884" lon="6.9982">
        <ele>2720</ele>
        <time>2022-01-08T12:06:15Z</time>
      </trkpt>
      <trkpt lat="44.78842" lon="6.99819">
        <ele>2719</ele>
        <time>2022-01-08T12:06:23Z</time>
      </trkpt>
      <trkpt lat="44.78844" lon="6.99817">
        <ele>2719</ele>
        <time>2022-01-08T12:06:27Z</time>
      </trkpt>
      <trkpt lat="44.78845" lon="6.99814">
        <ele>2718</ele>
        <time>2022-01-08T12:06:33Z</time>
      </trkpt>
      <trkpt lat="44.78847" lon="6.99814">
        <ele>2718</ele>
        <time>2022-01-08T12:06:39Z</time>
      </trkpt>
      <trkpt lat="44.7885" lon="6.99815">
        <ele>2717</ele>
        <time>2022-01-08T12:06:44Z</time>
      </trkpt>
      <trkpt lat="44.78849" lon="6.99819">
        <ele>2717</ele>
        <time>2022-01-08T12:06:48Z</time>
      </trkpt>
      <trkpt lat="44.78849" lon="6.99821">
        <ele>2717</ele>
        <time>2022-01-08T12:07:04Z</time>
      </trkpt>
      <trkpt lat="44.78851" lon="6.99819">
        <ele>2716</ele>
        <time>2022-01-08T12:07:10Z</time>
      </trkpt>
      <trkpt lat="44.78852" lon="6.99817">
        <ele>2715</ele>
        <time>2022-01-08T12:07:15Z</time>
      </trkpt>
      <trkpt lat="44.78854" lon="6.99816">
        <ele>2716</ele>
        <time>2022-01-08T12:07:19Z</time>
      </trkpt>
      <trkpt lat="44.78856" lon="6.99816">
        <ele>2717</ele>
        <time>2022-01-08T12:07:32Z</time>
      </trkpt>
      <trkpt lat="44.78857" lon="6.99812">
        <ele>2718</ele>
        <time>2022-01-08T12:07:45Z</time>
      </trkpt>
      <trkpt lat="44.78857" lon="6.99812">
        <ele>2723</ele>
        <time>2022-01-08T12:08:00Z</time>
      </trkpt>
      <trkpt lat="44.7886" lon="6.99812">
        <ele>2723</ele>
        <time>2022-01-08T12:08:05Z</time>
      </trkpt>
      <trkpt lat="44.7886" lon="6.99807">
        <ele>2724</ele>
        <time>2022-01-08T12:08:17Z</time>
      </trkpt>
      <trkpt lat="44.78861" lon="6.99807">
        <ele>2725</ele>
        <time>2022-01-08T12:08:25Z</time>
      </trkpt>
      <trkpt lat="44.78864" lon="6.99807">
        <ele>2725</ele>
        <time>2022-01-08T12:08:32Z</time>
      </trkpt>
      <trkpt lat="44.78867" lon="6.99806">
        <ele>2725</ele>
        <time>2022-01-08T12:08:40Z</time>
      </trkpt>
      <trkpt lat="44.78867" lon="6.9981">
        <ele>2725</ele>
        <time>2022-01-08T12:08:45Z</time>
      </trkpt>
      <trkpt lat="44.78867" lon="6.99813">
        <ele>2727</ele>
        <time>2022-01-08T12:08:49Z</time>
      </trkpt>
      <trkpt lat="44.78868" lon="6.99816">
        <ele>2730</ele>
        <time>2022-01-08T12:09:11Z</time>
      </trkpt>
      <trkpt lat="44.7887" lon="6.99817">
        <ele>2733</ele>
        <time>2022-01-08T12:09:21Z</time>
      </trkpt>
      <trkpt lat="44.78872" lon="6.99816">
        <ele>2734</ele>
        <time>2022-01-08T12:09:25Z</time>
      </trkpt>
      <trkpt lat="44.78872" lon="6.99825">
        <ele>2738</ele>
        <time>2022-01-08T12:09:44Z</time>
      </trkpt>
      <trkpt lat="44.78873" lon="6.99829">
        <ele>2741</ele>
        <time>2022-01-08T12:10:08Z</time>
      </trkpt>
      <trkpt lat="44.78871" lon="6.99831">
        <ele>2744</ele>
        <time>2022-01-08T12:10:52Z</time>
      </trkpt>
      <trkpt lat="44.78871" lon="6.99835">
        <ele>2745</ele>
        <time>2022-01-08T12:10:54Z</time>
      </trkpt>
      <trkpt lat="44.7887" lon="6.99838">
        <ele>2745</ele>
        <time>2022-01-08T12:10:56Z</time>
      </trkpt>
      <trkpt lat="44.78871" lon="6.99841">
        <ele>2745</ele>
        <time>2022-01-08T12:11:01Z</time>
      </trkpt>
      <trkpt lat="44.78872" lon="6.99844">
        <ele>2746</ele>
        <time>2022-01-08T12:11:07Z</time>
      </trkpt>
      <trkpt lat="44.7887" lon="6.99845">
        <ele>2747</ele>
        <time>2022-01-08T12:11:09Z</time>
      </trkpt>
      <trkpt lat="44.78872" lon="6.99847">
        <ele>2749</ele>
        <time>2022-01-08T12:11:16Z</time>
      </trkpt>
      <trkpt lat="44.78871" lon="6.99848">
        <ele>2754</ele>
        <time>2022-01-08T12:11:21Z</time>
      </trkpt>
      <trkpt lat="44.78875" lon="6.99842">
        <ele>2757</ele>
        <time>2022-01-08T12:11:44Z</time>
      </trkpt>
      <trkpt lat="44.78874" lon="6.99846">
        <ele>2758</ele>
        <time>2022-01-08T12:11:48Z</time>
      </trkpt>
      <trkpt lat="44.78875" lon="6.99849">
        <ele>2760</ele>
        <time>2022-01-08T12:11:55Z</time>
      </trkpt>
      <trkpt lat="44.78877" lon="6.99851">
        <ele>2761</ele>
        <time>2022-01-08T12:11:58Z</time>
      </trkpt>
      <trkpt lat="44.78879" lon="6.99851">
        <ele>2763</ele>
        <time>2022-01-08T12:12:10Z</time>
      </trkpt>
      <trkpt lat="44.78882" lon="6.9985">
        <ele>2762</ele>
        <time>2022-01-08T12:12:27Z</time>
      </trkpt>
      <trkpt lat="44.7888" lon="6.99847">
        <ele>2761</ele>
        <time>2022-01-08T12:12:34Z</time>
      </trkpt>
      <trkpt lat="44.78879" lon="6.99842">
        <ele>2762</ele>
        <time>2022-01-08T12:12:43Z</time>
      </trkpt>
      <trkpt lat="44.78881" lon="6.9984">
        <ele>2762</ele>
        <time>2022-01-08T12:12:50Z</time>
      </trkpt>
      <trkpt lat="44.78883" lon="6.99842">
        <ele>2762</ele>
        <time>2022-01-08T12:12:54Z</time>
      </trkpt>
      <trkpt lat="44.78885" lon="6.99845">
        <ele>2761</ele>
        <time>2022-01-08T12:12:56Z</time>
      </trkpt>
      <trkpt lat="44.78885" lon="6.99849">
        <ele>2761</ele>
        <time>2022-01-08T12:12:59Z</time>
      </trkpt>
      <trkpt lat="44.78885" lon="6.99852">
        <ele>2762</ele>
        <time>2022-01-08T12:13:04Z</time>
      </trkpt>
      <trkpt lat="44.78885" lon="6.9986">
        <ele>2761</ele>
        <time>2022-01-08T12:13:11Z</time>
      </trkpt>
      <trkpt lat="44.78886" lon="6.99863">
        <ele>2762</ele>
        <time>2022-01-08T12:13:20Z</time>
      </trkpt>
      <trkpt lat="44.78888" lon="6.99859">
        <ele>2764</ele>
        <time>2022-01-08T12:13:29Z</time>
      </trkpt>
      <trkpt lat="44.78891" lon="6.99859">
        <ele>2764</ele>
        <time>2022-01-08T12:13:31Z</time>
      </trkpt>
      <trkpt lat="44.78895" lon="6.99855">
        <ele>2764</ele>
        <time>2022-01-08T12:13:33Z</time>
      </trkpt>
      <trkpt lat="44.78899" lon="6.99861">
        <ele>2757</ele>
        <time>2022-01-08T12:13:51Z</time>
      </trkpt>
      <trkpt lat="44.78899" lon="6.99864">
        <ele>2755</ele>
        <time>2022-01-08T12:14:02Z</time>
      </trkpt>
      <trkpt lat="44.78897" lon="6.99866">
        <ele>2755</ele>
        <time>2022-01-08T12:14:05Z</time>
      </trkpt>
      <trkpt lat="44.78894" lon="6.99866">
        <ele>2757</ele>
        <time>2022-01-08T12:14:08Z</time>
      </trkpt>
      <trkpt lat="44.78894" lon="6.99864">
        <ele>2762</ele>
        <time>2022-01-08T12:14:31Z</time>
      </trkpt>
      <trkpt lat="44.78898" lon="6.99865">
        <ele>2763</ele>
        <time>2022-01-08T12:14:36Z</time>
      </trkpt>
      <trkpt lat="44.789" lon="6.99866">
        <ele>2763</ele>
        <time>2022-01-08T12:14:41Z</time>
      </trkpt>
      <trkpt lat="44.78903" lon="6.99868">
        <ele>2765</ele>
        <time>2022-01-08T12:14:47Z</time>
      </trkpt>
      <trkpt lat="44.78902" lon="6.99872">
        <ele>2767</ele>
        <time>2022-01-08T12:15:05Z</time>
      </trkpt>
      <trkpt lat="44.78899" lon="6.99875">
        <ele>2771</ele>
        <time>2022-01-08T12:15:19Z</time>
      </trkpt>
      <trkpt lat="44.78895" lon="6.99876">
        <ele>2774</ele>
        <time>2022-01-08T12:15:21Z</time>
      </trkpt>
      <trkpt lat="44.78897" lon="6.99879">
        <ele>2776</ele>
        <time>2022-01-08T12:15:29Z</time>
      </trkpt>
      <trkpt lat="44.78903" lon="6.99876">
        <ele>2774</ele>
        <time>2022-01-08T12:15:43Z</time>
      </trkpt>
      <trkpt lat="44.78907" lon="6.9988">
        <ele>2773</ele>
        <time>2022-01-08T12:16:08Z</time>
      </trkpt>
      <trkpt lat="44.78907" lon="6.99884">
        <ele>2773</ele>
        <time>2022-01-08T12:16:14Z</time>
      </trkpt>
      <trkpt lat="44.78904" lon="6.99888">
        <ele>2774</ele>
        <time>2022-01-08T12:16:32Z</time>
      </trkpt>
      <trkpt lat="44.78902" lon="6.99891">
        <ele>2775</ele>
        <time>2022-01-08T12:16:37Z</time>
      </trkpt>
      <trkpt lat="44.789" lon="6.99892">
        <ele>2776</ele>
        <time>2022-01-08T12:16:38Z</time>
      </trkpt>
      <trkpt lat="44.78899" lon="6.99894">
        <ele>2777</ele>
        <time>2022-01-08T12:16:46Z</time>
      </trkpt>
      <trkpt lat="44.789" lon="6.99897">
        <ele>2779</ele>
        <time>2022-01-08T12:16:59Z</time>
      </trkpt>
      <trkpt lat="44.78897" lon="6.99907">
        <ele>2784</ele>
        <time>2022-01-08T12:17:11Z</time>
      </trkpt>
      <trkpt lat="44.78898" lon="6.99905">
        <ele>2789</ele>
        <time>2022-01-08T12:17:29Z</time>
      </trkpt>
      <trkpt lat="44.78902" lon="6.99904">
        <ele>2789</ele>
        <time>2022-01-08T12:17:40Z</time>
      </trkpt>
      <trkpt lat="44.78904" lon="6.99902">
        <ele>2789</ele>
        <time>2022-01-08T12:17:43Z</time>
      </trkpt>
      <trkpt lat="44.78903" lon="6.99898">
        <ele>2788</ele>
        <time>2022-01-08T12:17:57Z</time>
      </trkpt>
      <trkpt lat="44.789" lon="6.99899">
        <ele>2787</ele>
        <time>2022-01-08T12:18:10Z</time>
      </trkpt>
      <trkpt lat="44.78898" lon="6.99899">
        <ele>2792</ele>
        <time>2022-01-08T12:18:15Z</time>
      </trkpt>
      <trkpt lat="44.78897" lon="6.99901">
        <ele>2795</ele>
        <time>2022-01-08T12:18:21Z</time>
      </trkpt>
      <trkpt lat="44.78896" lon="6.99905">
        <ele>2799</ele>
        <time>2022-01-08T12:18:26Z</time>
      </trkpt>
      <trkpt lat="44.78894" lon="6.99905">
        <ele>2803</ele>
        <time>2022-01-08T12:18:37Z</time>
      </trkpt>
      <trkpt lat="44.78894" lon="6.99908">
        <ele>2803</ele>
        <time>2022-01-08T12:18:51Z</time>
      </trkpt>
      <trkpt lat="44.78895" lon="6.9991">
        <ele>2805</ele>
        <time>2022-01-08T12:18:59Z</time>
      </trkpt>
      <trkpt lat="44.78897" lon="6.99912">
        <ele>2805</ele>
        <time>2022-01-08T12:19:04Z</time>
      </trkpt>
      <trkpt lat="44.78898" lon="6.99915">
        <ele>2802</ele>
        <time>2022-01-08T12:19:12Z</time>
      </trkpt>
      <trkpt lat="44.78898" lon="6.99918">
        <ele>2801</ele>
        <time>2022-01-08T12:19:16Z</time>
      </trkpt>
      <trkpt lat="44.78898" lon="6.9992">
        <ele>2801</ele>
        <time>2022-01-08T12:19:23Z</time>
      </trkpt>
      <trkpt lat="44.78896" lon="6.99919">
        <ele>2802</ele>
        <time>2022-01-08T12:19:34Z</time>
      </trkpt>
      <trkpt lat="44.78895" lon="6.99921">
        <ele>2805</ele>
        <time>2022-01-08T12:19:40Z</time>
      </trkpt>
      <trkpt lat="44.78893" lon="6.99923">
        <ele>2807</ele>
        <time>2022-01-08T12:19:49Z</time>
      </trkpt>
      <trkpt lat="44.78892" lon="6.99924">
        <ele>2811</ele>
        <time>2022-01-08T12:19:59Z</time>
      </trkpt>
      <trkpt lat="44.78894" lon="6.99926">
        <ele>2812</ele>
        <time>2022-01-08T12:20:07Z</time>
      </trkpt>
      <trkpt lat="44.78896" lon="6.99927">
        <ele>2812</ele>
        <time>2022-01-08T12:20:22Z</time>
      </trkpt>
      <trkpt lat="44.78898" lon="6.99925">
        <ele>2811</ele>
        <time>2022-01-08T12:20:30Z</time>
      </trkpt>
      <trkpt lat="44.78899" lon="6.99927">
        <ele>2810</ele>
        <time>2022-01-08T12:20:35Z</time>
      </trkpt>
      <trkpt lat="44.78901" lon="6.99928">
        <ele>2809</ele>
        <time>2022-01-08T12:20:41Z</time>
      </trkpt>
      <trkpt lat="44.78902" lon="6.99931">
        <ele>2809</ele>
        <time>2022-01-08T12:20:46Z</time>
      </trkpt>
      <trkpt lat="44.78904" lon="6.99935">
        <ele>2806</ele>
        <time>2022-01-08T12:20:58Z</time>
      </trkpt>
      <trkpt lat="44.78901" lon="6.99936">
        <ele>2803</ele>
        <time>2022-01-08T12:21:15Z</time>
      </trkpt>
      <trkpt lat="44.78898" lon="6.99934">
        <ele>2804</ele>
        <time>2022-01-08T12:21:23Z</time>
      </trkpt>
      <trkpt lat="44.78896" lon="6.99934">
        <ele>2806</ele>
        <time>2022-01-08T12:21:29Z</time>
      </trkpt>
      <trkpt lat="44.78883" lon="6.9993">
        <ele>2823</ele>
        <time>2022-01-08T12:21:50Z</time>
      </trkpt>
      <trkpt lat="44.78883" lon="6.9993">
        <ele>2827</ele>
        <time>2022-01-08T12:22:21Z</time>
      </trkpt>
      <trkpt lat="44.78885" lon="6.99931">
        <ele>2827</ele>
        <time>2022-01-08T12:22:52Z</time>
      </trkpt>
      <trkpt lat="44.78888" lon="6.99934">
        <ele>2826</ele>
        <time>2022-01-08T12:22:59Z</time>
      </trkpt>
      <trkpt lat="44.78894" lon="6.99935">
        <ele>2819</ele>
        <time>2022-01-08T12:23:06Z</time>
      </trkpt>
      <trkpt lat="44.78899" lon="6.99937">
        <ele>2810</ele>
        <time>2022-01-08T12:23:16Z</time>
      </trkpt>
      <trkpt lat="44.78902" lon="6.99937">
        <ele>2805</ele>
        <time>2022-01-08T12:23:24Z</time>
      </trkpt>
      <trkpt lat="44.78902" lon="6.99936">
        <ele>2807</ele>
        <time>2022-01-08T12:23:54Z</time>
      </trkpt>
      <trkpt lat="44.78904" lon="6.99933">
        <ele>2810</ele>
        <time>2022-01-08T12:24:09Z</time>
      </trkpt>
      <trkpt lat="44.78902" lon="6.99929">
        <ele>2811</ele>
        <time>2022-01-08T12:24:30Z</time>
      </trkpt>
      <trkpt lat="44.78903" lon="6.9993">
        <ele>2811</ele>
        <time>2022-01-08T12:24:38Z</time>
      </trkpt>
      <trkpt lat="44.78905" lon="6.99931">
        <ele>2811</ele>
        <time>2022-01-08T12:24:43Z</time>
      </trkpt>
      <trkpt lat="44.78906" lon="6.9993">
        <ele>2813</ele>
        <time>2022-01-08T12:25:13Z</time>
      </trkpt>
      <trkpt lat="44.78907" lon="6.99932">
        <ele>2814</ele>
        <time>2022-01-08T12:25:53Z</time>
      </trkpt>
      <trkpt lat="44.78908" lon="6.99935">
        <ele>2814</ele>
        <time>2022-01-08T12:26:03Z</time>
      </trkpt>
      <trkpt lat="44.78908" lon="6.9994">
        <ele>2818</ele>
        <time>2022-01-08T12:26:17Z</time>
      </trkpt>
      <trkpt lat="44.78913" lon="6.99952">
        <ele>2821</ele>
        <time>2022-01-08T12:27:06Z</time>
      </trkpt>
      <trkpt lat="44.7892" lon="6.99946">
        <ele>2825</ele>
        <time>2022-01-08T12:27:53Z</time>
      </trkpt>
      <trkpt lat="44.78922" lon="6.99946">
        <ele>2827</ele>
        <time>2022-01-08T12:28:02Z</time>
      </trkpt>
      <trkpt lat="44.78923" lon="6.99951">
        <ele>2830</ele>
        <time>2022-01-08T12:28:12Z</time>
      </trkpt>
      <trkpt lat="44.78926" lon="6.99959">
        <ele>2836</ele>
        <time>2022-01-08T12:28:44Z</time>
      </trkpt>
      <trkpt lat="44.78928" lon="6.9996">
        <ele>2838</ele>
        <time>2022-01-08T12:28:57Z</time>
      </trkpt>
      <trkpt lat="44.78929" lon="6.99959">
        <ele>2838</ele>
        <time>2022-01-08T12:29:03Z</time>
      </trkpt>
      <trkpt lat="44.7893" lon="6.99959">
        <ele>2839</ele>
        <time>2022-01-08T12:29:11Z</time>
      </trkpt>
      <trkpt lat="44.78932" lon="6.99953">
        <ele>2840</ele>
        <time>2022-01-08T12:29:22Z</time>
      </trkpt>
      <trkpt lat="44.78937" lon="6.99948">
        <ele>2842</ele>
        <time>2022-01-08T12:29:42Z</time>
      </trkpt>
      <trkpt lat="44.78941" lon="6.99947">
        <ele>2843</ele>
        <time>2022-01-08T12:29:51Z</time>
      </trkpt>
      <trkpt lat="44.78942" lon="6.99945">
        <ele>2843</ele>
        <time>2022-01-08T12:29:55Z</time>
      </trkpt>
      <trkpt lat="44.78944" lon="6.99944">
        <ele>2844</ele>
        <time>2022-01-08T12:30:08Z</time>
      </trkpt>
      <trkpt lat="44.78944" lon="6.99938">
        <ele>2845</ele>
        <time>2022-01-08T12:30:21Z</time>
      </trkpt>
      <trkpt lat="44.78945" lon="6.99936">
        <ele>2846</ele>
        <time>2022-01-08T12:30:26Z</time>
      </trkpt>
      <trkpt lat="44.78947" lon="6.99931">
        <ele>2847</ele>
        <time>2022-01-08T12:30:39Z</time>
      </trkpt>
      <trkpt lat="44.78949" lon="6.99927">
        <ele>2850</ele>
        <time>2022-01-08T12:30:54Z</time>
      </trkpt>
      <trkpt lat="44.78948" lon="6.99926">
        <ele>2850</ele>
        <time>2022-01-08T12:31:00Z</time>
      </trkpt>
      <trkpt lat="44.78953" lon="6.9992">
        <ele>2852</ele>
        <time>2022-01-08T12:31:30Z</time>
      </trkpt>
      <trkpt lat="44.78959" lon="6.9993">
        <ele>2858</ele>
        <time>2022-01-08T12:32:23Z</time>
      </trkpt>
      <trkpt lat="44.78959" lon="6.99932">
        <ele>2860</ele>
        <time>2022-01-08T12:32:25Z</time>
      </trkpt>
      <trkpt lat="44.7896" lon="6.99934">
        <ele>2863</ele>
        <time>2022-01-08T12:32:31Z</time>
      </trkpt>
      <trkpt lat="44.78961" lon="6.99938">
        <ele>2866</ele>
        <time>2022-01-08T12:32:44Z</time>
      </trkpt>
      <trkpt lat="44.78965" lon="6.99937">
        <ele>2867</ele>
        <time>2022-01-08T12:33:07Z</time>
      </trkpt>
      <trkpt lat="44.78966" lon="6.99936">
        <ele>2868</ele>
        <time>2022-01-08T12:33:16Z</time>
      </trkpt>
      <trkpt lat="44.7897" lon="6.99934">
        <ele>2869</ele>
        <time>2022-01-08T12:33:44Z</time>
      </trkpt>
      <trkpt lat="44.78971" lon="6.99936">
        <ele>2870</ele>
        <time>2022-01-08T12:33:48Z</time>
      </trkpt>
      <trkpt lat="44.78971" lon="6.99943">
        <ele>2874</ele>
        <time>2022-01-08T12:34:17Z</time>
      </trkpt>
      <trkpt lat="44.78973" lon="6.99945">
        <ele>2878</ele>
        <time>2022-01-08T12:34:38Z</time>
      </trkpt>
      <trkpt lat="44.78977" lon="6.99947">
        <ele>2881</ele>
        <time>2022-01-08T12:34:55Z</time>
      </trkpt>
      <trkpt lat="44.78978" lon="6.99946">
        <ele>2881</ele>
        <time>2022-01-08T12:34:58Z</time>
      </trkpt>
      <trkpt lat="44.78985" lon="6.99948">
        <ele>2881</ele>
        <time>2022-01-08T12:35:13Z</time>
      </trkpt>
      <trkpt lat="44.78987" lon="6.99949">
        <ele>2881</ele>
        <time>2022-01-08T12:35:16Z</time>
      </trkpt>
      <trkpt lat="44.78988" lon="6.99951">
        <ele>2880</ele>
        <time>2022-01-08T12:35:40Z</time>
      </trkpt>
      <trkpt lat="44.78989" lon="6.9995">
        <ele>2880</ele>
        <time>2022-01-08T12:35:44Z</time>
      </trkpt>
      <trkpt lat="44.78991" lon="6.99952">
        <ele>2880</ele>
        <time>2022-01-08T12:35:47Z</time>
      </trkpt>
      <trkpt lat="44.78993" lon="6.99953">
        <ele>2879</ele>
        <time>2022-01-08T12:35:50Z</time>
      </trkpt>
      <trkpt lat="44.78995" lon="6.99954">
        <ele>2878</ele>
        <time>2022-01-08T12:35:54Z</time>
      </trkpt>
      <trkpt lat="44.78996" lon="6.99957">
        <ele>2878</ele>
        <time>2022-01-08T12:35:57Z</time>
      </trkpt>
      <trkpt lat="44.78996" lon="6.99964">
        <ele>2880</ele>
        <time>2022-01-08T12:36:03Z</time>
      </trkpt>
      <trkpt lat="44.78998" lon="6.99966">
        <ele>2884</ele>
        <time>2022-01-08T12:36:07Z</time>
      </trkpt>
      <trkpt lat="44.79" lon="6.99967">
        <ele>2887</ele>
        <time>2022-01-08T12:36:15Z</time>
      </trkpt>
      <trkpt lat="44.79001" lon="6.99966">
        <ele>2889</ele>
        <time>2022-01-08T12:36:18Z</time>
      </trkpt>
      <trkpt lat="44.79006" lon="6.9997">
        <ele>2890</ele>
        <time>2022-01-08T12:36:28Z</time>
      </trkpt>
      <trkpt lat="44.79008" lon="6.99971">
        <ele>2890</ele>
        <time>2022-01-08T12:36:31Z</time>
      </trkpt>
      <trkpt lat="44.79008" lon="6.99974">
        <ele>2889</ele>
        <time>2022-01-08T12:36:36Z</time>
      </trkpt>
      <trkpt lat="44.79007" lon="6.99977">
        <ele>2888</ele>
        <time>2022-01-08T12:36:39Z</time>
      </trkpt>
      <trkpt lat="44.79006" lon="6.99978">
        <ele>2888</ele>
        <time>2022-01-08T12:36:47Z</time>
      </trkpt>
      <trkpt lat="44.79005" lon="6.99976">
        <ele>2887</ele>
        <time>2022-01-08T12:36:58Z</time>
      </trkpt>
      <trkpt lat="44.79004" lon="6.99976">
        <ele>2888</ele>
        <time>2022-01-08T12:37:06Z</time>
      </trkpt>
      <trkpt lat="44.79003" lon="6.99974">
        <ele>2889</ele>
        <time>2022-01-08T12:37:12Z</time>
      </trkpt>
      <trkpt lat="44.79003" lon="6.99973">
        <ele>2889</ele>
        <time>2022-01-08T12:37:14Z</time>
      </trkpt>
      <trkpt lat="44.79002" lon="6.99971">
        <ele>2889</ele>
        <time>2022-01-08T12:37:17Z</time>
      </trkpt>
      <trkpt lat="44.79" lon="6.9997">
        <ele>2888</ele>
        <time>2022-01-08T12:37:25Z</time>
      </trkpt>
      <trkpt lat="44.78998" lon="6.99967">
        <ele>2887</ele>
        <time>2022-01-08T12:37:30Z</time>
      </trkpt>
      <trkpt lat="44.78997" lon="6.99968">
        <ele>2888</ele>
        <time>2022-01-08T12:37:34Z</time>
      </trkpt>
      <trkpt lat="44.78995" lon="6.9997">
        <ele>2888</ele>
        <time>2022-01-08T12:37:36Z</time>
      </trkpt>
      <trkpt lat="44.78994" lon="6.99972">
        <ele>2888</ele>
        <time>2022-01-08T12:37:39Z</time>
      </trkpt>
      <trkpt lat="44.78994" lon="6.99973">
        <ele>2889</ele>
        <time>2022-01-08T12:38:10Z</time>
      </trkpt>
      <trkpt lat="44.78992" lon="6.99971">
        <ele>2889</ele>
        <time>2022-01-08T12:38:13Z</time>
      </trkpt>
      <trkpt lat="44.78991" lon="6.99971">
        <ele>2889</ele>
        <time>2022-01-08T12:38:17Z</time>
      </trkpt>
      <trkpt lat="44.7899" lon="6.99973">
        <ele>2889</ele>
        <time>2022-01-08T12:38:24Z</time>
      </trkpt>
      <trkpt lat="44.78988" lon="6.99972">
        <ele>2890</ele>
        <time>2022-01-08T12:38:27Z</time>
      </trkpt>
      <trkpt lat="44.78986" lon="6.99971">
        <ele>2890</ele>
        <time>2022-01-08T12:38:33Z</time>
      </trkpt>
      <trkpt lat="44.78984" lon="6.99973">
        <ele>2889</ele>
        <time>2022-01-08T12:38:37Z</time>
      </trkpt>
      <trkpt lat="44.78982" lon="6.99976">
        <ele>2889</ele>
        <time>2022-01-08T12:38:43Z</time>
      </trkpt>
      <trkpt lat="44.78981" lon="6.99973">
        <ele>2889</ele>
        <time>2022-01-08T12:38:46Z</time>
      </trkpt>
      <trkpt lat="44.78979" lon="6.99971">
        <ele>2887</ele>
        <time>2022-01-08T12:38:49Z</time>
      </trkpt>
      <trkpt lat="44.7898" lon="6.99967">
        <ele>2885</ele>
        <time>2022-01-08T12:38:52Z</time>
      </trkpt>
      <trkpt lat="44.78979" lon="6.99964">
        <ele>2881</ele>
        <time>2022-01-08T12:39:19Z</time>
      </trkpt>
      <trkpt lat="44.78977" lon="6.99962">
        <ele>2880</ele>
        <time>2022-01-08T12:39:22Z</time>
      </trkpt>
      <trkpt lat="44.78974" lon="6.99971">
        <ele>2879</ele>
        <time>2022-01-08T12:39:29Z</time>
      </trkpt>
      <trkpt lat="44.78974" lon="6.99981">
        <ele>2879</ele>
        <time>2022-01-08T12:39:33Z</time>
      </trkpt>
      <trkpt lat="44.78976" lon="6.99975">
        <ele>2879</ele>
        <time>2022-01-08T12:39:36Z</time>
      </trkpt>
      <trkpt lat="44.78977" lon="6.9997">
        <ele>2879</ele>
        <time>2022-01-08T12:39:37Z</time>
      </trkpt>
      <trkpt lat="44.78975" lon="6.99972">
        <ele>2878</ele>
        <time>2022-01-08T12:39:39Z</time>
      </trkpt>
      <trkpt lat="44.78975" lon="6.99967">
        <ele>2877</ele>
        <time>2022-01-08T12:39:41Z</time>
      </trkpt>
      <trkpt lat="44.78974" lon="6.99963">
        <ele>2876</ele>
        <time>2022-01-08T12:39:43Z</time>
      </trkpt>
      <trkpt lat="44.78975" lon="6.99959">
        <ele>2874</ele>
        <time>2022-01-08T12:39:47Z</time>
      </trkpt>
      <trkpt lat="44.78972" lon="6.9996">
        <ele>2868</ele>
        <time>2022-01-08T12:39:54Z</time>
      </trkpt>
      <trkpt lat="44.78972" lon="6.99962">
        <ele>2867</ele>
        <time>2022-01-08T12:40:05Z</time>
      </trkpt>
      <trkpt lat="44.78972" lon="6.99967">
        <ele>2867</ele>
        <time>2022-01-08T12:40:13Z</time>
      </trkpt>
      <trkpt lat="44.78974" lon="6.99969">
        <ele>2870</ele>
        <time>2022-01-08T12:40:22Z</time>
      </trkpt>
      <trkpt lat="44.78975" lon="6.99966">
        <ele>2875</ele>
        <time>2022-01-08T12:40:52Z</time>
      </trkpt>
      <trkpt lat="44.78972" lon="6.99967">
        <ele>2875</ele>
        <time>2022-01-08T12:40:58Z</time>
      </trkpt>
      <trkpt lat="44.78974" lon="6.99971">
        <ele>2877</ele>
        <time>2022-01-08T12:41:12Z</time>
      </trkpt>
      <trkpt lat="44.78976" lon="6.99969">
        <ele>2878</ele>
        <time>2022-01-08T12:41:16Z</time>
      </trkpt>
      <trkpt lat="44.78978" lon="6.99967">
        <ele>2883</ele>
        <time>2022-01-08T12:41:21Z</time>
      </trkpt>
      <trkpt lat="44.78979" lon="6.99967">
        <ele>2882</ele>
        <time>2022-01-08T12:42:14Z</time>
      </trkpt>
      <trkpt lat="44.78976" lon="6.9997">
        <ele>2881</ele>
        <time>2022-01-08T12:42:28Z</time>
      </trkpt>
      <trkpt lat="44.78977" lon="6.99974">
        <ele>2879</ele>
        <time>2022-01-08T12:42:47Z</time>
      </trkpt>
      <trkpt lat="44.7898" lon="6.99975">
        <ele>2884</ele>
        <time>2022-01-08T12:42:59Z</time>
      </trkpt>
      <trkpt lat="44.78979" lon="6.99979">
        <ele>2886</ele>
        <time>2022-01-08T12:43:06Z</time>
      </trkpt>
      <trkpt lat="44.78981" lon="6.99978">
        <ele>2887</ele>
        <time>2022-01-08T12:43:12Z</time>
      </trkpt>
      <trkpt lat="44.78979" lon="6.99975">
        <ele>2888</ele>
        <time>2022-01-08T12:43:18Z</time>
      </trkpt>
      <trkpt lat="44.78978" lon="6.99975">
        <ele>2888</ele>
        <time>2022-01-08T12:43:28Z</time>
      </trkpt>
      <trkpt lat="44.78977" lon="6.99977">
        <ele>2888</ele>
        <time>2022-01-08T12:43:30Z</time>
      </trkpt>
      <trkpt lat="44.78974" lon="6.99978">
        <ele>2887</ele>
        <time>2022-01-08T12:43:37Z</time>
      </trkpt>
      <trkpt lat="44.78975" lon="6.99975">
        <ele>2886</ele>
        <time>2022-01-08T12:43:50Z</time>
      </trkpt>
      <trkpt lat="44.78975" lon="6.99967">
        <ele>2883</ele>
        <time>2022-01-08T12:44:17Z</time>
      </trkpt>
      <trkpt lat="44.78976" lon="6.99965">
        <ele>2879</ele>
        <time>2022-01-08T12:44:46Z</time>
      </trkpt>
      <trkpt lat="44.78975" lon="6.9997">
        <ele>2878</ele>
        <time>2022-01-08T12:45:13Z</time>
      </trkpt>
      <trkpt lat="44.78973" lon="6.99971">
        <ele>2878</ele>
        <time>2022-01-08T12:45:17Z</time>
      </trkpt>
      <trkpt lat="44.78974" lon="6.99972">
        <ele>2877</ele>
        <time>2022-01-08T12:45:42Z</time>
      </trkpt>
      <trkpt lat="44.78977" lon="6.99965">
        <ele>2877</ele>
        <time>2022-01-08T12:46:03Z</time>
      </trkpt>
      <trkpt lat="44.78978" lon="6.99962">
        <ele>2877</ele>
        <time>2022-01-08T12:46:09Z</time>
      </trkpt>
      <trkpt lat="44.78979" lon="6.99959">
        <ele>2876</ele>
        <time>2022-01-08T12:46:11Z</time>
      </trkpt>
      <trkpt lat="44.78976" lon="6.99963">
        <ele>2876</ele>
        <time>2022-01-08T12:46:29Z</time>
      </trkpt>
      <trkpt lat="44.78975" lon="6.99959">
        <ele>2874</ele>
        <time>2022-01-08T12:46:36Z</time>
      </trkpt>
      <trkpt lat="44.78977" lon="6.99959">
        <ele>2872</ele>
        <time>2022-01-08T12:46:47Z</time>
      </trkpt>
      <trkpt lat="44.78975" lon="6.99963">
        <ele>2869</ele>
        <time>2022-01-08T12:47:36Z</time>
      </trkpt>
      <trkpt lat="44.78975" lon="6.99966">
        <ele>2869</ele>
        <time>2022-01-08T12:47:49Z</time>
      </trkpt>
      <trkpt lat="44.78974" lon="6.99969">
        <ele>2870</ele>
        <time>2022-01-08T12:47:51Z</time>
      </trkpt>
      <trkpt lat="44.78972" lon="6.99966">
        <ele>2871</ele>
        <time>2022-01-08T12:48:01Z</time>
      </trkpt>
      <trkpt lat="44.78972" lon="6.99961">
        <ele>2870</ele>
        <time>2022-01-08T12:48:07Z</time>
      </trkpt>
      <trkpt lat="44.78972" lon="6.99957">
        <ele>2868</ele>
        <time>2022-01-08T12:48:11Z</time>
      </trkpt>
      <trkpt lat="44.78972" lon="6.99952">
        <ele>2867</ele>
        <time>2022-01-08T12:48:14Z</time>
      </trkpt>
      <trkpt lat="44.78975" lon="6.99953">
        <ele>2865</ele>
        <time>2022-01-08T12:48:38Z</time>
      </trkpt>
      <trkpt lat="44.78976" lon="6.99957">
        <ele>2866</ele>
        <time>2022-01-08T12:48:41Z</time>
      </trkpt>
      <trkpt lat="44.78977" lon="6.9996">
        <ele>2868</ele>
        <time>2022-01-08T12:48:48Z</time>
      </trkpt>
      <trkpt lat="44.78976" lon="6.99962">
        <ele>2873</ele>
        <time>2022-01-08T12:49:21Z</time>
      </trkpt>
      <trkpt lat="44.78977" lon="6.9996">
        <ele>2872</ele>
        <time>2022-01-08T12:50:19Z</time>
      </trkpt>
      <trkpt lat="44.78977" lon="6.99957">
        <ele>2870</ele>
        <time>2022-01-08T12:50:24Z</time>
      </trkpt>
      <trkpt lat="44.78977" lon="6.99952">
        <ele>2869</ele>
        <time>2022-01-08T12:50:27Z</time>
      </trkpt>
      <trkpt lat="44.78976" lon="6.99952">
        <ele>2867</ele>
        <time>2022-01-08T12:50:33Z</time>
      </trkpt>
      <trkpt lat="44.78976" lon="6.99955">
        <ele>2867</ele>
        <time>2022-01-08T12:50:36Z</time>
      </trkpt>
      <trkpt lat="44.78975" lon="6.99958">
        <ele>2867</ele>
        <time>2022-01-08T12:50:45Z</time>
      </trkpt>
      <trkpt lat="44.78976" lon="6.99962">
        <ele>2868</ele>
        <time>2022-01-08T12:51:07Z</time>
      </trkpt>
      <trkpt lat="44.78975" lon="6.99967">
        <ele>2869</ele>
        <time>2022-01-08T12:51:30Z</time>
      </trkpt>
      <trkpt lat="44.78977" lon="6.99965">
        <ele>2870</ele>
        <time>2022-01-08T12:51:45Z</time>
      </trkpt>
      <trkpt lat="44.78976" lon="6.99962">
        <ele>2871</ele>
        <time>2022-01-08T12:52:03Z</time>
      </trkpt>
      <trkpt lat="44.78976" lon="6.99961">
        <ele>2872</ele>
        <time>2022-01-08T12:52:26Z</time>
      </trkpt>
      <trkpt lat="44.78978" lon="6.99964">
        <ele>2872</ele>
        <time>2022-01-08T12:52:47Z</time>
      </trkpt>
      <trkpt lat="44.78978" lon="6.99966">
        <ele>2872</ele>
        <time>2022-01-08T12:53:13Z</time>
      </trkpt>
      <trkpt lat="44.78977" lon="6.99967">
        <ele>2872</ele>
        <time>2022-01-08T12:53:16Z</time>
      </trkpt>
      <trkpt lat="44.78977" lon="6.9997">
        <ele>2873</ele>
        <time>2022-01-08T12:53:20Z</time>
      </trkpt>
      <trkpt lat="44.78979" lon="6.9997">
        <ele>2873</ele>
        <time>2022-01-08T12:53:34Z</time>
      </trkpt>
      <trkpt lat="44.7898" lon="6.99972">
        <ele>2873</ele>
        <time>2022-01-08T12:53:49Z</time>
      </trkpt>
      <trkpt lat="44.78982" lon="6.99975">
        <ele>2874</ele>
        <time>2022-01-08T12:53:54Z</time>
      </trkpt>
      <trkpt lat="44.78981" lon="6.99979">
        <ele>2874</ele>
        <time>2022-01-08T12:53:56Z</time>
      </trkpt>
      <trkpt lat="44.78979" lon="6.99978">
        <ele>2874</ele>
        <time>2022-01-08T12:54:00Z</time>
      </trkpt>
      <trkpt lat="44.78978" lon="6.99977">
        <ele>2874</ele>
        <time>2022-01-08T12:54:08Z</time>
      </trkpt>
      <trkpt lat="44.78977" lon="6.99979">
        <ele>2873</ele>
        <time>2022-01-08T12:54:16Z</time>
      </trkpt>
      <trkpt lat="44.78974" lon="6.9998">
        <ele>2873</ele>
        <time>2022-01-08T12:54:28Z</time>
      </trkpt>
      <trkpt lat="44.78972" lon="6.99979">
        <ele>2873</ele>
        <time>2022-01-08T12:54:33Z</time>
      </trkpt>
      <trkpt lat="44.78956" lon="6.99981">
        <ele>2871</ele>
        <time>2022-01-08T12:54:36Z</time>
      </trkpt>
      <trkpt lat="44.78953" lon="6.99982">
        <ele>2870</ele>
        <time>2022-01-08T12:54:40Z</time>
      </trkpt>
      <trkpt lat="44.78956" lon="6.99986">
        <ele>2868</ele>
        <time>2022-01-08T12:54:46Z</time>
      </trkpt>
      <trkpt lat="44.78956" lon="6.99987">
        <ele>2866</ele>
        <time>2022-01-08T12:55:04Z</time>
      </trkpt>
      <trkpt lat="44.78957" lon="6.99984">
        <ele>2865</ele>
        <time>2022-01-08T12:55:09Z</time>
      </trkpt>
      <trkpt lat="44.78956" lon="6.99984">
        <ele>2860</ele>
        <time>2022-01-08T12:55:35Z</time>
      </trkpt>
      <trkpt lat="44.78959" lon="6.99981">
        <ele>2857</ele>
        <time>2022-01-08T12:55:49Z</time>
      </trkpt>
      <trkpt lat="44.78958" lon="6.9998">
        <ele>2854</ele>
        <time>2022-01-08T12:56:02Z</time>
      </trkpt>
      <trkpt lat="44.78957" lon="6.99983">
        <ele>2854</ele>
        <time>2022-01-08T12:56:05Z</time>
      </trkpt>
      <trkpt lat="44.78956" lon="6.99983">
        <ele>2852</ele>
        <time>2022-01-08T12:56:28Z</time>
      </trkpt>
      <trkpt lat="44.78955" lon="6.99985">
        <ele>2852</ele>
        <time>2022-01-08T12:56:30Z</time>
      </trkpt>
      <trkpt lat="44.78963" lon="6.99992">
        <ele>2852</ele>
        <time>2022-01-08T12:56:56Z</time>
      </trkpt>
      <trkpt lat="44.78963" lon="6.99997">
        <ele>2852</ele>
        <time>2022-01-08T12:56:57Z</time>
      </trkpt>
      <trkpt lat="44.78967" lon="7.00005">
        <ele>2852</ele>
        <time>2022-01-08T12:56:59Z</time>
      </trkpt>
      <trkpt lat="44.78974" lon="7.0001">
        <ele>2849</ele>
        <time>2022-01-08T12:57:02Z</time>
      </trkpt>
      <trkpt lat="44.78971" lon="7.00012">
        <ele>2849</ele>
        <time>2022-01-08T12:57:03Z</time>
      </trkpt>
      <trkpt lat="44.78974" lon="7.00016">
        <ele>2845</ele>
        <time>2022-01-08T12:57:05Z</time>
      </trkpt>
      <trkpt lat="44.78974" lon="7.00018">
        <ele>2839</ele>
        <time>2022-01-08T12:57:18Z</time>
      </trkpt>
      <trkpt lat="44.78974" lon="7.00021">
        <ele>2837</ele>
        <time>2022-01-08T12:57:20Z</time>
      </trkpt>
      <trkpt lat="44.78973" lon="7.00023">
        <ele>2836</ele>
        <time>2022-01-08T12:57:29Z</time>
      </trkpt>
      <trkpt lat="44.78974" lon="7.00025">
        <ele>2835</ele>
        <time>2022-01-08T12:57:38Z</time>
      </trkpt>
      <trkpt lat="44.78973" lon="7.00026">
        <ele>2833</ele>
        <time>2022-01-08T12:57:50Z</time>
      </trkpt>
      <trkpt lat="44.78973" lon="7.0003">
        <ele>2833</ele>
        <time>2022-01-08T12:57:56Z</time>
      </trkpt>
      <trkpt lat="44.78974" lon="7.00032">
        <ele>2832</ele>
        <time>2022-01-08T12:58:02Z</time>
      </trkpt>
      <trkpt lat="44.78975" lon="7.00035">
        <ele>2831</ele>
        <time>2022-01-08T12:58:19Z</time>
      </trkpt>
      <trkpt lat="44.78974" lon="7.00036">
        <ele>2831</ele>
        <time>2022-01-08T12:58:29Z</time>
      </trkpt>
      <trkpt lat="44.78973" lon="7.00038">
        <ele>2830</ele>
        <time>2022-01-08T12:58:44Z</time>
      </trkpt>
      <trkpt lat="44.78971" lon="7.00039">
        <ele>2829</ele>
        <time>2022-01-08T12:58:46Z</time>
      </trkpt>
      <trkpt lat="44.78973" lon="7.00046">
        <ele>2828</ele>
        <time>2022-01-08T12:58:50Z</time>
      </trkpt>
      <trkpt lat="44.78971" lon="7.00048">
        <ele>2826</ele>
        <time>2022-01-08T12:58:52Z</time>
      </trkpt>
      <trkpt lat="44.7897" lon="7.00049">
        <ele>2826</ele>
        <time>2022-01-08T12:58:53Z</time>
      </trkpt>
      <trkpt lat="44.78968" lon="7.0005">
        <ele>2825</ele>
        <time>2022-01-08T12:58:54Z</time>
      </trkpt>
      <trkpt lat="44.78935" lon="7.00049">
        <ele>2817</ele>
        <time>2022-01-08T12:59:04Z</time>
      </trkpt>
      <trkpt lat="44.78928" lon="7.00047">
        <ele>2811</ele>
        <time>2022-01-08T12:59:31Z</time>
      </trkpt>
      <trkpt lat="44.78927" lon="7.00048">
        <ele>2811</ele>
        <time>2022-01-08T12:59:40Z</time>
      </trkpt>
      <trkpt lat="44.78927" lon="7.00051">
        <ele>2812</ele>
        <time>2022-01-08T13:00:40Z</time>
      </trkpt>
      <trkpt lat="44.78929" lon="7.00052">
        <ele>2812</ele>
        <time>2022-01-08T13:00:41Z</time>
      </trkpt>
      <trkpt lat="44.78931" lon="7.00052">
        <ele>2810</ele>
        <time>2022-01-08T13:00:43Z</time>
      </trkpt>
      <trkpt lat="44.78933" lon="7.00053">
        <ele>2809</ele>
        <time>2022-01-08T13:00:48Z</time>
      </trkpt>
      <trkpt lat="44.78933" lon="7.00051">
        <ele>2808</ele>
        <time>2022-01-08T13:01:56Z</time>
      </trkpt>
      <trkpt lat="44.78932" lon="7.0005">
        <ele>2802</ele>
        <time>2022-01-08T13:02:41Z</time>
      </trkpt>
      <trkpt lat="44.78929" lon="7.00054">
        <ele>2798</ele>
        <time>2022-01-08T13:03:18Z</time>
      </trkpt>
      <trkpt lat="44.78927" lon="7.00059">
        <ele>2798</ele>
        <time>2022-01-08T13:03:38Z</time>
      </trkpt>
      <trkpt lat="44.78932" lon="7.0007">
        <ele>2797</ele>
        <time>2022-01-08T13:03:41Z</time>
      </trkpt>
      <trkpt lat="44.78927" lon="7.00074">
        <ele>2796</ele>
        <time>2022-01-08T13:03:43Z</time>
      </trkpt>
      <trkpt lat="44.78926" lon="7.00076">
        <ele>2794</ele>
        <time>2022-01-08T13:03:44Z</time>
      </trkpt>
      <trkpt lat="44.78928" lon="7.00086">
        <ele>2792</ele>
        <time>2022-01-08T13:03:46Z</time>
      </trkpt>
      <trkpt lat="44.78923" lon="7.00092">
        <ele>2786</ele>
        <time>2022-01-08T13:03:51Z</time>
      </trkpt>
      <trkpt lat="44.78919" lon="7.00094">
        <ele>2785</ele>
        <time>2022-01-08T13:03:52Z</time>
      </trkpt>
      <trkpt lat="44.78917" lon="7.00097">
        <ele>2783</ele>
        <time>2022-01-08T13:03:53Z</time>
      </trkpt>
      <trkpt lat="44.78918" lon="7.00101">
        <ele>2782</ele>
        <time>2022-01-08T13:03:54Z</time>
      </trkpt>
      <trkpt lat="44.78918" lon="7.00105">
        <ele>2780</ele>
        <time>2022-01-08T13:03:55Z</time>
      </trkpt>
      <trkpt lat="44.78915" lon="7.00112">
        <ele>2778</ele>
        <time>2022-01-08T13:03:57Z</time>
      </trkpt>
      <trkpt lat="44.78917" lon="7.0012">
        <ele>2776</ele>
        <time>2022-01-08T13:03:59Z</time>
      </trkpt>
      <trkpt lat="44.78913" lon="7.00122">
        <ele>2775</ele>
        <time>2022-01-08T13:04:00Z</time>
      </trkpt>
      <trkpt lat="44.78913" lon="7.00129">
        <ele>2769</ele>
        <time>2022-01-08T13:04:02Z</time>
      </trkpt>
      <trkpt lat="44.78911" lon="7.00132">
        <ele>2766</ele>
        <time>2022-01-08T13:04:03Z</time>
      </trkpt>
      <trkpt lat="44.78908" lon="7.00136">
        <ele>2762</ele>
        <time>2022-01-08T13:04:05Z</time>
      </trkpt>
      <trkpt lat="44.78909" lon="7.00144">
        <ele>2753</ele>
        <time>2022-01-08T13:04:08Z</time>
      </trkpt>
      <trkpt lat="44.78906" lon="7.00147">
        <ele>2752</ele>
        <time>2022-01-08T13:04:09Z</time>
      </trkpt>
      <trkpt lat="44.78903" lon="7.00149">
        <ele>2750</ele>
        <time>2022-01-08T13:04:10Z</time>
      </trkpt>
      <trkpt lat="44.78904" lon="7.00152">
        <ele>2749</ele>
        <time>2022-01-08T13:04:11Z</time>
      </trkpt>
      <trkpt lat="44.78904" lon="7.00161">
        <ele>2746</ele>
        <time>2022-01-08T13:04:13Z</time>
      </trkpt>
      <trkpt lat="44.78901" lon="7.00161">
        <ele>2743</ele>
        <time>2022-01-08T13:04:14Z</time>
      </trkpt>
      <trkpt lat="44.78899" lon="7.00167">
        <ele>2736</ele>
        <time>2022-01-08T13:04:16Z</time>
      </trkpt>
      <trkpt lat="44.78898" lon="7.0017">
        <ele>2733</ele>
        <time>2022-01-08T13:04:17Z</time>
      </trkpt>
      <trkpt lat="44.78883" lon="7.00175">
        <ele>2724</ele>
        <time>2022-01-08T13:04:21Z</time>
      </trkpt>
      <trkpt lat="44.78877" lon="7.00173">
        <ele>2718</ele>
        <time>2022-01-08T13:04:47Z</time>
      </trkpt>
      <trkpt lat="44.78875" lon="7.00177">
        <ele>2718</ele>
        <time>2022-01-08T13:04:48Z</time>
      </trkpt>
      <trkpt lat="44.78879" lon="7.00187">
        <ele>2716</ele>
        <time>2022-01-08T13:04:50Z</time>
      </trkpt>
      <trkpt lat="44.78881" lon="7.00193">
        <ele>2715</ele>
        <time>2022-01-08T13:04:51Z</time>
      </trkpt>
      <trkpt lat="44.78872" lon="7.00199">
        <ele>2712</ele>
        <time>2022-01-08T13:04:53Z</time>
      </trkpt>
      <trkpt lat="44.78871" lon="7.00202">
        <ele>2710</ele>
        <time>2022-01-08T13:04:54Z</time>
      </trkpt>
      <trkpt lat="44.78873" lon="7.00208">
        <ele>2708</ele>
        <time>2022-01-08T13:04:55Z</time>
      </trkpt>
      <trkpt lat="44.78871" lon="7.00214">
        <ele>2707</ele>
        <time>2022-01-08T13:04:56Z</time>
      </trkpt>
      <trkpt lat="44.78863" lon="7.00222">
        <ele>2704</ele>
        <time>2022-01-08T13:04:58Z</time>
      </trkpt>
      <trkpt lat="44.78861" lon="7.00233">
        <ele>2702</ele>
        <time>2022-01-08T13:05:00Z</time>
      </trkpt>
      <trkpt lat="44.78852" lon="7.00243">
        <ele>2700</ele>
        <time>2022-01-08T13:05:02Z</time>
      </trkpt>
      <trkpt lat="44.7885" lon="7.00256">
        <ele>2698</ele>
        <time>2022-01-08T13:05:04Z</time>
      </trkpt>
      <trkpt lat="44.78848" lon="7.00263">
        <ele>2697</ele>
        <time>2022-01-08T13:05:05Z</time>
      </trkpt>
      <trkpt lat="44.78843" lon="7.00268">
        <ele>2696</ele>
        <time>2022-01-08T13:05:06Z</time>
      </trkpt>
      <trkpt lat="44.7884" lon="7.00273">
        <ele>2695</ele>
        <time>2022-01-08T13:05:07Z</time>
      </trkpt>
      <trkpt lat="44.78842" lon="7.00284">
        <ele>2693</ele>
        <time>2022-01-08T13:05:09Z</time>
      </trkpt>
      <trkpt lat="44.78838" lon="7.00296">
        <ele>2690</ele>
        <time>2022-01-08T13:05:11Z</time>
      </trkpt>
      <trkpt lat="44.78832" lon="7.003">
        <ele>2689</ele>
        <time>2022-01-08T13:05:12Z</time>
      </trkpt>
      <trkpt lat="44.78828" lon="7.00306">
        <ele>2687</ele>
        <time>2022-01-08T13:05:13Z</time>
      </trkpt>
      <trkpt lat="44.78825" lon="7.00325">
        <ele>2684</ele>
        <time>2022-01-08T13:05:15Z</time>
      </trkpt>
      <trkpt lat="44.78818" lon="7.00346">
        <ele>2680</ele>
        <time>2022-01-08T13:05:17Z</time>
      </trkpt>
      <trkpt lat="44.78812" lon="7.00352">
        <ele>2678</ele>
        <time>2022-01-08T13:05:18Z</time>
      </trkpt>
      <trkpt lat="44.78805" lon="7.00364">
        <ele>2674</ele>
        <time>2022-01-08T13:05:20Z</time>
      </trkpt>
      <trkpt lat="44.78805" lon="7.00371">
        <ele>2672</ele>
        <time>2022-01-08T13:05:21Z</time>
      </trkpt>
      <trkpt lat="44.78806" lon="7.00378">
        <ele>2670</ele>
        <time>2022-01-08T13:05:22Z</time>
      </trkpt>
      <trkpt lat="44.7881" lon="7.00381">
        <ele>2666</ele>
        <time>2022-01-08T13:05:24Z</time>
      </trkpt>
      <trkpt lat="44.78807" lon="7.00395">
        <ele>2662</ele>
        <time>2022-01-08T13:05:26Z</time>
      </trkpt>
      <trkpt lat="44.78803" lon="7.00404">
        <ele>2657</ele>
        <time>2022-01-08T13:05:28Z</time>
      </trkpt>
      <trkpt lat="44.78805" lon="7.00407">
        <ele>2654</ele>
        <time>2022-01-08T13:05:29Z</time>
      </trkpt>
      <trkpt lat="44.78808" lon="7.00409">
        <ele>2648</ele>
        <time>2022-01-08T13:05:30Z</time>
      </trkpt>
      <trkpt lat="44.78811" lon="7.00412">
        <ele>2645</ele>
        <time>2022-01-08T13:05:31Z</time>
      </trkpt>
      <trkpt lat="44.7881" lon="7.00419">
        <ele>2641</ele>
        <time>2022-01-08T13:05:32Z</time>
      </trkpt>
      <trkpt lat="44.78805" lon="7.00426">
        <ele>2634</ele>
        <time>2022-01-08T13:05:34Z</time>
      </trkpt>
      <trkpt lat="44.78803" lon="7.0042">
        <ele>2606</ele>
        <time>2022-01-08T13:05:40Z</time>
      </trkpt>
      <trkpt lat="44.78794" lon="7.00414">
        <ele>2587</ele>
        <time>2022-01-08T13:06:00Z</time>
      </trkpt>
      <trkpt lat="44.78791" lon="7.00397">
        <ele>2570</ele>
        <time>2022-01-08T13:06:54Z</time>
      </trkpt>
      <trkpt lat="44.78793" lon="7.00403">
        <ele>2560</ele>
        <time>2022-01-08T13:07:28Z</time>
      </trkpt>
      <trkpt lat="44.78772" lon="7.00407">
        <ele>2556</ele>
        <time>2022-01-08T13:07:33Z</time>
      </trkpt>
      <trkpt lat="44.78771" lon="7.00413">
        <ele>2556</ele>
        <time>2022-01-08T13:07:34Z</time>
      </trkpt>
      <trkpt lat="44.78767" lon="7.00416">
        <ele>2556</ele>
        <time>2022-01-08T13:07:35Z</time>
      </trkpt>
      <trkpt lat="44.78764" lon="7.00422">
        <ele>2556</ele>
        <time>2022-01-08T13:07:36Z</time>
      </trkpt>
      <trkpt lat="44.78759" lon="7.00442">
        <ele>2553</ele>
        <time>2022-01-08T13:07:39Z</time>
      </trkpt>
      <trkpt lat="44.78756" lon="7.00457">
        <ele>2550</ele>
        <time>2022-01-08T13:07:41Z</time>
      </trkpt>
      <trkpt lat="44.78755" lon="7.00464">
        <ele>2548</ele>
        <time>2022-01-08T13:07:42Z</time>
      </trkpt>
      <trkpt lat="44.78754" lon="7.00498">
        <ele>2542</ele>
        <time>2022-01-08T13:07:46Z</time>
      </trkpt>
      <trkpt lat="44.78781" lon="7.00571">
        <ele>2512</ele>
        <time>2022-01-08T13:07:54Z</time>
      </trkpt>
      <trkpt lat="44.78782" lon="7.00582">
        <ele>2509</ele>
        <time>2022-01-08T13:07:55Z</time>
      </trkpt>
      <trkpt lat="44.78781" lon="7.00594">
        <ele>2507</ele>
        <time>2022-01-08T13:07:56Z</time>
      </trkpt>
      <trkpt lat="44.78779" lon="7.00606">
        <ele>2505</ele>
        <time>2022-01-08T13:07:57Z</time>
      </trkpt>
      <trkpt lat="44.78777" lon="7.00615">
        <ele>2503</ele>
        <time>2022-01-08T13:07:58Z</time>
      </trkpt>
      <trkpt lat="44.78771" lon="7.00631">
        <ele>2498</ele>
        <time>2022-01-08T13:08:01Z</time>
      </trkpt>
      <trkpt lat="44.7877" lon="7.00626">
        <ele>2495</ele>
        <time>2022-01-08T13:08:03Z</time>
      </trkpt>
      <trkpt lat="44.78772" lon="7.00616">
        <ele>2492</ele>
        <time>2022-01-08T13:08:05Z</time>
      </trkpt>
      <trkpt lat="44.78769" lon="7.00614">
        <ele>2489</ele>
        <time>2022-01-08T13:08:14Z</time>
      </trkpt>
      <trkpt lat="44.78762" lon="7.00614">
        <ele>2490</ele>
        <time>2022-01-08T13:10:46Z</time>
      </trkpt>
      <trkpt lat="44.7876" lon="7.00612">
        <ele>2492</ele>
        <time>2022-01-08T13:16:32Z</time>
      </trkpt>
      <trkpt lat="44.78758" lon="7.00613">
        <ele>2486</ele>
        <time>2022-01-08T13:16:34Z</time>
      </trkpt>
      <trkpt lat="44.78743" lon="7.006">
        <ele>2483</ele>
        <time>2022-01-08T13:16:52Z</time>
      </trkpt>
      <trkpt lat="44.78738" lon="7.00585">
        <ele>2483</ele>
        <time>2022-01-08T13:17:19Z</time>
      </trkpt>
      <trkpt lat="44.78722" lon="7.00582">
        <ele>2485</ele>
        <time>2022-01-08T13:17:35Z</time>
      </trkpt>
      <trkpt lat="44.78705" lon="7.0058">
        <ele>2485</ele>
        <time>2022-01-08T13:17:51Z</time>
      </trkpt>
      <trkpt lat="44.7869" lon="7.00587">
        <ele>2485</ele>
        <time>2022-01-08T13:18:18Z</time>
      </trkpt>
      <trkpt lat="44.7869" lon="7.00591">
        <ele>2486</ele>
        <time>2022-01-08T13:18:20Z</time>
      </trkpt>
      <trkpt lat="44.7868" lon="7.00608">
        <ele>2487</ele>
        <time>2022-01-08T13:18:33Z</time>
      </trkpt>
      <trkpt lat="44.78663" lon="7.0063">
        <ele>2487</ele>
        <time>2022-01-08T13:18:54Z</time>
      </trkpt>
      <trkpt lat="44.78662" lon="7.00632">
        <ele>2487</ele>
        <time>2022-01-08T13:18:55Z</time>
      </trkpt>
      <trkpt lat="44.78659" lon="7.00648">
        <ele>2489</ele>
        <time>2022-01-08T13:19:15Z</time>
      </trkpt>
      <trkpt lat="44.78657" lon="7.0065">
        <ele>2490</ele>
        <time>2022-01-08T13:19:18Z</time>
      </trkpt>
      <trkpt lat="44.78644" lon="7.00672">
        <ele>2496</ele>
        <time>2022-01-08T13:19:48Z</time>
      </trkpt>
      <trkpt lat="44.78643" lon="7.00674">
        <ele>2497</ele>
        <time>2022-01-08T13:19:51Z</time>
      </trkpt>
      <trkpt lat="44.78636" lon="7.00684">
        <ele>2500</ele>
        <time>2022-01-08T13:20:05Z</time>
      </trkpt>
      <trkpt lat="44.7863" lon="7.00696">
        <ele>2503</ele>
        <time>2022-01-08T13:20:26Z</time>
      </trkpt>
      <trkpt lat="44.78624" lon="7.00726">
        <ele>2510</ele>
        <time>2022-01-08T13:21:01Z</time>
      </trkpt>
      <trkpt lat="44.7863" lon="7.00754">
        <ele>2514</ele>
        <time>2022-01-08T13:21:37Z</time>
      </trkpt>
      <trkpt lat="44.78631" lon="7.00756">
        <ele>2515</ele>
        <time>2022-01-08T13:21:40Z</time>
      </trkpt>
      <trkpt lat="44.78611" lon="7.00763">
        <ele>2517</ele>
        <time>2022-01-08T13:22:22Z</time>
      </trkpt>
      <trkpt lat="44.78597" lon="7.00762">
        <ele>2519</ele>
        <time>2022-01-08T13:22:50Z</time>
      </trkpt>
      <trkpt lat="44.78589" lon="7.00755">
        <ele>2519</ele>
        <time>2022-01-08T13:22:56Z</time>
      </trkpt>
      <trkpt lat="44.78582" lon="7.00749">
        <ele>2525</ele>
        <time>2022-01-08T13:24:02Z</time>
      </trkpt>
      <trkpt lat="44.78581" lon="7.00745">
        <ele>2528</ele>
        <time>2022-01-08T13:24:04Z</time>
      </trkpt>
      <trkpt lat="44.78579" lon="7.00744">
        <ele>2530</ele>
        <time>2022-01-08T13:24:06Z</time>
      </trkpt>
      <trkpt lat="44.78577" lon="7.00743">
        <ele>2531</ele>
        <time>2022-01-08T13:24:08Z</time>
      </trkpt>
      <trkpt lat="44.7857" lon="7.0075">
        <ele>2539</ele>
        <time>2022-01-08T13:24:34Z</time>
      </trkpt>
      <trkpt lat="44.78563" lon="7.00739">
        <ele>2542</ele>
        <time>2022-01-08T13:24:55Z</time>
      </trkpt>
      <trkpt lat="44.78555" lon="7.00709">
        <ele>2540</ele>
        <time>2022-01-08T13:25:32Z</time>
      </trkpt>
      <trkpt lat="44.78554" lon="7.00692">
        <ele>2539</ele>
        <time>2022-01-08T13:25:48Z</time>
      </trkpt>
      <trkpt lat="44.78555" lon="7.00689">
        <ele>2540</ele>
        <time>2022-01-08T13:25:50Z</time>
      </trkpt>
      <trkpt lat="44.78556" lon="7.00687">
        <ele>2541</ele>
        <time>2022-01-08T13:25:53Z</time>
      </trkpt>
      <trkpt lat="44.78556" lon="7.00672">
        <ele>2544</ele>
        <time>2022-01-08T13:26:32Z</time>
      </trkpt>
      <trkpt lat="44.78552" lon="7.0066">
        <ele>2548</ele>
        <time>2022-01-08T13:26:55Z</time>
      </trkpt>
      <trkpt lat="44.78553" lon="7.00645">
        <ele>2553</ele>
        <time>2022-01-08T13:27:14Z</time>
      </trkpt>
      <trkpt lat="44.7855" lon="7.00634">
        <ele>2556</ele>
        <time>2022-01-08T13:27:27Z</time>
      </trkpt>
      <trkpt lat="44.78542" lon="7.00608">
        <ele>2561</ele>
        <time>2022-01-08T13:28:04Z</time>
      </trkpt>
      <trkpt lat="44.78545" lon="7.00593">
        <ele>2564</ele>
        <time>2022-01-08T13:28:49Z</time>
      </trkpt>
      <trkpt lat="44.78546" lon="7.00594">
        <ele>2565</ele>
        <time>2022-01-08T13:29:05Z</time>
      </trkpt>
      <trkpt lat="44.78544" lon="7.00589">
        <ele>2565</ele>
        <time>2022-01-08T13:29:07Z</time>
      </trkpt>
      <trkpt lat="44.78542" lon="7.00592">
        <ele>2568</ele>
        <time>2022-01-08T13:29:09Z</time>
      </trkpt>
      <trkpt lat="44.78544" lon="7.00593">
        <ele>2569</ele>
        <time>2022-01-08T13:29:10Z</time>
      </trkpt>
      <trkpt lat="44.7855" lon="7.00592">
        <ele>2572</ele>
        <time>2022-01-08T13:29:14Z</time>
      </trkpt>
      <trkpt lat="44.78541" lon="7.00587">
        <ele>2573</ele>
        <time>2022-01-08T13:29:26Z</time>
      </trkpt>
      <trkpt lat="44.78537" lon="7.00586">
        <ele>2575</ele>
        <time>2022-01-08T13:29:27Z</time>
      </trkpt>
      <trkpt lat="44.78538" lon="7.0058">
        <ele>2576</ele>
        <time>2022-01-08T13:29:28Z</time>
      </trkpt>
      <trkpt lat="44.78535" lon="7.00578">
        <ele>2576</ele>
        <time>2022-01-08T13:29:30Z</time>
      </trkpt>
      <trkpt lat="44.78533" lon="7.00583">
        <ele>2577</ele>
        <time>2022-01-08T13:29:32Z</time>
      </trkpt>
      <trkpt lat="44.78536" lon="7.00589">
        <ele>2577</ele>
        <time>2022-01-08T13:29:34Z</time>
      </trkpt>
      <trkpt lat="44.78546" lon="7.00598">
        <ele>2579</ele>
        <time>2022-01-08T13:29:47Z</time>
      </trkpt>
      <trkpt lat="44.7855" lon="7.00598">
        <ele>2579</ele>
        <time>2022-01-08T13:30:50Z</time>
      </trkpt>
      <trkpt lat="44.78554" lon="7.00604">
        <ele>2577</ele>
        <time>2022-01-08T13:30:58Z</time>
      </trkpt>
      <trkpt lat="44.78557" lon="7.00602">
        <ele>2576</ele>
        <time>2022-01-08T13:31:16Z</time>
      </trkpt>
      <trkpt lat="44.78556" lon="7.00597">
        <ele>2576</ele>
        <time>2022-01-08T13:31:19Z</time>
      </trkpt>
      <trkpt lat="44.78559" lon="7.00594">
        <ele>2575</ele>
        <time>2022-01-08T13:31:20Z</time>
      </trkpt>
      <trkpt lat="44.78561" lon="7.0059">
        <ele>2575</ele>
        <time>2022-01-08T13:31:21Z</time>
      </trkpt>
      <trkpt lat="44.78562" lon="7.00584">
        <ele>2574</ele>
        <time>2022-01-08T13:31:25Z</time>
      </trkpt>
      <trkpt lat="44.78566" lon="7.00585">
        <ele>2573</ele>
        <time>2022-01-08T13:31:26Z</time>
      </trkpt>
      <trkpt lat="44.78565" lon="7.00589">
        <ele>2573</ele>
        <time>2022-01-08T13:31:31Z</time>
      </trkpt>
      <trkpt lat="44.78554" lon="7.00597">
        <ele>2572</ele>
        <time>2022-01-08T13:31:37Z</time>
      </trkpt>
      <trkpt lat="44.78544" lon="7.00604">
        <ele>2571</ele>
        <time>2022-01-08T13:31:44Z</time>
      </trkpt>
      <trkpt lat="44.78543" lon="7.0061">
        <ele>2570</ele>
        <time>2022-01-08T13:37:47Z</time>
      </trkpt>
      <trkpt lat="44.78547" lon="7.00612">
        <ele>2569</ele>
        <time>2022-01-08T13:37:48Z</time>
      </trkpt>
      <trkpt lat="44.78536" lon="7.00602">
        <ele>2565</ele>
        <time>2022-01-08T13:37:49Z</time>
      </trkpt>
      <trkpt lat="44.78532" lon="7.00598">
        <ele>2563</ele>
        <time>2022-01-08T13:38:14Z</time>
      </trkpt>
      <trkpt lat="44.78526" lon="7.00598">
        <ele>2563</ele>
        <time>2022-01-08T13:38:16Z</time>
      </trkpt>
      <trkpt lat="44.78521" lon="7.00599">
        <ele>2563</ele>
        <time>2022-01-08T13:38:17Z</time>
      </trkpt>
      <trkpt lat="44.78511" lon="7.00607">
        <ele>2562</ele>
        <time>2022-01-08T13:38:20Z</time>
      </trkpt>
      <trkpt lat="44.78505" lon="7.00616">
        <ele>2560</ele>
        <time>2022-01-08T13:38:22Z</time>
      </trkpt>
      <trkpt lat="44.7848" lon="7.00647">
        <ele>2556</ele>
        <time>2022-01-08T13:38:28Z</time>
      </trkpt>
      <trkpt lat="44.78454" lon="7.00668">
        <ele>2554</ele>
        <time>2022-01-08T13:38:32Z</time>
      </trkpt>
      <trkpt lat="44.78395" lon="7.00738">
        <ele>2541</ele>
        <time>2022-01-08T13:38:46Z</time>
      </trkpt>
      <trkpt lat="44.78386" lon="7.0074">
        <ele>2541</ele>
        <time>2022-01-08T13:38:48Z</time>
      </trkpt>
      <trkpt lat="44.78374" lon="7.00748">
        <ele>2539</ele>
        <time>2022-01-08T13:39:02Z</time>
      </trkpt>
      <trkpt lat="44.78373" lon="7.0075">
        <ele>2539</ele>
        <time>2022-01-08T13:39:03Z</time>
      </trkpt>
      <trkpt lat="44.7837" lon="7.00751">
        <ele>2540</ele>
        <time>2022-01-08T13:39:05Z</time>
      </trkpt>
      <trkpt lat="44.78316" lon="7.00799">
        <ele>2529</ele>
        <time>2022-01-08T13:39:14Z</time>
      </trkpt>
      <trkpt lat="44.78312" lon="7.00801">
        <ele>2528</ele>
        <time>2022-01-08T13:39:15Z</time>
      </trkpt>
      <trkpt lat="44.78306" lon="7.00797">
        <ele>2527</ele>
        <time>2022-01-08T13:39:16Z</time>
      </trkpt>
      <trkpt lat="44.78294" lon="7.00794">
        <ele>2524</ele>
        <time>2022-01-08T13:39:18Z</time>
      </trkpt>
      <trkpt lat="44.78283" lon="7.00779">
        <ele>2517</ele>
        <time>2022-01-08T13:39:21Z</time>
      </trkpt>
      <trkpt lat="44.7828" lon="7.00779">
        <ele>2515</ele>
        <time>2022-01-08T13:39:22Z</time>
      </trkpt>
      <trkpt lat="44.78274" lon="7.00787">
        <ele>2510</ele>
        <time>2022-01-08T13:39:24Z</time>
      </trkpt>
      <trkpt lat="44.7827" lon="7.00788">
        <ele>2508</ele>
        <time>2022-01-08T13:39:25Z</time>
      </trkpt>
      <trkpt lat="44.7826" lon="7.00782">
        <ele>2505</ele>
        <time>2022-01-08T13:39:27Z</time>
      </trkpt>
      <trkpt lat="44.78254" lon="7.00781">
        <ele>2503</ele>
        <time>2022-01-08T13:39:28Z</time>
      </trkpt>
      <trkpt lat="44.78248" lon="7.00785">
        <ele>2500</ele>
        <time>2022-01-08T13:39:29Z</time>
      </trkpt>
      <trkpt lat="44.78243" lon="7.00792">
        <ele>2498</ele>
        <time>2022-01-08T13:39:30Z</time>
      </trkpt>
      <trkpt lat="44.78239" lon="7.00799">
        <ele>2495</ele>
        <time>2022-01-08T13:39:31Z</time>
      </trkpt>
      <trkpt lat="44.78233" lon="7.00809">
        <ele>2491</ele>
        <time>2022-01-08T13:39:33Z</time>
      </trkpt>
      <trkpt lat="44.78222" lon="7.00821">
        <ele>2487</ele>
        <time>2022-01-08T13:39:36Z</time>
      </trkpt>
      <trkpt lat="44.78196" lon="7.00836">
        <ele>2480</ele>
        <time>2022-01-08T13:39:42Z</time>
      </trkpt>
      <trkpt lat="44.78192" lon="7.00834">
        <ele>2479</ele>
        <time>2022-01-08T13:39:43Z</time>
      </trkpt>
      <trkpt lat="44.78197" lon="7.00818">
        <ele>2478</ele>
        <time>2022-01-08T13:39:44Z</time>
      </trkpt>
      <trkpt lat="44.78194" lon="7.00811">
        <ele>2476</ele>
        <time>2022-01-08T13:39:45Z</time>
      </trkpt>
      <trkpt lat="44.78181" lon="7.00808">
        <ele>2474</ele>
        <time>2022-01-08T13:39:47Z</time>
      </trkpt>
      <trkpt lat="44.78178" lon="7.00801">
        <ele>2472</ele>
        <time>2022-01-08T13:39:48Z</time>
      </trkpt>
      <trkpt lat="44.78174" lon="7.00791">
        <ele>2470</ele>
        <time>2022-01-08T13:39:49Z</time>
      </trkpt>
      <trkpt lat="44.78164" lon="7.00774">
        <ele>2467</ele>
        <time>2022-01-08T13:39:51Z</time>
      </trkpt>
      <trkpt lat="44.78156" lon="7.00753">
        <ele>2463</ele>
        <time>2022-01-08T13:39:53Z</time>
      </trkpt>
      <trkpt lat="44.78152" lon="7.00747">
        <ele>2461</ele>
        <time>2022-01-08T13:39:54Z</time>
      </trkpt>
      <trkpt lat="44.78148" lon="7.00741">
        <ele>2459</ele>
        <time>2022-01-08T13:39:55Z</time>
      </trkpt>
      <trkpt lat="44.78146" lon="7.00736">
        <ele>2457</ele>
        <time>2022-01-08T13:39:56Z</time>
      </trkpt>
      <trkpt lat="44.78141" lon="7.00729">
        <ele>2454</ele>
        <time>2022-01-08T13:39:57Z</time>
      </trkpt>
      <trkpt lat="44.78126" lon="7.00727">
        <ele>2450</ele>
        <time>2022-01-08T13:39:59Z</time>
      </trkpt>
      <trkpt lat="44.78121" lon="7.00721">
        <ele>2448</ele>
        <time>2022-01-08T13:40:00Z</time>
      </trkpt>
      <trkpt lat="44.78115" lon="7.00716">
        <ele>2446</ele>
        <time>2022-01-08T13:40:01Z</time>
      </trkpt>
      <trkpt lat="44.78108" lon="7.00717">
        <ele>2443</ele>
        <time>2022-01-08T13:40:02Z</time>
      </trkpt>
      <trkpt lat="44.78101" lon="7.00721">
        <ele>2441</ele>
        <time>2022-01-08T13:40:03Z</time>
      </trkpt>
      <trkpt lat="44.78094" lon="7.00722">
        <ele>2438</ele>
        <time>2022-01-08T13:40:04Z</time>
      </trkpt>
      <trkpt lat="44.78086" lon="7.0072">
        <ele>2436</ele>
        <time>2022-01-08T13:40:05Z</time>
      </trkpt>
      <trkpt lat="44.78078" lon="7.00721">
        <ele>2433</ele>
        <time>2022-01-08T13:40:06Z</time>
      </trkpt>
      <trkpt lat="44.78072" lon="7.00723">
        <ele>2431</ele>
        <time>2022-01-08T13:40:07Z</time>
      </trkpt>
      <trkpt lat="44.78065" lon="7.00731">
        <ele>2427</ele>
        <time>2022-01-08T13:40:09Z</time>
      </trkpt>
      <trkpt lat="44.78057" lon="7.00744">
        <ele>2423</ele>
        <time>2022-01-08T13:40:12Z</time>
      </trkpt>
      <trkpt lat="44.78049" lon="7.0075">
        <ele>2421</ele>
        <time>2022-01-08T13:40:14Z</time>
      </trkpt>
      <trkpt lat="44.78044" lon="7.00746">
        <ele>2420</ele>
        <time>2022-01-08T13:40:15Z</time>
      </trkpt>
      <trkpt lat="44.78041" lon="7.00738">
        <ele>2418</ele>
        <time>2022-01-08T13:40:16Z</time>
      </trkpt>
      <trkpt lat="44.78038" lon="7.00732">
        <ele>2417</ele>
        <time>2022-01-08T13:40:17Z</time>
      </trkpt>
      <trkpt lat="44.78034" lon="7.00731">
        <ele>2416</ele>
        <time>2022-01-08T13:40:18Z</time>
      </trkpt>
      <trkpt lat="44.7803" lon="7.00733">
        <ele>2414</ele>
        <time>2022-01-08T13:40:19Z</time>
      </trkpt>
      <trkpt lat="44.78026" lon="7.00736">
        <ele>2413</ele>
        <time>2022-01-08T13:40:20Z</time>
      </trkpt>
      <trkpt lat="44.78022" lon="7.00735">
        <ele>2411</ele>
        <time>2022-01-08T13:40:21Z</time>
      </trkpt>
      <trkpt lat="44.78013" lon="7.00719">
        <ele>2407</ele>
        <time>2022-01-08T13:40:24Z</time>
      </trkpt>
      <trkpt lat="44.78008" lon="7.00717">
        <ele>2405</ele>
        <time>2022-01-08T13:40:25Z</time>
      </trkpt>
      <trkpt lat="44.78004" lon="7.00714">
        <ele>2403</ele>
        <time>2022-01-08T13:40:26Z</time>
      </trkpt>
      <trkpt lat="44.78" lon="7.00711">
        <ele>2401</ele>
        <time>2022-01-08T13:40:27Z</time>
      </trkpt>
      <trkpt lat="44.77995" lon="7.00711">
        <ele>2398</ele>
        <time>2022-01-08T13:40:28Z</time>
      </trkpt>
      <trkpt lat="44.7799" lon="7.00714">
        <ele>2396</ele>
        <time>2022-01-08T13:40:29Z</time>
      </trkpt>
      <trkpt lat="44.77982" lon="7.00718">
        <ele>2391</ele>
        <time>2022-01-08T13:40:31Z</time>
      </trkpt>
      <trkpt lat="44.77978" lon="7.00722">
        <ele>2389</ele>
        <time>2022-01-08T13:40:32Z</time>
      </trkpt>
      <trkpt lat="44.77973" lon="7.00729">
        <ele>2386</ele>
        <time>2022-01-08T13:40:34Z</time>
      </trkpt>
      <trkpt lat="44.77971" lon="7.00734">
        <ele>2385</ele>
        <time>2022-01-08T13:40:35Z</time>
      </trkpt>
      <trkpt lat="44.77968" lon="7.00737">
        <ele>2384</ele>
        <time>2022-01-08T13:40:36Z</time>
      </trkpt>
      <trkpt lat="44.77964" lon="7.00738">
        <ele>2383</ele>
        <time>2022-01-08T13:40:37Z</time>
      </trkpt>
      <trkpt lat="44.77945" lon="7.00734">
        <ele>2381</ele>
        <time>2022-01-08T13:40:41Z</time>
      </trkpt>
      <trkpt lat="44.7791" lon="7.00693">
        <ele>2378</ele>
        <time>2022-01-08T13:40:49Z</time>
      </trkpt>
      <trkpt lat="44.77908" lon="7.00692">
        <ele>2377</ele>
        <time>2022-01-08T13:40:50Z</time>
      </trkpt>
      <trkpt lat="44.77907" lon="7.00693">
        <ele>2376</ele>
        <time>2022-01-08T13:40:51Z</time>
      </trkpt>
      <trkpt lat="44.77908" lon="7.00701">
        <ele>2369</ele>
        <time>2022-01-08T13:41:31Z</time>
      </trkpt>
      <trkpt lat="44.77908" lon="7.00711">
        <ele>2365</ele>
        <time>2022-01-08T13:41:33Z</time>
      </trkpt>
      <trkpt lat="44.77907" lon="7.00716">
        <ele>2364</ele>
        <time>2022-01-08T13:41:34Z</time>
      </trkpt>
      <trkpt lat="44.77906" lon="7.00721">
        <ele>2364</ele>
        <time>2022-01-08T13:41:35Z</time>
      </trkpt>
      <trkpt lat="44.77902" lon="7.00723">
        <ele>2363</ele>
        <time>2022-01-08T13:41:36Z</time>
      </trkpt>
      <trkpt lat="44.77896" lon="7.00719">
        <ele>2362</ele>
        <time>2022-01-08T13:41:37Z</time>
      </trkpt>
      <trkpt lat="44.77882" lon="7.00702">
        <ele>2357</ele>
        <time>2022-01-08T13:41:40Z</time>
      </trkpt>
      <trkpt lat="44.77871" lon="7.00699">
        <ele>2355</ele>
        <time>2022-01-08T13:41:42Z</time>
      </trkpt>
      <trkpt lat="44.77849" lon="7.00699">
        <ele>2351</ele>
        <time>2022-01-08T13:41:46Z</time>
      </trkpt>
      <trkpt lat="44.77846" lon="7.00698">
        <ele>2350</ele>
        <time>2022-01-08T13:41:47Z</time>
      </trkpt>
      <trkpt lat="44.77842" lon="7.00695">
        <ele>2349</ele>
        <time>2022-01-08T13:41:49Z</time>
      </trkpt>
      <trkpt lat="44.77835" lon="7.0069">
        <ele>2347</ele>
        <time>2022-01-08T13:41:55Z</time>
      </trkpt>
      <trkpt lat="44.77832" lon="7.00687">
        <ele>2347</ele>
        <time>2022-01-08T13:41:58Z</time>
      </trkpt>
      <trkpt lat="44.77823" lon="7.00685">
        <ele>2345</ele>
        <time>2022-01-08T13:42:04Z</time>
      </trkpt>
      <trkpt lat="44.7782" lon="7.00686">
        <ele>2345</ele>
        <time>2022-01-08T13:42:05Z</time>
      </trkpt>
      <trkpt lat="44.77812" lon="7.00692">
        <ele>2344</ele>
        <time>2022-01-08T13:42:11Z</time>
      </trkpt>
      <trkpt lat="44.77803" lon="7.00705">
        <ele>2343</ele>
        <time>2022-01-08T13:42:20Z</time>
      </trkpt>
      <trkpt lat="44.778" lon="7.00707">
        <ele>2343</ele>
        <time>2022-01-08T13:42:21Z</time>
      </trkpt>
      <trkpt lat="44.77798" lon="7.00709">
        <ele>2343</ele>
        <time>2022-01-08T13:42:22Z</time>
      </trkpt>
      <trkpt lat="44.77777" lon="7.00665">
        <ele>2340</ele>
        <time>2022-01-08T13:42:31Z</time>
      </trkpt>
      <trkpt lat="44.7777" lon="7.00656">
        <ele>2338</ele>
        <time>2022-01-08T13:42:36Z</time>
      </trkpt>
      <trkpt lat="44.77769" lon="7.00654">
        <ele>2336</ele>
        <time>2022-01-08T13:42:37Z</time>
      </trkpt>
      <trkpt lat="44.77765" lon="7.00649">
        <ele>2335</ele>
        <time>2022-01-08T13:42:40Z</time>
      </trkpt>
      <trkpt lat="44.77763" lon="7.00648">
        <ele>2335</ele>
        <time>2022-01-08T13:42:41Z</time>
      </trkpt>
      <trkpt lat="44.77761" lon="7.00647">
        <ele>2335</ele>
        <time>2022-01-08T13:42:42Z</time>
      </trkpt>
      <trkpt lat="44.77752" lon="7.00643">
        <ele>2336</ele>
        <time>2022-01-08T13:42:46Z</time>
      </trkpt>
      <trkpt lat="44.77743" lon="7.00639">
        <ele>2337</ele>
        <time>2022-01-08T13:42:49Z</time>
      </trkpt>
      <trkpt lat="44.77741" lon="7.00639">
        <ele>2337</ele>
        <time>2022-01-08T13:42:50Z</time>
      </trkpt>
      <trkpt lat="44.7773" lon="7.00636">
        <ele>2337</ele>
        <time>2022-01-08T13:42:53Z</time>
      </trkpt>
      <trkpt lat="44.77728" lon="7.00635">
        <ele>2336</ele>
        <time>2022-01-08T13:42:54Z</time>
      </trkpt>
      <trkpt lat="44.77726" lon="7.00633">
        <ele>2336</ele>
        <time>2022-01-08T13:42:55Z</time>
      </trkpt>
      <trkpt lat="44.77723" lon="7.00627">
        <ele>2335</ele>
        <time>2022-01-08T13:42:57Z</time>
      </trkpt>
      <trkpt lat="44.77698" lon="7.00612">
        <ele>2333</ele>
        <time>2022-01-08T13:43:05Z</time>
      </trkpt>
      <trkpt lat="44.77688" lon="7.00609">
        <ele>2333</ele>
        <time>2022-01-08T13:43:11Z</time>
      </trkpt>
      <trkpt lat="44.77686" lon="7.00607">
        <ele>2333</ele>
        <time>2022-01-08T13:43:12Z</time>
      </trkpt>
      <trkpt lat="44.77683" lon="7.00604">
        <ele>2332</ele>
        <time>2022-01-08T13:43:13Z</time>
      </trkpt>
      <trkpt lat="44.77676" lon="7.00591">
        <ele>2330</ele>
        <time>2022-01-08T13:43:16Z</time>
      </trkpt>
      <trkpt lat="44.77674" lon="7.00588">
        <ele>2329</ele>
        <time>2022-01-08T13:43:17Z</time>
      </trkpt>
      <trkpt lat="44.77672" lon="7.00586">
        <ele>2328</ele>
        <time>2022-01-08T13:43:18Z</time>
      </trkpt>
      <trkpt lat="44.77666" lon="7.00584">
        <ele>2326</ele>
        <time>2022-01-08T13:43:20Z</time>
      </trkpt>
      <trkpt lat="44.77651" lon="7.00584">
        <ele>2321</ele>
        <time>2022-01-08T13:43:25Z</time>
      </trkpt>
      <trkpt lat="44.77648" lon="7.00586">
        <ele>2320</ele>
        <time>2022-01-08T13:43:26Z</time>
      </trkpt>
      <trkpt lat="44.77644" lon="7.00587">
        <ele>2319</ele>
        <time>2022-01-08T13:43:27Z</time>
      </trkpt>
      <trkpt lat="44.77639" lon="7.00586">
        <ele>2318</ele>
        <time>2022-01-08T13:43:28Z</time>
      </trkpt>
      <trkpt lat="44.77634" lon="7.00575">
        <ele>2317</ele>
        <time>2022-01-08T13:43:30Z</time>
      </trkpt>
      <trkpt lat="44.77626" lon="7.0057">
        <ele>2316</ele>
        <time>2022-01-08T13:43:32Z</time>
      </trkpt>
      <trkpt lat="44.77611" lon="7.00565">
        <ele>2314</ele>
        <time>2022-01-08T13:43:35Z</time>
      </trkpt>
      <trkpt lat="44.77592" lon="7.00553">
        <ele>2311</ele>
        <time>2022-01-08T13:43:38Z</time>
      </trkpt>
      <trkpt lat="44.77588" lon="7.00546">
        <ele>2309</ele>
        <time>2022-01-08T13:43:39Z</time>
      </trkpt>
      <trkpt lat="44.77585" lon="7.00535">
        <ele>2307</ele>
        <time>2022-01-08T13:43:40Z</time>
      </trkpt>
      <trkpt lat="44.77582" lon="7.00526">
        <ele>2305</ele>
        <time>2022-01-08T13:43:41Z</time>
      </trkpt>
      <trkpt lat="44.77578" lon="7.00517">
        <ele>2302</ele>
        <time>2022-01-08T13:43:42Z</time>
      </trkpt>
      <trkpt lat="44.77576" lon="7.00506">
        <ele>2299</ele>
        <time>2022-01-08T13:43:43Z</time>
      </trkpt>
      <trkpt lat="44.77572" lon="7.00498">
        <ele>2296</ele>
        <time>2022-01-08T13:43:44Z</time>
      </trkpt>
      <trkpt lat="44.77568" lon="7.00494">
        <ele>2293</ele>
        <time>2022-01-08T13:43:45Z</time>
      </trkpt>
      <trkpt lat="44.77525" lon="7.00495">
        <ele>2276</ele>
        <time>2022-01-08T13:43:56Z</time>
      </trkpt>
      <trkpt lat="44.77522" lon="7.00496">
        <ele>2275</ele>
        <time>2022-01-08T13:43:57Z</time>
      </trkpt>
      <trkpt lat="44.77485" lon="7.00494">
        <ele>2267</ele>
        <time>2022-01-08T13:44:04Z</time>
      </trkpt>
      <trkpt lat="44.7747" lon="7.00494">
        <ele>2263</ele>
        <time>2022-01-08T13:44:07Z</time>
      </trkpt>
      <trkpt lat="44.77467" lon="7.00492">
        <ele>2262</ele>
        <time>2022-01-08T13:44:08Z</time>
      </trkpt>
      <trkpt lat="44.77459" lon="7.0048">
        <ele>2259</ele>
        <time>2022-01-08T13:44:10Z</time>
      </trkpt>
      <trkpt lat="44.77448" lon="7.00472">
        <ele>2255</ele>
        <time>2022-01-08T13:44:12Z</time>
      </trkpt>
      <trkpt lat="44.77439" lon="7.00471">
        <ele>2252</ele>
        <time>2022-01-08T13:44:14Z</time>
      </trkpt>
      <trkpt lat="44.77438" lon="7.00472">
        <ele>2251</ele>
        <time>2022-01-08T13:44:15Z</time>
      </trkpt>
      <trkpt lat="44.77395" lon="7.00536">
        <ele>2241</ele>
        <time>2022-01-08T13:44:31Z</time>
      </trkpt>
      <trkpt lat="44.7738" lon="7.00547">
        <ele>2240</ele>
        <time>2022-01-08T13:44:34Z</time>
      </trkpt>
      <trkpt lat="44.77376" lon="7.00549">
        <ele>2239</ele>
        <time>2022-01-08T13:44:35Z</time>
      </trkpt>
      <trkpt lat="44.77371" lon="7.00549">
        <ele>2239</ele>
        <time>2022-01-08T13:44:36Z</time>
      </trkpt>
      <trkpt lat="44.77361" lon="7.00543">
        <ele>2238</ele>
        <time>2022-01-08T13:44:40Z</time>
      </trkpt>
      <trkpt lat="44.77343" lon="7.00534">
        <ele>2236</ele>
        <time>2022-01-08T13:44:53Z</time>
      </trkpt>
      <trkpt lat="44.77331" lon="7.00534">
        <ele>2235</ele>
        <time>2022-01-08T13:44:57Z</time>
      </trkpt>
      <trkpt lat="44.77328" lon="7.00535">
        <ele>2234</ele>
        <time>2022-01-08T13:44:58Z</time>
      </trkpt>
      <trkpt lat="44.77323" lon="7.00537">
        <ele>2234</ele>
        <time>2022-01-08T13:45:00Z</time>
      </trkpt>
      <trkpt lat="44.77321" lon="7.00538">
        <ele>2233</ele>
        <time>2022-01-08T13:45:01Z</time>
      </trkpt>
      <trkpt lat="44.77319" lon="7.00539">
        <ele>2232</ele>
        <time>2022-01-08T13:45:03Z</time>
      </trkpt>
      <trkpt lat="44.77316" lon="7.0054">
        <ele>2231</ele>
        <time>2022-01-08T13:45:04Z</time>
      </trkpt>
      <trkpt lat="44.77312" lon="7.00539">
        <ele>2230</ele>
        <time>2022-01-08T13:45:08Z</time>
      </trkpt>
      <trkpt lat="44.773" lon="7.00522">
        <ele>2226</ele>
        <time>2022-01-08T13:45:20Z</time>
      </trkpt>
      <trkpt lat="44.77292" lon="7.0051">
        <ele>2225</ele>
        <time>2022-01-08T13:45:24Z</time>
      </trkpt>
      <trkpt lat="44.77282" lon="7.00501">
        <ele>2225</ele>
        <time>2022-01-08T13:45:27Z</time>
      </trkpt>
      <trkpt lat="44.77272" lon="7.00497">
        <ele>2224</ele>
        <time>2022-01-08T13:45:35Z</time>
      </trkpt>
      <trkpt lat="44.77256" lon="7.00493">
        <ele>2224</ele>
        <time>2022-01-08T13:45:39Z</time>
      </trkpt>
      <trkpt lat="44.77252" lon="7.0049">
        <ele>2224</ele>
        <time>2022-01-08T13:45:40Z</time>
      </trkpt>
      <trkpt lat="44.7725" lon="7.00485">
        <ele>2223</ele>
        <time>2022-01-08T13:45:41Z</time>
      </trkpt>
      <trkpt lat="44.77256" lon="7.00473">
        <ele>2220</ele>
        <time>2022-01-08T13:45:43Z</time>
      </trkpt>
      <trkpt lat="44.77257" lon="7.00468">
        <ele>2218</ele>
        <time>2022-01-08T13:45:44Z</time>
      </trkpt>
      <trkpt lat="44.77256" lon="7.00464">
        <ele>2217</ele>
        <time>2022-01-08T13:45:45Z</time>
      </trkpt>
      <trkpt lat="44.77254" lon="7.00461">
        <ele>2214</ele>
        <time>2022-01-08T13:45:46Z</time>
      </trkpt>
      <trkpt lat="44.77252" lon="7.00457">
        <ele>2212</ele>
        <time>2022-01-08T13:45:47Z</time>
      </trkpt>
      <trkpt lat="44.77252" lon="7.00449">
        <ele>2209</ele>
        <time>2022-01-08T13:45:48Z</time>
      </trkpt>
      <trkpt lat="44.7725" lon="7.00443">
        <ele>2207</ele>
        <time>2022-01-08T13:45:49Z</time>
      </trkpt>
      <trkpt lat="44.77235" lon="7.00427">
        <ele>2201</ele>
        <time>2022-01-08T13:45:52Z</time>
      </trkpt>
      <trkpt lat="44.77233" lon="7.0042">
        <ele>2198</ele>
        <time>2022-01-08T13:45:53Z</time>
      </trkpt>
      <trkpt lat="44.7723" lon="7.00412">
        <ele>2196</ele>
        <time>2022-01-08T13:45:54Z</time>
      </trkpt>
      <trkpt lat="44.7722" lon="7.00397">
        <ele>2192</ele>
        <time>2022-01-08T13:45:56Z</time>
      </trkpt>
      <trkpt lat="44.77216" lon="7.00387">
        <ele>2189</ele>
        <time>2022-01-08T13:45:57Z</time>
      </trkpt>
      <trkpt lat="44.77211" lon="7.00379">
        <ele>2187</ele>
        <time>2022-01-08T13:45:58Z</time>
      </trkpt>
      <trkpt lat="44.77206" lon="7.00372">
        <ele>2185</ele>
        <time>2022-01-08T13:45:59Z</time>
      </trkpt>
      <trkpt lat="44.77203" lon="7.00362">
        <ele>2182</ele>
        <time>2022-01-08T13:46:00Z</time>
      </trkpt>
      <trkpt lat="44.772" lon="7.00352">
        <ele>2179</ele>
        <time>2022-01-08T13:46:01Z</time>
      </trkpt>
      <trkpt lat="44.77191" lon="7.00337">
        <ele>2175</ele>
        <time>2022-01-08T13:46:03Z</time>
      </trkpt>
      <trkpt lat="44.77189" lon="7.00329">
        <ele>2172</ele>
        <time>2022-01-08T13:46:04Z</time>
      </trkpt>
      <trkpt lat="44.77184" lon="7.00322">
        <ele>2168</ele>
        <time>2022-01-08T13:46:05Z</time>
      </trkpt>
      <trkpt lat="44.77178" lon="7.00317">
        <ele>2164</ele>
        <time>2022-01-08T13:46:06Z</time>
      </trkpt>
      <trkpt lat="44.7717" lon="7.00316">
        <ele>2161</ele>
        <time>2022-01-08T13:46:07Z</time>
      </trkpt>
      <trkpt lat="44.77154" lon="7.00318">
        <ele>2156</ele>
        <time>2022-01-08T13:46:09Z</time>
      </trkpt>
      <trkpt lat="44.77151" lon="7.00313">
        <ele>2153</ele>
        <time>2022-01-08T13:46:10Z</time>
      </trkpt>
      <trkpt lat="44.77147" lon="7.00306">
        <ele>2151</ele>
        <time>2022-01-08T13:46:11Z</time>
      </trkpt>
      <trkpt lat="44.77142" lon="7.00299">
        <ele>2148</ele>
        <time>2022-01-08T13:46:12Z</time>
      </trkpt>
      <trkpt lat="44.7713" lon="7.00285">
        <ele>2143</ele>
        <time>2022-01-08T13:46:15Z</time>
      </trkpt>
      <trkpt lat="44.7713" lon="7.00281">
        <ele>2142</ele>
        <time>2022-01-08T13:46:16Z</time>
      </trkpt>
      <trkpt lat="44.77135" lon="7.0026">
        <ele>2135</ele>
        <time>2022-01-08T13:46:20Z</time>
      </trkpt>
      <trkpt lat="44.77135" lon="7.00251">
        <ele>2133</ele>
        <time>2022-01-08T13:46:21Z</time>
      </trkpt>
      <trkpt lat="44.77131" lon="7.00236">
        <ele>2130</ele>
        <time>2022-01-08T13:46:23Z</time>
      </trkpt>
      <trkpt lat="44.7713" lon="7.00231">
        <ele>2128</ele>
        <time>2022-01-08T13:46:24Z</time>
      </trkpt>
      <trkpt lat="44.7713" lon="7.00226">
        <ele>2126</ele>
        <time>2022-01-08T13:46:25Z</time>
      </trkpt>
      <trkpt lat="44.7713" lon="7.00224">
        <ele>2125</ele>
        <time>2022-01-08T13:46:26Z</time>
      </trkpt>
      <trkpt lat="44.77127" lon="7.00217">
        <ele>2124</ele>
        <time>2022-01-08T13:46:53Z</time>
      </trkpt>
      <trkpt lat="44.77123" lon="7.0021">
        <ele>2123</ele>
        <time>2022-01-08T13:47:00Z</time>
      </trkpt>
      <trkpt lat="44.77122" lon="7.00206">
        <ele>2123</ele>
        <time>2022-01-08T13:47:01Z</time>
      </trkpt>
      <trkpt lat="44.77123" lon="7.002">
        <ele>2121</ele>
        <time>2022-01-08T13:47:02Z</time>
      </trkpt>
      <trkpt lat="44.77122" lon="7.00194">
        <ele>2120</ele>
        <time>2022-01-08T13:47:03Z</time>
      </trkpt>
      <trkpt lat="44.7712" lon="7.00189">
        <ele>2118</ele>
        <time>2022-01-08T13:47:04Z</time>
      </trkpt>
      <trkpt lat="44.77117" lon="7.00183">
        <ele>2116</ele>
        <time>2022-01-08T13:47:05Z</time>
      </trkpt>
      <trkpt lat="44.77115" lon="7.00176">
        <ele>2114</ele>
        <time>2022-01-08T13:47:06Z</time>
      </trkpt>
      <trkpt lat="44.77116" lon="7.00169">
        <ele>2111</ele>
        <time>2022-01-08T13:47:07Z</time>
      </trkpt>
      <trkpt lat="44.77121" lon="7.00161">
        <ele>2109</ele>
        <time>2022-01-08T13:47:08Z</time>
      </trkpt>
      <trkpt lat="44.77126" lon="7.00153">
        <ele>2106</ele>
        <time>2022-01-08T13:47:09Z</time>
      </trkpt>
      <trkpt lat="44.77126" lon="7.00144">
        <ele>2103</ele>
        <time>2022-01-08T13:47:10Z</time>
      </trkpt>
      <trkpt lat="44.77122" lon="7.00134">
        <ele>2101</ele>
        <time>2022-01-08T13:47:11Z</time>
      </trkpt>
      <trkpt lat="44.77092" lon="7.00095">
        <ele>2088</ele>
        <time>2022-01-08T13:47:19Z</time>
      </trkpt>
      <trkpt lat="44.77089" lon="7.00093">
        <ele>2087</ele>
        <time>2022-01-08T13:47:20Z</time>
      </trkpt>
      <trkpt lat="44.7708" lon="7.00079">
        <ele>2085</ele>
        <time>2022-01-08T13:47:24Z</time>
      </trkpt>
      <trkpt lat="44.77077" lon="7.00076">
        <ele>2084</ele>
        <time>2022-01-08T13:47:25Z</time>
      </trkpt>
      <trkpt lat="44.77073" lon="7.00073">
        <ele>2084</ele>
        <time>2022-01-08T13:47:26Z</time>
      </trkpt>
      <trkpt lat="44.77071" lon="7.00069">
        <ele>2083</ele>
        <time>2022-01-08T13:47:27Z</time>
      </trkpt>
      <trkpt lat="44.7707" lon="7.00062">
        <ele>2081</ele>
        <time>2022-01-08T13:47:28Z</time>
      </trkpt>
      <trkpt lat="44.77073" lon="7.0005">
        <ele>2078</ele>
        <time>2022-01-08T13:47:30Z</time>
      </trkpt>
      <trkpt lat="44.77075" lon="7.00045">
        <ele>2076</ele>
        <time>2022-01-08T13:47:31Z</time>
      </trkpt>
      <trkpt lat="44.77077" lon="7.00036">
        <ele>2075</ele>
        <time>2022-01-08T13:47:32Z</time>
      </trkpt>
      <trkpt lat="44.77075" lon="7.00031">
        <ele>2073</ele>
        <time>2022-01-08T13:47:33Z</time>
      </trkpt>
      <trkpt lat="44.77067" lon="7.00018">
        <ele>2069</ele>
        <time>2022-01-08T13:47:35Z</time>
      </trkpt>
      <trkpt lat="44.77064" lon="7.00001">
        <ele>2066</ele>
        <time>2022-01-08T13:47:37Z</time>
      </trkpt>
      <trkpt lat="44.77058" lon="6.99989">
        <ele>2063</ele>
        <time>2022-01-08T13:47:39Z</time>
      </trkpt>
      <trkpt lat="44.77053" lon="6.99966">
        <ele>2058</ele>
        <time>2022-01-08T13:47:42Z</time>
      </trkpt>
      <trkpt lat="44.77032" lon="6.99949">
        <ele>2053</ele>
        <time>2022-01-08T13:47:46Z</time>
      </trkpt>
      <trkpt lat="44.77026" lon="6.99917">
        <ele>2048</ele>
        <time>2022-01-08T13:47:50Z</time>
      </trkpt>
      <trkpt lat="44.77023" lon="6.99911">
        <ele>2046</ele>
        <time>2022-01-08T13:47:51Z</time>
      </trkpt>
      <trkpt lat="44.77021" lon="6.99907">
        <ele>2044</ele>
        <time>2022-01-08T13:47:52Z</time>
      </trkpt>
      <trkpt lat="44.77019" lon="6.99903">
        <ele>2042</ele>
        <time>2022-01-08T13:47:53Z</time>
      </trkpt>
      <trkpt lat="44.77016" lon="6.999">
        <ele>2040</ele>
        <time>2022-01-08T13:47:54Z</time>
      </trkpt>
      <trkpt lat="44.77013" lon="6.999">
        <ele>2039</ele>
        <time>2022-01-08T13:47:55Z</time>
      </trkpt>
      <trkpt lat="44.76994" lon="6.9991">
        <ele>2032</ele>
        <time>2022-01-08T13:48:01Z</time>
      </trkpt>
      <trkpt lat="44.76989" lon="6.99916">
        <ele>2030</ele>
        <time>2022-01-08T13:48:03Z</time>
      </trkpt>
      <trkpt lat="44.76974" lon="6.99922">
        <ele>2030</ele>
        <time>2022-01-08T13:48:08Z</time>
      </trkpt>
      <trkpt lat="44.76971" lon="6.9992">
        <ele>2030</ele>
        <time>2022-01-08T13:48:10Z</time>
      </trkpt>
      <trkpt lat="44.7697" lon="6.99916">
        <ele>2029</ele>
        <time>2022-01-08T13:48:12Z</time>
      </trkpt>
      <trkpt lat="44.76972" lon="6.99906">
        <ele>2026</ele>
        <time>2022-01-08T13:48:15Z</time>
      </trkpt>
      <trkpt lat="44.76973" lon="6.99901">
        <ele>2025</ele>
        <time>2022-01-08T13:48:17Z</time>
      </trkpt>
      <trkpt lat="44.76972" lon="6.99899">
        <ele>2023</ele>
        <time>2022-01-08T13:48:18Z</time>
      </trkpt>
      <trkpt lat="44.7697" lon="6.99897">
        <ele>2022</ele>
        <time>2022-01-08T13:48:19Z</time>
      </trkpt>
      <trkpt lat="44.76968" lon="6.99894">
        <ele>2021</ele>
        <time>2022-01-08T13:48:20Z</time>
      </trkpt>
      <trkpt lat="44.76967" lon="6.99889">
        <ele>2020</ele>
        <time>2022-01-08T13:48:21Z</time>
      </trkpt>
      <trkpt lat="44.76968" lon="6.99884">
        <ele>2019</ele>
        <time>2022-01-08T13:48:22Z</time>
      </trkpt>
      <trkpt lat="44.76971" lon="6.99872">
        <ele>2016</ele>
        <time>2022-01-08T13:48:24Z</time>
      </trkpt>
      <trkpt lat="44.76972" lon="6.99867">
        <ele>2015</ele>
        <time>2022-01-08T13:48:25Z</time>
      </trkpt>
      <trkpt lat="44.76971" lon="6.99864">
        <ele>2013</ele>
        <time>2022-01-08T13:48:26Z</time>
      </trkpt>
      <trkpt lat="44.76935" lon="6.99854">
        <ele>2005</ele>
        <time>2022-01-08T13:48:33Z</time>
      </trkpt>
      <trkpt lat="44.76906" lon="6.9983">
        <ele>2003</ele>
        <time>2022-01-08T13:48:43Z</time>
      </trkpt>
      <trkpt lat="44.76904" lon="6.99827">
        <ele>2003</ele>
        <time>2022-01-08T13:48:44Z</time>
      </trkpt>
      <trkpt lat="44.76903" lon="6.99823">
        <ele>2002</ele>
        <time>2022-01-08T13:48:50Z</time>
      </trkpt>
      <trkpt lat="44.76901" lon="6.99821">
        <ele>2000</ele>
        <time>2022-01-08T13:48:52Z</time>
      </trkpt>
      <trkpt lat="44.76896" lon="6.99815">
        <ele>1998</ele>
        <time>2022-01-08T13:48:59Z</time>
      </trkpt>
      <trkpt lat="44.76891" lon="6.99808">
        <ele>1995</ele>
        <time>2022-01-08T13:49:02Z</time>
      </trkpt>
      <trkpt lat="44.76891" lon="6.99804">
        <ele>1992</ele>
        <time>2022-01-08T13:49:04Z</time>
      </trkpt>
      <trkpt lat="44.76897" lon="6.99794">
        <ele>1987</ele>
        <time>2022-01-08T13:49:08Z</time>
      </trkpt>
      <trkpt lat="44.769" lon="6.9979">
        <ele>1986</ele>
        <time>2022-01-08T13:49:09Z</time>
      </trkpt>
      <trkpt lat="44.76914" lon="6.99773">
        <ele>1978</ele>
        <time>2022-01-08T13:49:13Z</time>
      </trkpt>
      <trkpt lat="44.76916" lon="6.99768">
        <ele>1978</ele>
        <time>2022-01-08T13:49:14Z</time>
      </trkpt>
      <trkpt lat="44.76915" lon="6.99764">
        <ele>1977</ele>
        <time>2022-01-08T13:49:15Z</time>
      </trkpt>
      <trkpt lat="44.76913" lon="6.99762">
        <ele>1976</ele>
        <time>2022-01-08T13:49:16Z</time>
      </trkpt>
      <trkpt lat="44.76909" lon="6.99763">
        <ele>1975</ele>
        <time>2022-01-08T13:49:17Z</time>
      </trkpt>
      <trkpt lat="44.76904" lon="6.99763">
        <ele>1974</ele>
        <time>2022-01-08T13:49:18Z</time>
      </trkpt>
      <trkpt lat="44.76901" lon="6.9976">
        <ele>1973</ele>
        <time>2022-01-08T13:49:19Z</time>
      </trkpt>
      <trkpt lat="44.76898" lon="6.99756">
        <ele>1972</ele>
        <time>2022-01-08T13:49:20Z</time>
      </trkpt>
      <trkpt lat="44.76897" lon="6.9975">
        <ele>1971</ele>
        <time>2022-01-08T13:49:21Z</time>
      </trkpt>
      <trkpt lat="44.76898" lon="6.99746">
        <ele>1970</ele>
        <time>2022-01-08T13:49:22Z</time>
      </trkpt>
      <trkpt lat="44.76902" lon="6.9974">
        <ele>1967</ele>
        <time>2022-01-08T13:49:24Z</time>
      </trkpt>
      <trkpt lat="44.76904" lon="6.99734">
        <ele>1966</ele>
        <time>2022-01-08T13:49:26Z</time>
      </trkpt>
      <trkpt lat="44.76903" lon="6.99725">
        <ele>1964</ele>
        <time>2022-01-08T13:49:29Z</time>
      </trkpt>
      <trkpt lat="44.76903" lon="6.99716">
        <ele>1962</ele>
        <time>2022-01-08T13:49:31Z</time>
      </trkpt>
      <trkpt lat="44.76902" lon="6.99703">
        <ele>1958</ele>
        <time>2022-01-08T13:49:34Z</time>
      </trkpt>
      <trkpt lat="44.76902" lon="6.99694">
        <ele>1956</ele>
        <time>2022-01-08T13:49:36Z</time>
      </trkpt>
      <trkpt lat="44.76902" lon="6.99691">
        <ele>1955</ele>
        <time>2022-01-08T13:49:37Z</time>
      </trkpt>
      <trkpt lat="44.76889" lon="6.99696">
        <ele>1955</ele>
        <time>2022-01-08T13:50:07Z</time>
      </trkpt>
      <trkpt lat="44.76883" lon="6.99695">
        <ele>1954</ele>
        <time>2022-01-08T13:50:09Z</time>
      </trkpt>
      <trkpt lat="44.76874" lon="6.99688">
        <ele>1951</ele>
        <time>2022-01-08T13:50:13Z</time>
      </trkpt>
      <trkpt lat="44.76875" lon="6.99685">
        <ele>1950</ele>
        <time>2022-01-08T13:50:15Z</time>
      </trkpt>
      <trkpt lat="44.76877" lon="6.99681">
        <ele>1948</ele>
        <time>2022-01-08T13:50:17Z</time>
      </trkpt>
      <trkpt lat="44.76877" lon="6.99678">
        <ele>1946</ele>
        <time>2022-01-08T13:50:19Z</time>
      </trkpt>
      <trkpt lat="44.76871" lon="6.99658">
        <ele>1940</ele>
        <time>2022-01-08T13:50:37Z</time>
      </trkpt>
      <trkpt lat="44.76874" lon="6.99656">
        <ele>1937</ele>
        <time>2022-01-08T13:50:43Z</time>
      </trkpt>
      <trkpt lat="44.76878" lon="6.9965">
        <ele>1934</ele>
        <time>2022-01-08T13:50:46Z</time>
      </trkpt>
      <trkpt lat="44.76877" lon="6.99638">
        <ele>1929</ele>
        <time>2022-01-08T13:50:52Z</time>
      </trkpt>
      <trkpt lat="44.76871" lon="6.99635">
        <ele>1926</ele>
        <time>2022-01-08T13:50:54Z</time>
      </trkpt>
      <trkpt lat="44.76868" lon="6.99634">
        <ele>1925</ele>
        <time>2022-01-08T13:50:55Z</time>
      </trkpt>
      <trkpt lat="44.76867" lon="6.99631">
        <ele>1924</ele>
        <time>2022-01-08T13:50:58Z</time>
      </trkpt>
      <trkpt lat="44.76866" lon="6.99628">
        <ele>1924</ele>
        <time>2022-01-08T13:51:07Z</time>
      </trkpt>
      <trkpt lat="44.7687" lon="6.99624">
        <ele>1924</ele>
        <time>2022-01-08T13:51:12Z</time>
      </trkpt>
      <trkpt lat="44.76872" lon="6.99621">
        <ele>1924</ele>
        <time>2022-01-08T13:51:13Z</time>
      </trkpt>
      <trkpt lat="44.76875" lon="6.99612">
        <ele>1924</ele>
        <time>2022-01-08T13:51:15Z</time>
      </trkpt>
      <trkpt lat="44.76874" lon="6.99607">
        <ele>1923</ele>
        <time>2022-01-08T13:51:16Z</time>
      </trkpt>
      <trkpt lat="44.76874" lon="6.99604">
        <ele>1923</ele>
        <time>2022-01-08T13:51:17Z</time>
      </trkpt>
      <trkpt lat="44.76874" lon="6.99594">
        <ele>1919</ele>
        <time>2022-01-08T13:51:30Z</time>
      </trkpt>
      <trkpt lat="44.76873" lon="6.99591">
        <ele>1918</ele>
        <time>2022-01-08T13:51:32Z</time>
      </trkpt>
      <trkpt lat="44.76872" lon="6.99591">
        <ele>1915</ele>
        <time>2022-01-08T13:51:35Z</time>
      </trkpt>
      <trkpt lat="44.76866" lon="6.99591">
        <ele>1913</ele>
        <time>2022-01-08T13:51:38Z</time>
      </trkpt>
      <trkpt lat="44.76864" lon="6.9959">
        <ele>1912</ele>
        <time>2022-01-08T13:51:39Z</time>
      </trkpt>
      <trkpt lat="44.76863" lon="6.99588">
        <ele>1911</ele>
        <time>2022-01-08T13:51:40Z</time>
      </trkpt>
      <trkpt lat="44.76863" lon="6.99584">
        <ele>1910</ele>
        <time>2022-01-08T13:51:41Z</time>
      </trkpt>
      <trkpt lat="44.76862" lon="6.99581">
        <ele>1908</ele>
        <time>2022-01-08T13:51:43Z</time>
      </trkpt>
      <trkpt lat="44.7686" lon="6.99581">
        <ele>1906</ele>
        <time>2022-01-08T13:51:44Z</time>
      </trkpt>
      <trkpt lat="44.76856" lon="6.99584">
        <ele>1903</ele>
        <time>2022-01-08T13:51:46Z</time>
      </trkpt>
      <trkpt lat="44.76854" lon="6.99582">
        <ele>1902</ele>
        <time>2022-01-08T13:51:47Z</time>
      </trkpt>
      <trkpt lat="44.76853" lon="6.99578">
        <ele>1900</ele>
        <time>2022-01-08T13:51:48Z</time>
      </trkpt>
      <trkpt lat="44.76854" lon="6.99575">
        <ele>1899</ele>
        <time>2022-01-08T13:51:49Z</time>
      </trkpt>
      <trkpt lat="44.76852" lon="6.99573">
        <ele>1897</ele>
        <time>2022-01-08T13:51:50Z</time>
      </trkpt>
      <trkpt lat="44.76848" lon="6.99571">
        <ele>1895</ele>
        <time>2022-01-08T13:51:52Z</time>
      </trkpt>
      <trkpt lat="44.76847" lon="6.99567">
        <ele>1894</ele>
        <time>2022-01-08T13:51:53Z</time>
      </trkpt>
      <trkpt lat="44.76847" lon="6.99564">
        <ele>1893</ele>
        <time>2022-01-08T13:51:54Z</time>
      </trkpt>
      <trkpt lat="44.7685" lon="6.99555">
        <ele>1888</ele>
        <time>2022-01-08T13:51:57Z</time>
      </trkpt>
      <trkpt lat="44.76851" lon="6.99552">
        <ele>1886</ele>
        <time>2022-01-08T13:51:58Z</time>
      </trkpt>
      <trkpt lat="44.76847" lon="6.99544">
        <ele>1881</ele>
        <time>2022-01-08T13:52:05Z</time>
      </trkpt>
      <trkpt lat="44.76845" lon="6.99542">
        <ele>1880</ele>
        <time>2022-01-08T13:52:06Z</time>
      </trkpt>
      <trkpt lat="44.76845" lon="6.99539">
        <ele>1877</ele>
        <time>2022-01-08T13:52:07Z</time>
      </trkpt>
      <trkpt lat="44.76847" lon="6.99534">
        <ele>1875</ele>
        <time>2022-01-08T13:52:09Z</time>
      </trkpt>
      <trkpt lat="44.76848" lon="6.99531">
        <ele>1874</ele>
        <time>2022-01-08T13:52:10Z</time>
      </trkpt>
      <trkpt lat="44.76842" lon="6.9952">
        <ele>1868</ele>
        <time>2022-01-08T13:52:13Z</time>
      </trkpt>
      <trkpt lat="44.76841" lon="6.99513">
        <ele>1867</ele>
        <time>2022-01-08T13:52:14Z</time>
      </trkpt>
      <trkpt lat="44.76842" lon="6.99508">
        <ele>1865</ele>
        <time>2022-01-08T13:52:15Z</time>
      </trkpt>
      <trkpt lat="44.76844" lon="6.99502">
        <ele>1862</ele>
        <time>2022-01-08T13:52:16Z</time>
      </trkpt>
      <trkpt lat="44.76844" lon="6.99497">
        <ele>1861</ele>
        <time>2022-01-08T13:52:17Z</time>
      </trkpt>
      <trkpt lat="44.76842" lon="6.99493">
        <ele>1858</ele>
        <time>2022-01-08T13:52:18Z</time>
      </trkpt>
      <trkpt lat="44.76841" lon="6.99486">
        <ele>1855</ele>
        <time>2022-01-08T13:52:19Z</time>
      </trkpt>
      <trkpt lat="44.76843" lon="6.99471">
        <ele>1850</ele>
        <time>2022-01-08T13:52:21Z</time>
      </trkpt>
      <trkpt lat="44.76845" lon="6.99463">
        <ele>1848</ele>
        <time>2022-01-08T13:52:22Z</time>
      </trkpt>
      <trkpt lat="44.76848" lon="6.99455">
        <ele>1845</ele>
        <time>2022-01-08T13:52:23Z</time>
      </trkpt>
      <trkpt lat="44.76851" lon="6.99448">
        <ele>1843</ele>
        <time>2022-01-08T13:52:24Z</time>
      </trkpt>
      <trkpt lat="44.76853" lon="6.99442">
        <ele>1841</ele>
        <time>2022-01-08T13:52:25Z</time>
      </trkpt>
      <trkpt lat="44.76855" lon="6.99433">
        <ele>1838</ele>
        <time>2022-01-08T13:52:27Z</time>
      </trkpt>
      <trkpt lat="44.76855" lon="6.99427">
        <ele>1837</ele>
        <time>2022-01-08T13:52:29Z</time>
      </trkpt>
      <trkpt lat="44.76858" lon="6.99418">
        <ele>1835</ele>
        <time>2022-01-08T13:52:32Z</time>
      </trkpt>
      <trkpt lat="44.76859" lon="6.99415">
        <ele>1835</ele>
        <time>2022-01-08T13:52:33Z</time>
      </trkpt>
      <trkpt lat="44.76859" lon="6.99409">
        <ele>1836</ele>
        <time>2022-01-08T13:52:39Z</time>
      </trkpt>
      <trkpt lat="44.76846" lon="6.9941">
        <ele>1837</ele>
        <time>2022-01-08T13:52:42Z</time>
      </trkpt>
      <trkpt lat="44.7684" lon="6.99408">
        <ele>1837</ele>
        <time>2022-01-08T13:52:43Z</time>
      </trkpt>
      <trkpt lat="44.76838" lon="6.99401">
        <ele>1837</ele>
        <time>2022-01-08T13:52:44Z</time>
      </trkpt>
      <trkpt lat="44.7684" lon="6.99382">
        <ele>1834</ele>
        <time>2022-01-08T13:52:47Z</time>
      </trkpt>
      <trkpt lat="44.76847" lon="6.99358">
        <ele>1828</ele>
        <time>2022-01-08T13:52:51Z</time>
      </trkpt>
      <trkpt lat="44.76849" lon="6.99353">
        <ele>1827</ele>
        <time>2022-01-08T13:52:52Z</time>
      </trkpt>
      <trkpt lat="44.76851" lon="6.99348">
        <ele>1825</ele>
        <time>2022-01-08T13:52:53Z</time>
      </trkpt>
      <trkpt lat="44.7685" lon="6.99344">
        <ele>1825</ele>
        <time>2022-01-08T13:52:54Z</time>
      </trkpt>
      <trkpt lat="44.76838" lon="6.99331">
        <ele>1821</ele>
        <time>2022-01-08T13:52:58Z</time>
      </trkpt>
      <trkpt lat="44.76826" lon="6.99323">
        <ele>1818</ele>
        <time>2022-01-08T13:53:01Z</time>
      </trkpt>
      <trkpt lat="44.76825" lon="6.99317">
        <ele>1816</ele>
        <time>2022-01-08T13:53:02Z</time>
      </trkpt>
      <trkpt lat="44.76825" lon="6.99309">
        <ele>1814</ele>
        <time>2022-01-08T13:53:03Z</time>
      </trkpt>
      <trkpt lat="44.76823" lon="6.99303">
        <ele>1811</ele>
        <time>2022-01-08T13:53:04Z</time>
      </trkpt>
      <trkpt lat="44.76818" lon="6.99298">
        <ele>1806</ele>
        <time>2022-01-08T13:53:06Z</time>
      </trkpt>
      <trkpt lat="44.76816" lon="6.99294">
        <ele>1804</ele>
        <time>2022-01-08T13:53:07Z</time>
      </trkpt>
      <trkpt lat="44.76817" lon="6.99291">
        <ele>1800</ele>
        <time>2022-01-08T13:53:08Z</time>
      </trkpt>
      <trkpt lat="44.76821" lon="6.99288">
        <ele>1795</ele>
        <time>2022-01-08T13:53:10Z</time>
      </trkpt>
      <trkpt lat="44.76818" lon="6.99287">
        <ele>1795</ele>
        <time>2022-01-08T13:53:49Z</time>
      </trkpt>
      <trkpt lat="44.76814" lon="6.9929">
        <ele>1795</ele>
        <time>2022-01-08T13:53:51Z</time>
      </trkpt>
      <trkpt lat="44.76812" lon="6.99291">
        <ele>1795</ele>
        <time>2022-01-08T13:53:52Z</time>
      </trkpt>
      <trkpt lat="44.7681" lon="6.99293">
        <ele>1795</ele>
        <time>2022-01-08T13:53:53Z</time>
      </trkpt>
      <trkpt lat="44.76808" lon="6.99293">
        <ele>1795</ele>
        <time>2022-01-08T13:53:54Z</time>
      </trkpt>
      <trkpt lat="44.76806" lon="6.99291">
        <ele>1795</ele>
        <time>2022-01-08T13:53:55Z</time>
      </trkpt>
      <trkpt lat="44.76805" lon="6.99287">
        <ele>1794</ele>
        <time>2022-01-08T13:53:56Z</time>
      </trkpt>
      <trkpt lat="44.76803" lon="6.99284">
        <ele>1794</ele>
        <time>2022-01-08T13:53:57Z</time>
      </trkpt>
      <trkpt lat="44.76796" lon="6.99281">
        <ele>1793</ele>
        <time>2022-01-08T13:53:59Z</time>
      </trkpt>
      <trkpt lat="44.76794" lon="6.99278">
        <ele>1793</ele>
        <time>2022-01-08T13:54:00Z</time>
      </trkpt>
      <trkpt lat="44.76793" lon="6.99273">
        <ele>1793</ele>
        <time>2022-01-08T13:54:01Z</time>
      </trkpt>
      <trkpt lat="44.76794" lon="6.9927">
        <ele>1792</ele>
        <time>2022-01-08T13:54:02Z</time>
      </trkpt>
      <trkpt lat="44.76797" lon="6.99266">
        <ele>1790</ele>
        <time>2022-01-08T13:54:04Z</time>
      </trkpt>
      <trkpt lat="44.76797" lon="6.99264">
        <ele>1789</ele>
        <time>2022-01-08T13:54:05Z</time>
      </trkpt>
      <trkpt lat="44.76798" lon="6.9926">
        <ele>1786</ele>
        <time>2022-01-08T13:54:07Z</time>
      </trkpt>
      <trkpt lat="44.768" lon="6.99256">
        <ele>1782</ele>
        <time>2022-01-08T13:54:09Z</time>
      </trkpt>
      <trkpt lat="44.76797" lon="6.99253">
        <ele>1780</ele>
        <time>2022-01-08T13:54:11Z</time>
      </trkpt>
      <trkpt lat="44.76794" lon="6.9925">
        <ele>1779</ele>
        <time>2022-01-08T13:54:12Z</time>
      </trkpt>
      <trkpt lat="44.76793" lon="6.99246">
        <ele>1778</ele>
        <time>2022-01-08T13:54:13Z</time>
      </trkpt>
      <trkpt lat="44.76793" lon="6.99242">
        <ele>1776</ele>
        <time>2022-01-08T13:54:15Z</time>
      </trkpt>
      <trkpt lat="44.7679" lon="6.99242">
        <ele>1775</ele>
        <time>2022-01-08T13:54:24Z</time>
      </trkpt>
      <trkpt lat="44.76777" lon="6.99249">
        <ele>1772</ele>
        <time>2022-01-08T13:54:28Z</time>
      </trkpt>
      <trkpt lat="44.76773" lon="6.99249">
        <ele>1771</ele>
        <time>2022-01-08T13:54:30Z</time>
      </trkpt>
      <trkpt lat="44.76771" lon="6.99249">
        <ele>1770</ele>
        <time>2022-01-08T13:54:31Z</time>
      </trkpt>
      <trkpt lat="44.76768" lon="6.99249">
        <ele>1770</ele>
        <time>2022-01-08T13:54:32Z</time>
      </trkpt>
      <trkpt lat="44.76767" lon="6.99247">
        <ele>1769</ele>
        <time>2022-01-08T13:54:33Z</time>
      </trkpt>
      <trkpt lat="44.76768" lon="6.99242">
        <ele>1768</ele>
        <time>2022-01-08T13:54:35Z</time>
      </trkpt>
      <trkpt lat="44.76768" lon="6.99239">
        <ele>1767</ele>
        <time>2022-01-08T13:54:36Z</time>
      </trkpt>
      <trkpt lat="44.76764" lon="6.99236">
        <ele>1766</ele>
        <time>2022-01-08T13:54:37Z</time>
      </trkpt>
      <trkpt lat="44.76751" lon="6.99231">
        <ele>1763</ele>
        <time>2022-01-08T13:54:40Z</time>
      </trkpt>
      <trkpt lat="44.76751" lon="6.99227">
        <ele>1762</ele>
        <time>2022-01-08T13:54:41Z</time>
      </trkpt>
      <trkpt lat="44.76755" lon="6.99211">
        <ele>1759</ele>
        <time>2022-01-08T13:54:44Z</time>
      </trkpt>
      <trkpt lat="44.76761" lon="6.99205">
        <ele>1758</ele>
        <time>2022-01-08T13:54:46Z</time>
      </trkpt>
      <trkpt lat="44.76763" lon="6.99201">
        <ele>1757</ele>
        <time>2022-01-08T13:54:47Z</time>
      </trkpt>
      <trkpt lat="44.76762" lon="6.99199">
        <ele>1756</ele>
        <time>2022-01-08T13:54:48Z</time>
      </trkpt>
      <trkpt lat="44.76758" lon="6.99198">
        <ele>1755</ele>
        <time>2022-01-08T13:54:49Z</time>
      </trkpt>
      <trkpt lat="44.76735" lon="6.99202">
        <ele>1750</ele>
        <time>2022-01-08T13:54:54Z</time>
      </trkpt>
      <trkpt lat="44.7673" lon="6.99201">
        <ele>1750</ele>
        <time>2022-01-08T13:54:55Z</time>
      </trkpt>
      <trkpt lat="44.76722" lon="6.99195">
        <ele>1748</ele>
        <time>2022-01-08T13:54:57Z</time>
      </trkpt>
      <trkpt lat="44.76727" lon="6.9919">
        <ele>1747</ele>
        <time>2022-01-08T13:54:59Z</time>
      </trkpt>
      <trkpt lat="44.76731" lon="6.99189">
        <ele>1745</ele>
        <time>2022-01-08T13:55:01Z</time>
      </trkpt>
      <trkpt lat="44.76733" lon="6.99189">
        <ele>1744</ele>
        <time>2022-01-08T13:55:02Z</time>
      </trkpt>
      <trkpt lat="44.76736" lon="6.99188">
        <ele>1743</ele>
        <time>2022-01-08T13:55:04Z</time>
      </trkpt>
      <trkpt lat="44.76739" lon="6.99183">
        <ele>1742</ele>
        <time>2022-01-08T13:55:06Z</time>
      </trkpt>
      <trkpt lat="44.76738" lon="6.9918">
        <ele>1741</ele>
        <time>2022-01-08T13:55:07Z</time>
      </trkpt>
      <trkpt lat="44.76735" lon="6.99179">
        <ele>1741</ele>
        <time>2022-01-08T13:55:08Z</time>
      </trkpt>
      <trkpt lat="44.76722" lon="6.9918">
        <ele>1740</ele>
        <time>2022-01-08T13:55:12Z</time>
      </trkpt>
      <trkpt lat="44.76718" lon="6.99179">
        <ele>1739</ele>
        <time>2022-01-08T13:55:13Z</time>
      </trkpt>
      <trkpt lat="44.76716" lon="6.99177">
        <ele>1739</ele>
        <time>2022-01-08T13:55:14Z</time>
      </trkpt>
      <trkpt lat="44.76716" lon="6.99173">
        <ele>1738</ele>
        <time>2022-01-08T13:55:15Z</time>
      </trkpt>
      <trkpt lat="44.7672" lon="6.99167">
        <ele>1737</ele>
        <time>2022-01-08T13:55:17Z</time>
      </trkpt>
      <trkpt lat="44.76722" lon="6.99163">
        <ele>1736</ele>
        <time>2022-01-08T13:55:18Z</time>
      </trkpt>
      <trkpt lat="44.7672" lon="6.99154">
        <ele>1734</ele>
        <time>2022-01-08T13:55:20Z</time>
      </trkpt>
      <trkpt lat="44.76721" lon="6.9915">
        <ele>1733</ele>
        <time>2022-01-08T13:55:21Z</time>
      </trkpt>
      <trkpt lat="44.76722" lon="6.99145">
        <ele>1732</ele>
        <time>2022-01-08T13:55:22Z</time>
      </trkpt>
      <trkpt lat="44.76722" lon="6.9914">
        <ele>1731</ele>
        <time>2022-01-08T13:55:23Z</time>
      </trkpt>
      <trkpt lat="44.7672" lon="6.99137">
        <ele>1730</ele>
        <time>2022-01-08T13:55:24Z</time>
      </trkpt>
      <trkpt lat="44.76719" lon="6.99135">
        <ele>1728</ele>
        <time>2022-01-08T13:55:25Z</time>
      </trkpt>
      <trkpt lat="44.76719" lon="6.99133">
        <ele>1727</ele>
        <time>2022-01-08T13:55:28Z</time>
      </trkpt>
      <trkpt lat="44.76719" lon="6.9913">
        <ele>1725</ele>
        <time>2022-01-08T13:55:29Z</time>
      </trkpt>
      <trkpt lat="44.7672" lon="6.99127">
        <ele>1724</ele>
        <time>2022-01-08T13:55:30Z</time>
      </trkpt>
      <trkpt lat="44.76719" lon="6.99124">
        <ele>1723</ele>
        <time>2022-01-08T13:55:31Z</time>
      </trkpt>
      <trkpt lat="44.76701" lon="6.9912">
        <ele>1719</ele>
        <time>2022-01-08T13:55:36Z</time>
      </trkpt>
      <trkpt lat="44.76692" lon="6.99118">
        <ele>1718</ele>
        <time>2022-01-08T13:55:42Z</time>
      </trkpt>
      <trkpt lat="44.76681" lon="6.99122">
        <ele>1719</ele>
        <time>2022-01-08T13:55:54Z</time>
      </trkpt>
      <trkpt lat="44.76667" lon="6.99137">
        <ele>1717</ele>
        <time>2022-01-08T13:56:03Z</time>
      </trkpt>
      <trkpt lat="44.76665" lon="6.99138">
        <ele>1717</ele>
        <time>2022-01-08T13:56:04Z</time>
      </trkpt>
      <trkpt lat="44.76663" lon="6.99136">
        <ele>1716</ele>
        <time>2022-01-08T13:56:05Z</time>
      </trkpt>
      <trkpt lat="44.76663" lon="6.99132">
        <ele>1716</ele>
        <time>2022-01-08T13:56:06Z</time>
      </trkpt>
      <trkpt lat="44.76662" lon="6.99128">
        <ele>1716</ele>
        <time>2022-01-08T13:56:07Z</time>
      </trkpt>
      <trkpt lat="44.76659" lon="6.99126">
        <ele>1715</ele>
        <time>2022-01-08T13:56:08Z</time>
      </trkpt>
      <trkpt lat="44.76654" lon="6.99127">
        <ele>1714</ele>
        <time>2022-01-08T13:56:10Z</time>
      </trkpt>
      <trkpt lat="44.76651" lon="6.99129">
        <ele>1713</ele>
        <time>2022-01-08T13:56:13Z</time>
      </trkpt>
      <trkpt lat="44.76649" lon="6.9913">
        <ele>1712</ele>
        <time>2022-01-08T13:56:14Z</time>
      </trkpt>
      <trkpt lat="44.76647" lon="6.99129">
        <ele>1711</ele>
        <time>2022-01-08T13:56:16Z</time>
      </trkpt>
      <trkpt lat="44.76647" lon="6.99094">
        <ele>1705</ele>
        <time>2022-01-08T13:56:23Z</time>
      </trkpt>
      <trkpt lat="44.76645" lon="6.99097">
        <ele>1704</ele>
        <time>2022-01-08T13:56:26Z</time>
      </trkpt>
      <trkpt lat="44.76645" lon="6.99101">
        <ele>1702</ele>
        <time>2022-01-08T13:56:28Z</time>
      </trkpt>
      <trkpt lat="44.76641" lon="6.99107">
        <ele>1699</ele>
        <time>2022-01-08T13:56:33Z</time>
      </trkpt>
      <trkpt lat="44.76639" lon="6.99107">
        <ele>1697</ele>
        <time>2022-01-08T13:56:35Z</time>
      </trkpt>
      <trkpt lat="44.76638" lon="6.99105">
        <ele>1697</ele>
        <time>2022-01-08T13:56:37Z</time>
      </trkpt>
      <trkpt lat="44.76643" lon="6.99072">
        <ele>1692</ele>
        <time>2022-01-08T13:56:43Z</time>
      </trkpt>
      <trkpt lat="44.76644" lon="6.99066">
        <ele>1691</ele>
        <time>2022-01-08T13:56:44Z</time>
      </trkpt>
      <trkpt lat="44.76644" lon="6.99063">
        <ele>1690</ele>
        <time>2022-01-08T13:56:45Z</time>
      </trkpt>
      <trkpt lat="44.76632" lon="6.9908">
        <ele>1685</ele>
        <time>2022-01-08T13:56:53Z</time>
      </trkpt>
      <trkpt lat="44.7663" lon="6.9908">
        <ele>1685</ele>
        <time>2022-01-08T13:56:54Z</time>
      </trkpt>
      <trkpt lat="44.76628" lon="6.99078">
        <ele>1685</ele>
        <time>2022-01-08T13:56:55Z</time>
      </trkpt>
      <trkpt lat="44.76627" lon="6.99073">
        <ele>1684</ele>
        <time>2022-01-08T13:56:56Z</time>
      </trkpt>
      <trkpt lat="44.76632" lon="6.99044">
        <ele>1681</ele>
        <time>2022-01-08T13:57:00Z</time>
      </trkpt>
      <trkpt lat="44.76632" lon="6.99035">
        <ele>1680</ele>
        <time>2022-01-08T13:57:01Z</time>
      </trkpt>
      <trkpt lat="44.76629" lon="6.99018">
        <ele>1678</ele>
        <time>2022-01-08T13:57:03Z</time>
      </trkpt>
      <trkpt lat="44.76618" lon="6.98988">
        <ele>1676</ele>
        <time>2022-01-08T13:57:07Z</time>
      </trkpt>
      <trkpt lat="44.76615" lon="6.98965">
        <ele>1674</ele>
        <time>2022-01-08T13:57:10Z</time>
      </trkpt>
      <trkpt lat="44.76611" lon="6.98901">
        <ele>1669</ele>
        <time>2022-01-08T13:57:31Z</time>
      </trkpt>
      <trkpt lat="44.76607" lon="6.98893">
        <ele>1668</ele>
        <time>2022-01-08T13:57:33Z</time>
      </trkpt>
      <trkpt lat="44.76593" lon="6.98878">
        <ele>1666</ele>
        <time>2022-01-08T13:57:36Z</time>
      </trkpt>
      <trkpt lat="44.76585" lon="6.98864">
        <ele>1665</ele>
        <time>2022-01-08T13:57:38Z</time>
      </trkpt>
      <trkpt lat="44.76581" lon="6.98859">
        <ele>1664</ele>
        <time>2022-01-08T13:57:39Z</time>
      </trkpt>
      <trkpt lat="44.7657" lon="6.98853">
        <ele>1662</ele>
        <time>2022-01-08T13:57:41Z</time>
      </trkpt>
      <trkpt lat="44.76565" lon="6.98849">
        <ele>1662</ele>
        <time>2022-01-08T13:57:42Z</time>
      </trkpt>
      <trkpt lat="44.76561" lon="6.98841">
        <ele>1661</ele>
        <time>2022-01-08T13:57:43Z</time>
      </trkpt>
      <trkpt lat="44.76557" lon="6.98835">
        <ele>1661</ele>
        <time>2022-01-08T13:57:44Z</time>
      </trkpt>
      <trkpt lat="44.76553" lon="6.9883">
        <ele>1660</ele>
        <time>2022-01-08T13:57:45Z</time>
      </trkpt>
      <trkpt lat="44.76543" lon="6.98826">
        <ele>1659</ele>
        <time>2022-01-08T13:57:47Z</time>
      </trkpt>
      <trkpt lat="44.76538" lon="6.98823">
        <ele>1658</ele>
        <time>2022-01-08T13:57:48Z</time>
      </trkpt>
      <trkpt lat="44.76534" lon="6.98815">
        <ele>1656</ele>
        <time>2022-01-08T13:57:50Z</time>
      </trkpt>
      <trkpt lat="44.76532" lon="6.98811">
        <ele>1655</ele>
        <time>2022-01-08T13:57:51Z</time>
      </trkpt>
      <trkpt lat="44.76531" lon="6.98806">
        <ele>1654</ele>
        <time>2022-01-08T13:57:52Z</time>
      </trkpt>
      <trkpt lat="44.76531" lon="6.98803">
        <ele>1654</ele>
        <time>2022-01-08T13:57:53Z</time>
      </trkpt>
      <trkpt lat="44.76528" lon="6.98801">
        <ele>1653</ele>
        <time>2022-01-08T13:57:55Z</time>
      </trkpt>
      <trkpt lat="44.76526" lon="6.98799">
        <ele>1653</ele>
        <time>2022-01-08T13:57:56Z</time>
      </trkpt>
      <trkpt lat="44.76523" lon="6.98794">
        <ele>1651</ele>
        <time>2022-01-08T13:57:58Z</time>
      </trkpt>
      <trkpt lat="44.76522" lon="6.98792">
        <ele>1651</ele>
        <time>2022-01-08T13:58:00Z</time>
      </trkpt>
      <trkpt lat="44.76525" lon="6.9879">
        <ele>1650</ele>
        <time>2022-01-08T13:58:03Z</time>
      </trkpt>
      <trkpt lat="44.76535" lon="6.98786">
        <ele>1646</ele>
        <time>2022-01-08T13:58:09Z</time>
      </trkpt>
      <trkpt lat="44.76536" lon="6.98783">
        <ele>1645</ele>
        <time>2022-01-08T13:58:11Z</time>
      </trkpt>
      <trkpt lat="44.76543" lon="6.98761">
        <ele>1646</ele>
        <time>2022-01-08T13:58:31Z</time>
      </trkpt>
      <trkpt lat="44.76547" lon="6.98734">
        <ele>1647</ele>
        <time>2022-01-08T13:58:37Z</time>
      </trkpt>
      <trkpt lat="44.76556" lon="6.98709">
        <ele>1648</ele>
        <time>2022-01-08T13:58:42Z</time>
      </trkpt>
      <trkpt lat="44.76586" lon="6.98568">
        <ele>1636</ele>
        <time>2022-01-08T13:59:05Z</time>
      </trkpt>
      <trkpt lat="44.76587" lon="6.98564">
        <ele>1636</ele>
        <time>2022-01-08T13:59:06Z</time>
      </trkpt>
      <trkpt lat="44.76591" lon="6.98559">
        <ele>1636</ele>
        <time>2022-01-08T13:59:08Z</time>
      </trkpt>
      <trkpt lat="44.76595" lon="6.98555">
        <ele>1635</ele>
        <time>2022-01-08T13:59:12Z</time>
      </trkpt>
      <trkpt lat="44.76597" lon="6.9855">
        <ele>1635</ele>
        <time>2022-01-08T13:59:37Z</time>
      </trkpt>
      <trkpt lat="44.76597" lon="6.98544">
        <ele>1635</ele>
        <time>2022-01-08T13:59:39Z</time>
      </trkpt>
      <trkpt lat="44.76598" lon="6.98529">
        <ele>1636</ele>
        <time>2022-01-08T13:59:42Z</time>
      </trkpt>
      <trkpt lat="44.76602" lon="6.9849">
        <ele>1638</ele>
        <time>2022-01-08T13:59:50Z</time>
      </trkpt>
      <trkpt lat="44.76597" lon="6.98474">
        <ele>1637</ele>
        <time>2022-01-08T13:59:53Z</time>
      </trkpt>
      <trkpt lat="44.76585" lon="6.98453">
        <ele>1639</ele>
        <time>2022-01-08T13:59:56Z</time>
      </trkpt>
      <trkpt lat="44.76584" lon="6.98444">
        <ele>1640</ele>
        <time>2022-01-08T13:59:57Z</time>
      </trkpt>
      <trkpt lat="44.76586" lon="6.98437">
        <ele>1640</ele>
        <time>2022-01-08T13:59:58Z</time>
      </trkpt>
      <trkpt lat="44.76613" lon="6.98402">
        <ele>1637</ele>
        <time>2022-01-08T14:00:07Z</time>
      </trkpt>
      <trkpt lat="44.76615" lon="6.98397">
        <ele>1636</ele>
        <time>2022-01-08T14:00:08Z</time>
      </trkpt>
      <trkpt lat="44.76615" lon="6.98393">
        <ele>1636</ele>
        <time>2022-01-08T14:00:09Z</time>
      </trkpt>
      <trkpt lat="44.76613" lon="6.98391">
        <ele>1635</ele>
        <time>2022-01-08T14:00:10Z</time>
      </trkpt>
      <trkpt lat="44.76612" lon="6.98389">
        <ele>1635</ele>
        <time>2022-01-08T14:00:12Z</time>
      </trkpt>
      <trkpt lat="44.76609" lon="6.9839">
        <ele>1635</ele>
        <time>2022-01-08T14:00:14Z</time>
      </trkpt>
      <trkpt lat="44.766" lon="6.98387">
        <ele>1634</ele>
        <time>2022-01-08T14:00:40Z</time>
      </trkpt>
    </trkseg>
  </trk>
</gpx>